<?xml version="1.0" encoding="UTF-8" standalone="no" ?>
<gpx xmlns="http://www.topografix.com/GPX/1/1" xmlns:xsi="http://www.w3.org/2001/XMLSchema-instance" xsi:schemaLocation="http://www.topografix.com/GPX/1/1 http://www.topografix.com/GPX/1/1/gpx.xsd" version="1.1" creator="VisuGPX - https://www.visugpx.com">
  <metadata>
    <name>TG19 60 KMS</name>
    <desc><![CDATA[                                         ]]></desc>
  </metadata>
  <trk>
    <name><![CDATA[TG19 60 KMS_1]]></name>
    <trkseg>
      <trkpt lat="46.72847" lon="-0.16525">
        <ele>123.4</ele>
        <time>2019-02-03T23:14:40.000Z</time>
      </trkpt>
      <trkpt lat="46.72847" lon="-0.16524">
        <ele>123.4</ele>
        <time>2019-02-03T23:14:40.022Z</time>
      </trkpt>
      <trkpt lat="46.72886" lon="-0.16518">
        <ele>123.3</ele>
        <time>2019-02-03T23:14:40.808Z</time>
      </trkpt>
      <trkpt lat="46.729" lon="-0.1652">
        <ele>123.2</ele>
        <time>2019-02-03T23:14:41.090Z</time>
      </trkpt>
      <trkpt lat="46.72928" lon="-0.16533">
        <ele>123.4</ele>
        <time>2019-02-03T23:14:41.679Z</time>
      </trkpt>
      <trkpt lat="46.7297" lon="-0.16556">
        <ele>123.2</ele>
        <time>2019-02-03T23:14:42.578Z</time>
      </trkpt>
      <trkpt lat="46.72993" lon="-0.16574">
        <ele>122.9</ele>
        <time>2019-02-03T23:14:43.101Z</time>
      </trkpt>
      <trkpt lat="46.72996" lon="-0.16577">
        <ele>122.9</ele>
        <time>2019-02-03T23:14:43.174Z</time>
      </trkpt>
      <trkpt lat="46.72997" lon="-0.16568">
        <ele>122.6</ele>
        <time>2019-02-03T23:14:43.299Z</time>
      </trkpt>
      <trkpt lat="46.72995" lon="-0.16545">
        <ele>121.8</ele>
        <time>2019-02-03T23:14:43.617Z</time>
      </trkpt>
      <trkpt lat="46.7299" lon="-0.16509">
        <ele>120.7</ele>
        <time>2019-02-03T23:14:44.122Z</time>
      </trkpt>
      <trkpt lat="46.72989" lon="-0.16491">
        <ele>120.1</ele>
        <time>2019-02-03T23:14:44.370Z</time>
      </trkpt>
      <trkpt lat="46.72991" lon="-0.16458">
        <ele>118.6</ele>
        <time>2019-02-03T23:14:44.825Z</time>
      </trkpt>
      <trkpt lat="46.72988" lon="-0.16424">
        <ele>116.8</ele>
        <time>2019-02-03T23:14:45.296Z</time>
      </trkpt>
      <trkpt lat="46.72984" lon="-0.164">
        <ele>116</ele>
        <time>2019-02-03T23:14:45.635Z</time>
      </trkpt>
      <trkpt lat="46.72968" lon="-0.1634">
        <ele>113.4</ele>
        <time>2019-02-03T23:14:46.519Z</time>
      </trkpt>
      <trkpt lat="46.72963" lon="-0.16303">
        <ele>112.3</ele>
        <time>2019-02-03T23:14:47.037Z</time>
      </trkpt>
      <trkpt lat="46.72955" lon="-0.1626">
        <ele>111.1</ele>
        <time>2019-02-03T23:14:47.649Z</time>
      </trkpt>
      <trkpt lat="46.72939" lon="-0.16189">
        <ele>110</ele>
        <time>2019-02-03T23:14:48.676Z</time>
      </trkpt>
      <trkpt lat="46.7293" lon="-0.16131">
        <ele>109.5</ele>
        <time>2019-02-03T23:14:49.493Z</time>
      </trkpt>
      <trkpt lat="46.72922" lon="-0.16036">
        <ele>108.1</ele>
        <time>2019-02-03T23:14:50.808Z</time>
      </trkpt>
      <trkpt lat="46.72922" lon="-0.15942">
        <ele>106.5</ele>
        <time>2019-02-03T23:14:52.099Z</time>
      </trkpt>
      <trkpt lat="46.72921" lon="-0.15904">
        <ele>105.8</ele>
        <time>2019-02-03T23:14:52.621Z</time>
      </trkpt>
      <trkpt lat="46.72912" lon="-0.15854">
        <ele>105.2</ele>
        <time>2019-02-03T23:14:53.331Z</time>
      </trkpt>
      <trkpt lat="46.72908" lon="-0.15843">
        <ele>105.3</ele>
        <time>2019-02-03T23:14:53.502Z</time>
      </trkpt>
      <trkpt lat="46.72903" lon="-0.15838">
        <ele>105.5</ele>
        <time>2019-02-03T23:14:53.623Z</time>
      </trkpt>
      <trkpt lat="46.72894" lon="-0.15833">
        <ele>105.8</ele>
        <time>2019-02-03T23:14:53.816Z</time>
      </trkpt>
      <trkpt lat="46.72894" lon="-0.15834">
        <ele>105.8</ele>
        <time>2019-02-03T23:14:53.830Z</time>
      </trkpt>
      <trkpt lat="46.72893" lon="-0.15835">
        <ele>105.9</ele>
        <time>2019-02-03T23:14:53.854Z</time>
      </trkpt>
      <trkpt lat="46.72892" lon="-0.15837">
        <ele>105.9</ele>
        <time>2019-02-03T23:14:53.888Z</time>
      </trkpt>
      <trkpt lat="46.7289" lon="-0.15838">
        <ele>106</ele>
        <time>2019-02-03T23:14:53.930Z</time>
      </trkpt>
      <trkpt lat="46.72888" lon="-0.15839">
        <ele>106</ele>
        <time>2019-02-03T23:14:53.972Z</time>
      </trkpt>
      <trkpt lat="46.72884" lon="-0.15835">
        <ele>106.2</ele>
        <time>2019-02-03T23:14:54.069Z</time>
      </trkpt>
      <trkpt lat="46.72883" lon="-0.15829">
        <ele>106.1</ele>
        <time>2019-02-03T23:14:54.154Z</time>
      </trkpt>
      <trkpt lat="46.72886" lon="-0.15823">
        <ele>105.8</ele>
        <time>2019-02-03T23:14:54.256Z</time>
      </trkpt>
      <trkpt lat="46.72888" lon="-0.15822">
        <ele>105.6</ele>
        <time>2019-02-03T23:14:54.298Z</time>
      </trkpt>
      <trkpt lat="46.72889" lon="-0.15822">
        <ele>105.6</ele>
        <time>2019-02-03T23:14:54.318Z</time>
      </trkpt>
      <trkpt lat="46.72895" lon="-0.15788">
        <ele>103.4</ele>
        <time>2019-02-03T23:14:54.800Z</time>
      </trkpt>
      <trkpt lat="46.72908" lon="-0.15729">
        <ele>100.5</ele>
        <time>2019-02-03T23:14:55.651Z</time>
      </trkpt>
      <trkpt lat="46.72922" lon="-0.15684">
        <ele>98</ele>
        <time>2019-02-03T23:14:56.330Z</time>
      </trkpt>
      <trkpt lat="46.72924" lon="-0.15678">
        <ele>97.6</ele>
        <time>2019-02-03T23:14:56.422Z</time>
      </trkpt>
      <trkpt lat="46.72929" lon="-0.15682">
        <ele>97.6</ele>
        <time>2019-02-03T23:14:56.536Z</time>
      </trkpt>
      <trkpt lat="46.72938" lon="-0.15687">
        <ele>97.3</ele>
        <time>2019-02-03T23:14:56.729Z</time>
      </trkpt>
      <trkpt lat="46.72943" lon="-0.15689">
        <ele>97.1</ele>
        <time>2019-02-03T23:14:56.833Z</time>
      </trkpt>
      <trkpt lat="46.72947" lon="-0.15688">
        <ele>96.9</ele>
        <time>2019-02-03T23:14:56.914Z</time>
      </trkpt>
      <trkpt lat="46.72964" lon="-0.1565">
        <ele>94.8</ele>
        <time>2019-02-03T23:14:57.538Z</time>
      </trkpt>
      <trkpt lat="46.72964" lon="-0.15649">
        <ele>94.7</ele>
        <time>2019-02-03T23:14:57.549Z</time>
      </trkpt>
      <trkpt lat="46.73014" lon="-0.15586">
        <ele>94.5</ele>
        <time>2019-02-03T23:14:58.873Z</time>
      </trkpt>
      <trkpt lat="46.73028" lon="-0.15557">
        <ele>95</ele>
        <time>2019-02-03T23:14:59.360Z</time>
      </trkpt>
      <trkpt lat="46.73046" lon="-0.15513">
        <ele>95.8</ele>
        <time>2019-02-03T23:15:00.064Z</time>
      </trkpt>
      <trkpt lat="46.73054" lon="-0.1549">
        <ele>96.4</ele>
        <time>2019-02-03T23:15:00.418Z</time>
      </trkpt>
      <trkpt lat="46.73074" lon="-0.15448">
        <ele>97.5</ele>
        <time>2019-02-03T23:15:01.120Z</time>
      </trkpt>
      <trkpt lat="46.73101" lon="-0.15395">
        <ele>102.1</ele>
        <time>2019-02-03T23:15:02.027Z</time>
      </trkpt>
      <trkpt lat="46.73117" lon="-0.15356">
        <ele>104.9</ele>
        <time>2019-02-03T23:15:02.647Z</time>
      </trkpt>
      <trkpt lat="46.73117" lon="-0.15356">
        <ele>104.9</ele>
        <time>2019-02-03T23:15:02.655Z</time>
      </trkpt>
      <trkpt lat="46.73112" lon="-0.15371">
        <ele>103.3</ele>
        <time>2019-02-03T23:15:02.884Z</time>
      </trkpt>
      <trkpt lat="46.73117" lon="-0.15373">
        <ele>103.3</ele>
        <time>2019-02-03T23:15:02.988Z</time>
      </trkpt>
      <trkpt lat="46.7313" lon="-0.15369">
        <ele>103.9</ele>
        <time>2019-02-03T23:15:03.254Z</time>
      </trkpt>
      <trkpt lat="46.73137" lon="-0.15366">
        <ele>104.4</ele>
        <time>2019-02-03T23:15:03.400Z</time>
      </trkpt>
      <trkpt lat="46.7314" lon="-0.15355">
        <ele>105.4</ele>
        <time>2019-02-03T23:15:03.563Z</time>
      </trkpt>
      <trkpt lat="46.7317" lon="-0.15272">
        <ele>111.3</ele>
        <time>2019-02-03T23:15:04.852Z</time>
      </trkpt>
      <trkpt lat="46.73201" lon="-0.15181">
        <ele>114.7</ele>
        <time>2019-02-03T23:15:06.248Z</time>
      </trkpt>
      <trkpt lat="46.73243" lon="-0.15081">
        <ele>118.3</ele>
        <time>2019-02-03T23:15:07.859Z</time>
      </trkpt>
      <trkpt lat="46.73282" lon="-0.1499">
        <ele>123.1</ele>
        <time>2019-02-03T23:15:09.333Z</time>
      </trkpt>
      <trkpt lat="46.73302" lon="-0.1495">
        <ele>125.6</ele>
        <time>2019-02-03T23:15:10.013Z</time>
      </trkpt>
      <trkpt lat="46.73312" lon="-0.14936">
        <ele>126.8</ele>
        <time>2019-02-03T23:15:10.291Z</time>
      </trkpt>
      <trkpt lat="46.73326" lon="-0.14926">
        <ele>128.1</ele>
        <time>2019-02-03T23:15:10.603Z</time>
      </trkpt>
      <trkpt lat="46.7334" lon="-0.14918">
        <ele>128.9</ele>
        <time>2019-02-03T23:15:10.904Z</time>
      </trkpt>
      <trkpt lat="46.73351" lon="-0.14913">
        <ele>129.3</ele>
        <time>2019-02-03T23:15:11.135Z</time>
      </trkpt>
      <trkpt lat="46.73375" lon="-0.14891">
        <ele>130.4</ele>
        <time>2019-02-03T23:15:11.703Z</time>
      </trkpt>
      <trkpt lat="46.7342" lon="-0.14832">
        <ele>132.2</ele>
        <time>2019-02-03T23:15:12.915Z</time>
      </trkpt>
      <trkpt lat="46.73463" lon="-0.14761">
        <ele>137.4</ele>
        <time>2019-02-03T23:15:14.216Z</time>
      </trkpt>
      <trkpt lat="46.7351" lon="-0.14701">
        <ele>140.7</ele>
        <time>2019-02-03T23:15:15.467Z</time>
      </trkpt>
      <trkpt lat="46.73538" lon="-0.14656">
        <ele>143.7</ele>
        <time>2019-02-03T23:15:16.302Z</time>
      </trkpt>
      <trkpt lat="46.73558" lon="-0.1462">
        <ele>145.4</ele>
        <time>2019-02-03T23:15:16.938Z</time>
      </trkpt>
      <trkpt lat="46.7359" lon="-0.14558">
        <ele>148.6</ele>
        <time>2019-02-03T23:15:18.004Z</time>
      </trkpt>
      <trkpt lat="46.73592" lon="-0.14558">
        <ele>148.5</ele>
        <time>2019-02-03T23:15:18.047Z</time>
      </trkpt>
      <trkpt lat="46.73593" lon="-0.14558">
        <ele>148.5</ele>
        <time>2019-02-03T23:15:18.064Z</time>
      </trkpt>
      <trkpt lat="46.73619" lon="-0.14555">
        <ele>147.7</ele>
        <time>2019-02-03T23:15:18.587Z</time>
      </trkpt>
      <trkpt lat="46.73645" lon="-0.14558">
        <ele>146.2</ele>
        <time>2019-02-03T23:15:19.110Z</time>
      </trkpt>
      <trkpt lat="46.73655" lon="-0.14563">
        <ele>144.8</ele>
        <time>2019-02-03T23:15:19.322Z</time>
      </trkpt>
      <trkpt lat="46.7369" lon="-0.14597">
        <ele>138.5</ele>
        <time>2019-02-03T23:15:20.165Z</time>
      </trkpt>
      <trkpt lat="46.73725" lon="-0.14629">
        <ele>133.8</ele>
        <time>2019-02-03T23:15:20.993Z</time>
      </trkpt>
      <trkpt lat="46.7374" lon="-0.1465">
        <ele>134.5</ele>
        <time>2019-02-03T23:15:21.410Z</time>
      </trkpt>
      <trkpt lat="46.73755" lon="-0.14685">
        <ele>138.4</ele>
        <time>2019-02-03T23:15:21.977Z</time>
      </trkpt>
      <trkpt lat="46.7379" lon="-0.1478">
        <ele>146.2</ele>
        <time>2019-02-03T23:15:23.458Z</time>
      </trkpt>
      <trkpt lat="46.73808" lon="-0.14821">
        <ele>148.2</ele>
        <time>2019-02-03T23:15:24.127Z</time>
      </trkpt>
      <trkpt lat="46.73815" lon="-0.14832">
        <ele>148.4</ele>
        <time>2019-02-03T23:15:24.333Z</time>
      </trkpt>
      <trkpt lat="46.73815" lon="-0.14828">
        <ele>148.6</ele>
        <time>2019-02-03T23:15:24.388Z</time>
      </trkpt>
      <trkpt lat="46.73816" lon="-0.14826">
        <ele>148.8</ele>
        <time>2019-02-03T23:15:24.422Z</time>
      </trkpt>
      <trkpt lat="46.73826" lon="-0.14815">
        <ele>150.3</ele>
        <time>2019-02-03T23:15:24.673Z</time>
      </trkpt>
      <trkpt lat="46.73827" lon="-0.14814">
        <ele>150.4</ele>
        <time>2019-02-03T23:15:24.697Z</time>
      </trkpt>
      <trkpt lat="46.73827" lon="-0.14814">
        <ele>150.4</ele>
        <time>2019-02-03T23:15:24.700Z</time>
      </trkpt>
      <trkpt lat="46.73828" lon="-0.14813">
        <ele>150.5</ele>
        <time>2019-02-03T23:15:24.727Z</time>
      </trkpt>
      <trkpt lat="46.73828" lon="-0.14812">
        <ele>150.5</ele>
        <time>2019-02-03T23:15:24.741Z</time>
      </trkpt>
      <trkpt lat="46.73852" lon="-0.14781">
        <ele>153.7</ele>
        <time>2019-02-03T23:15:25.383Z</time>
      </trkpt>
      <trkpt lat="46.73874" lon="-0.14744">
        <ele>155.7</ele>
        <time>2019-02-03T23:15:26.056Z</time>
      </trkpt>
      <trkpt lat="46.73908" lon="-0.14682">
        <ele>156.5</ele>
        <time>2019-02-03T23:15:27.147Z</time>
      </trkpt>
      <trkpt lat="46.73982" lon="-0.14555">
        <ele>157.3</ele>
        <time>2019-02-03T23:15:29.436Z</time>
      </trkpt>
      <trkpt lat="46.74021" lon="-0.1449">
        <ele>157.1</ele>
        <time>2019-02-03T23:15:30.622Z</time>
      </trkpt>
      <trkpt lat="46.74027" lon="-0.14486">
        <ele>157</ele>
        <time>2019-02-03T23:15:30.754Z</time>
      </trkpt>
      <trkpt lat="46.74029" lon="-0.1442">
        <ele>154.2</ele>
        <time>2019-02-03T23:15:31.661Z</time>
      </trkpt>
      <trkpt lat="46.74028" lon="-0.14384">
        <ele>151.8</ele>
        <time>2019-02-03T23:15:32.156Z</time>
      </trkpt>
      <trkpt lat="46.74025" lon="-0.1436">
        <ele>150.8</ele>
        <time>2019-02-03T23:15:32.491Z</time>
      </trkpt>
      <trkpt lat="46.74018" lon="-0.14331">
        <ele>150.8</ele>
        <time>2019-02-03T23:15:32.912Z</time>
      </trkpt>
      <trkpt lat="46.74018" lon="-0.14331">
        <ele>150.8</ele>
        <time>2019-02-03T23:15:32.921Z</time>
      </trkpt>
      <trkpt lat="46.74013" lon="-0.14311">
        <ele>152.1</ele>
        <time>2019-02-03T23:15:33.213Z</time>
      </trkpt>
      <trkpt lat="46.7402" lon="-0.14302">
        <ele>153</ele>
        <time>2019-02-03T23:15:33.400Z</time>
      </trkpt>
      <trkpt lat="46.74027" lon="-0.14291">
        <ele>154</ele>
        <time>2019-02-03T23:15:33.606Z</time>
      </trkpt>
      <trkpt lat="46.74035" lon="-0.14266">
        <ele>155.8</ele>
        <time>2019-02-03T23:15:33.985Z</time>
      </trkpt>
      <trkpt lat="46.74051" lon="-0.14186">
        <ele>159.3</ele>
        <time>2019-02-03T23:15:35.129Z</time>
      </trkpt>
      <trkpt lat="46.74054" lon="-0.14057">
        <ele>160</ele>
        <time>2019-02-03T23:15:36.902Z</time>
      </trkpt>
      <trkpt lat="46.74052" lon="-0.14027">
        <ele>160.9</ele>
        <time>2019-02-03T23:15:37.316Z</time>
      </trkpt>
      <trkpt lat="46.74031" lon="-0.13929">
        <ele>161</ele>
        <time>2019-02-03T23:15:38.726Z</time>
      </trkpt>
      <trkpt lat="46.74017" lon="-0.13867">
        <ele>161</ele>
        <time>2019-02-03T23:15:39.622Z</time>
      </trkpt>
      <trkpt lat="46.74042" lon="-0.13839">
        <ele>160.6</ele>
        <time>2019-02-03T23:15:40.254Z</time>
      </trkpt>
      <trkpt lat="46.74046" lon="-0.13835">
        <ele>160.4</ele>
        <time>2019-02-03T23:15:40.351Z</time>
      </trkpt>
      <trkpt lat="46.74095" lon="-0.13784">
        <ele>160.2</ele>
        <time>2019-02-03T23:15:41.557Z</time>
      </trkpt>
      <trkpt lat="46.74116" lon="-0.13757">
        <ele>160.2</ele>
        <time>2019-02-03T23:15:42.118Z</time>
      </trkpt>
      <trkpt lat="46.74131" lon="-0.13742">
        <ele>160.5</ele>
        <time>2019-02-03T23:15:42.482Z</time>
      </trkpt>
      <trkpt lat="46.74168" lon="-0.13709">
        <ele>161</ele>
        <time>2019-02-03T23:15:43.351Z</time>
      </trkpt>
      <trkpt lat="46.74173" lon="-0.13712">
        <ele>161</ele>
        <time>2019-02-03T23:15:43.459Z</time>
      </trkpt>
      <trkpt lat="46.74183" lon="-0.13689">
        <ele>160.9</ele>
        <time>2019-02-03T23:15:43.833Z</time>
      </trkpt>
      <trkpt lat="46.74234" lon="-0.13618">
        <ele>160.1</ele>
        <time>2019-02-03T23:15:45.245Z</time>
      </trkpt>
      <trkpt lat="46.74283" lon="-0.1355">
        <ele>160</ele>
        <time>2019-02-03T23:15:46.600Z</time>
      </trkpt>
      <trkpt lat="46.74358" lon="-0.13449">
        <ele>159</ele>
        <time>2019-02-03T23:15:48.645Z</time>
      </trkpt>
      <trkpt lat="46.74388" lon="-0.13416">
        <ele>158.9</ele>
        <time>2019-02-03T23:15:49.398Z</time>
      </trkpt>
      <trkpt lat="46.74426" lon="-0.13355">
        <ele>157.8</ele>
        <time>2019-02-03T23:15:50.530Z</time>
      </trkpt>
      <trkpt lat="46.74452" lon="-0.13319">
        <ele>157</ele>
        <time>2019-02-03T23:15:51.248Z</time>
      </trkpt>
      <trkpt lat="46.74445" lon="-0.13308">
        <ele>157</ele>
        <time>2019-02-03T23:15:51.456Z</time>
      </trkpt>
      <trkpt lat="46.74452" lon="-0.13319">
        <ele>157</ele>
        <time>2019-02-03T23:15:51.664Z</time>
      </trkpt>
      <trkpt lat="46.74468" lon="-0.13294">
        <ele>156.6</ele>
        <time>2019-02-03T23:15:52.134Z</time>
      </trkpt>
      <trkpt lat="46.74472" lon="-0.13282">
        <ele>156.2</ele>
        <time>2019-02-03T23:15:52.317Z</time>
      </trkpt>
      <trkpt lat="46.74473" lon="-0.13272">
        <ele>155.8</ele>
        <time>2019-02-03T23:15:52.456Z</time>
      </trkpt>
      <trkpt lat="46.74455" lon="-0.13138">
        <ele>152.3</ele>
        <time>2019-02-03T23:15:54.331Z</time>
      </trkpt>
      <trkpt lat="46.74459" lon="-0.13088">
        <ele>149.8</ele>
        <time>2019-02-03T23:15:55.022Z</time>
      </trkpt>
      <trkpt lat="46.74468" lon="-0.13031">
        <ele>146.1</ele>
        <time>2019-02-03T23:15:55.825Z</time>
      </trkpt>
      <trkpt lat="46.74473" lon="-0.12997">
        <ele>143.8</ele>
        <time>2019-02-03T23:15:56.303Z</time>
      </trkpt>
      <trkpt lat="46.74484" lon="-0.12932">
        <ele>139.7</ele>
        <time>2019-02-03T23:15:57.222Z</time>
      </trkpt>
      <trkpt lat="46.7449" lon="-0.12919">
        <ele>138.5</ele>
        <time>2019-02-03T23:15:57.437Z</time>
      </trkpt>
      <trkpt lat="46.74503" lon="-0.12897">
        <ele>137.1</ele>
        <time>2019-02-03T23:15:57.836Z</time>
      </trkpt>
      <trkpt lat="46.74529" lon="-0.1285">
        <ele>132.2</ele>
        <time>2019-02-03T23:15:58.665Z</time>
      </trkpt>
      <trkpt lat="46.74547" lon="-0.128">
        <ele>126.9</ele>
        <time>2019-02-03T23:15:59.441Z</time>
      </trkpt>
      <trkpt lat="46.74568" lon="-0.12747">
        <ele>124</ele>
        <time>2019-02-03T23:16:00.282Z</time>
      </trkpt>
      <trkpt lat="46.74569" lon="-0.12745">
        <ele>124</ele>
        <time>2019-02-03T23:16:00.316Z</time>
      </trkpt>
      <trkpt lat="46.74569" lon="-0.1275">
        <ele>124</ele>
        <time>2019-02-03T23:16:00.385Z</time>
      </trkpt>
      <trkpt lat="46.74571" lon="-0.12761">
        <ele>124.4</ele>
        <time>2019-02-03T23:16:00.541Z</time>
      </trkpt>
      <trkpt lat="46.74576" lon="-0.12769">
        <ele>124.7</ele>
        <time>2019-02-03T23:16:00.690Z</time>
      </trkpt>
      <trkpt lat="46.74588" lon="-0.12778">
        <ele>125</ele>
        <time>2019-02-03T23:16:00.960Z</time>
      </trkpt>
      <trkpt lat="46.74597" lon="-0.12782">
        <ele>125.5</ele>
        <time>2019-02-03T23:16:01.149Z</time>
      </trkpt>
      <trkpt lat="46.74627" lon="-0.1279">
        <ele>126.8</ele>
        <time>2019-02-03T23:16:01.760Z</time>
      </trkpt>
      <trkpt lat="46.74639" lon="-0.1279">
        <ele>126.8</ele>
        <time>2019-02-03T23:16:02.000Z</time>
      </trkpt>
      <trkpt lat="46.7465" lon="-0.12786">
        <ele>125.7</ele>
        <time>2019-02-03T23:16:02.227Z</time>
      </trkpt>
      <trkpt lat="46.74704" lon="-0.12751">
        <ele>122.1</ele>
        <time>2019-02-03T23:16:03.411Z</time>
      </trkpt>
      <trkpt lat="46.74774" lon="-0.12695">
        <ele>121.9</ele>
        <time>2019-02-03T23:16:05.011Z</time>
      </trkpt>
      <trkpt lat="46.74788" lon="-0.12687">
        <ele>121.9</ele>
        <time>2019-02-03T23:16:05.312Z</time>
      </trkpt>
      <trkpt lat="46.74817" lon="-0.1268">
        <ele>121.3</ele>
        <time>2019-02-03T23:16:05.901Z</time>
      </trkpt>
      <trkpt lat="46.74872" lon="-0.12678">
        <ele>121</ele>
        <time>2019-02-03T23:16:07.004Z</time>
      </trkpt>
      <trkpt lat="46.74901" lon="-0.12673">
        <ele>120.7</ele>
        <time>2019-02-03T23:16:07.589Z</time>
      </trkpt>
      <trkpt lat="46.74922" lon="-0.12667">
        <ele>120.2</ele>
        <time>2019-02-03T23:16:08.018Z</time>
      </trkpt>
      <trkpt lat="46.75022" lon="-0.12631">
        <ele>119</ele>
        <time>2019-02-03T23:16:10.082Z</time>
      </trkpt>
      <trkpt lat="46.75043" lon="-0.12625">
        <ele>118.7</ele>
        <time>2019-02-03T23:16:10.511Z</time>
      </trkpt>
      <trkpt lat="46.75066" lon="-0.12621">
        <ele>118.4</ele>
        <time>2019-02-03T23:16:10.975Z</time>
      </trkpt>
      <trkpt lat="46.75086" lon="-0.12622">
        <ele>118.4</ele>
        <time>2019-02-03T23:16:11.376Z</time>
      </trkpt>
      <trkpt lat="46.75138" lon="-0.12628">
        <ele>117.6</ele>
        <time>2019-02-03T23:16:12.421Z</time>
      </trkpt>
      <trkpt lat="46.75154" lon="-0.12635">
        <ele>117.4</ele>
        <time>2019-02-03T23:16:12.756Z</time>
      </trkpt>
      <trkpt lat="46.75162" lon="-0.12644">
        <ele>117.7</ele>
        <time>2019-02-03T23:16:12.958Z</time>
      </trkpt>
      <trkpt lat="46.75173" lon="-0.12658">
        <ele>118.9</ele>
        <time>2019-02-03T23:16:13.250Z</time>
      </trkpt>
      <trkpt lat="46.75186" lon="-0.12668">
        <ele>119.4</ele>
        <time>2019-02-03T23:16:13.544Z</time>
      </trkpt>
      <trkpt lat="46.7521" lon="-0.12683">
        <ele>119.9</ele>
        <time>2019-02-03T23:16:14.067Z</time>
      </trkpt>
      <trkpt lat="46.75217" lon="-0.12688">
        <ele>119.9</ele>
        <time>2019-02-03T23:16:14.223Z</time>
      </trkpt>
      <trkpt lat="46.7525" lon="-0.12703">
        <ele>119.3</ele>
        <time>2019-02-03T23:16:14.912Z</time>
      </trkpt>
      <trkpt lat="46.75216" lon="-0.12818">
        <ele>123</ele>
        <time>2019-02-03T23:16:16.631Z</time>
      </trkpt>
      <trkpt lat="46.75211" lon="-0.12845">
        <ele>124.6</ele>
        <time>2019-02-03T23:16:17.015Z</time>
      </trkpt>
      <trkpt lat="46.75184" lon="-0.12921">
        <ele>127.6</ele>
        <time>2019-02-03T23:16:18.190Z</time>
      </trkpt>
      <trkpt lat="46.75177" lon="-0.1294">
        <ele>128.3</ele>
        <time>2019-02-03T23:16:18.486Z</time>
      </trkpt>
      <trkpt lat="46.75177" lon="-0.12954">
        <ele>128.8</ele>
        <time>2019-02-03T23:16:18.678Z</time>
      </trkpt>
      <trkpt lat="46.75178" lon="-0.12976">
        <ele>129.8</ele>
        <time>2019-02-03T23:16:18.981Z</time>
      </trkpt>
      <trkpt lat="46.75152" lon="-0.13049">
        <ele>131.9</ele>
        <time>2019-02-03T23:16:20.111Z</time>
      </trkpt>
      <trkpt lat="46.7513" lon="-0.13125">
        <ele>134.2</ele>
        <time>2019-02-03T23:16:21.244Z</time>
      </trkpt>
      <trkpt lat="46.7511" lon="-0.13175">
        <ele>135.5</ele>
        <time>2019-02-03T23:16:22.039Z</time>
      </trkpt>
      <trkpt lat="46.75058" lon="-0.13268">
        <ele>137.7</ele>
        <time>2019-02-03T23:16:23.687Z</time>
      </trkpt>
      <trkpt lat="46.75016" lon="-0.1335">
        <ele>140.4</ele>
        <time>2019-02-03T23:16:25.093Z</time>
      </trkpt>
      <trkpt lat="46.75" lon="-0.13397">
        <ele>140.6</ele>
        <time>2019-02-03T23:16:25.814Z</time>
      </trkpt>
      <trkpt lat="46.74996" lon="-0.13427">
        <ele>141.7</ele>
        <time>2019-02-03T23:16:26.234Z</time>
      </trkpt>
      <trkpt lat="46.74997" lon="-0.1344">
        <ele>141.8</ele>
        <time>2019-02-03T23:16:26.414Z</time>
      </trkpt>
      <trkpt lat="46.75018" lon="-0.13525">
        <ele>144.6</ele>
        <time>2019-02-03T23:16:27.655Z</time>
      </trkpt>
      <trkpt lat="46.75036" lon="-0.13568">
        <ele>146.1</ele>
        <time>2019-02-03T23:16:28.347Z</time>
      </trkpt>
      <trkpt lat="46.75045" lon="-0.13593">
        <ele>146.8</ele>
        <time>2019-02-03T23:16:28.735Z</time>
      </trkpt>
      <trkpt lat="46.75049" lon="-0.13623">
        <ele>147.4</ele>
        <time>2019-02-03T23:16:29.155Z</time>
      </trkpt>
      <trkpt lat="46.75045" lon="-0.13653">
        <ele>148.5</ele>
        <time>2019-02-03T23:16:29.575Z</time>
      </trkpt>
      <trkpt lat="46.75041" lon="-0.13671">
        <ele>149.2</ele>
        <time>2019-02-03T23:16:29.835Z</time>
      </trkpt>
      <trkpt lat="46.7505" lon="-0.13657">
        <ele>148.7</ele>
        <time>2019-02-03T23:16:30.099Z</time>
      </trkpt>
      <trkpt lat="46.75049" lon="-0.13673">
        <ele>149.4</ele>
        <time>2019-02-03T23:16:30.320Z</time>
      </trkpt>
      <trkpt lat="46.75051" lon="-0.13686">
        <ele>150.3</ele>
        <time>2019-02-03T23:16:30.503Z</time>
      </trkpt>
      <trkpt lat="46.75056" lon="-0.13689">
        <ele>150.6</ele>
        <time>2019-02-03T23:16:30.611Z</time>
      </trkpt>
      <trkpt lat="46.75065" lon="-0.13697">
        <ele>151.4</ele>
        <time>2019-02-03T23:16:30.822Z</time>
      </trkpt>
      <trkpt lat="46.75097" lon="-0.13743">
        <ele>153.7</ele>
        <time>2019-02-03T23:16:31.722Z</time>
      </trkpt>
      <trkpt lat="46.75133" lon="-0.1381">
        <ele>155.2</ele>
        <time>2019-02-03T23:16:32.891Z</time>
      </trkpt>
      <trkpt lat="46.75145" lon="-0.13823">
        <ele>155.7</ele>
        <time>2019-02-03T23:16:33.190Z</time>
      </trkpt>
      <trkpt lat="46.75155" lon="-0.13828">
        <ele>155.9</ele>
        <time>2019-02-03T23:16:33.402Z</time>
      </trkpt>
      <trkpt lat="46.75165" lon="-0.13827">
        <ele>156</ele>
        <time>2019-02-03T23:16:33.603Z</time>
      </trkpt>
      <trkpt lat="46.75177" lon="-0.13826">
        <ele>156</ele>
        <time>2019-02-03T23:16:33.844Z</time>
      </trkpt>
      <trkpt lat="46.75248" lon="-0.13758">
        <ele>155.9</ele>
        <time>2019-02-03T23:16:35.546Z</time>
      </trkpt>
      <trkpt lat="46.75293" lon="-0.13729">
        <ele>155</ele>
        <time>2019-02-03T23:16:36.532Z</time>
      </trkpt>
      <trkpt lat="46.75386" lon="-0.13647">
        <ele>154.4</ele>
        <time>2019-02-03T23:16:38.709Z</time>
      </trkpt>
      <trkpt lat="46.75398" lon="-0.13655">
        <ele>154.4</ele>
        <time>2019-02-03T23:16:38.973Z</time>
      </trkpt>
      <trkpt lat="46.75386" lon="-0.13647">
        <ele>154.4</ele>
        <time>2019-02-03T23:16:39.237Z</time>
      </trkpt>
      <trkpt lat="46.75417" lon="-0.13668">
        <ele>154</ele>
        <time>2019-02-03T23:16:39.922Z</time>
      </trkpt>
      <trkpt lat="46.75426" lon="-0.1367">
        <ele>154.1</ele>
        <time>2019-02-03T23:16:40.104Z</time>
      </trkpt>
      <trkpt lat="46.75438" lon="-0.13669">
        <ele>154.1</ele>
        <time>2019-02-03T23:16:40.345Z</time>
      </trkpt>
      <trkpt lat="46.75475" lon="-0.13662">
        <ele>154</ele>
        <time>2019-02-03T23:16:41.093Z</time>
      </trkpt>
      <trkpt lat="46.75536" lon="-0.1364">
        <ele>154</ele>
        <time>2019-02-03T23:16:42.352Z</time>
      </trkpt>
      <trkpt lat="46.75593" lon="-0.13609">
        <ele>154</ele>
        <time>2019-02-03T23:16:43.571Z</time>
      </trkpt>
      <trkpt lat="46.75614" lon="-0.13598">
        <ele>154</ele>
        <time>2019-02-03T23:16:44.018Z</time>
      </trkpt>
      <trkpt lat="46.75633" lon="-0.13593">
        <ele>154</ele>
        <time>2019-02-03T23:16:44.405Z</time>
      </trkpt>
      <trkpt lat="46.7568" lon="-0.13587">
        <ele>154</ele>
        <time>2019-02-03T23:16:45.350Z</time>
      </trkpt>
      <trkpt lat="46.75703" lon="-0.13573">
        <ele>154</ele>
        <time>2019-02-03T23:16:45.849Z</time>
      </trkpt>
      <trkpt lat="46.75746" lon="-0.13534">
        <ele>154</ele>
        <time>2019-02-03T23:16:46.863Z</time>
      </trkpt>
      <trkpt lat="46.75797" lon="-0.13496">
        <ele>153</ele>
        <time>2019-02-03T23:16:48.010Z</time>
      </trkpt>
      <trkpt lat="46.75891" lon="-0.13422">
        <ele>153</ele>
        <time>2019-02-03T23:16:50.150Z</time>
      </trkpt>
      <trkpt lat="46.75895" lon="-0.13421">
        <ele>153</ele>
        <time>2019-02-03T23:16:50.231Z</time>
      </trkpt>
      <trkpt lat="46.759" lon="-0.13425">
        <ele>152.9</ele>
        <time>2019-02-03T23:16:50.345Z</time>
      </trkpt>
      <trkpt lat="46.75948" lon="-0.13502">
        <ele>152</ele>
        <time>2019-02-03T23:16:51.774Z</time>
      </trkpt>
      <trkpt lat="46.7595" lon="-0.13505">
        <ele>152</ele>
        <time>2019-02-03T23:16:51.831Z</time>
      </trkpt>
      <trkpt lat="46.75937" lon="-0.13533">
        <ele>152</ele>
        <time>2019-02-03T23:16:52.295Z</time>
      </trkpt>
      <trkpt lat="46.75903" lon="-0.1361">
        <ele>152</ele>
        <time>2019-02-03T23:16:53.553Z</time>
      </trkpt>
      <trkpt lat="46.75878" lon="-0.13673">
        <ele>152.4</ele>
        <time>2019-02-03T23:16:54.553Z</time>
      </trkpt>
      <trkpt lat="46.75804" lon="-0.13847">
        <ele>153</ele>
        <time>2019-02-03T23:16:57.365Z</time>
      </trkpt>
      <trkpt lat="46.75758" lon="-0.13944">
        <ele>153.7</ele>
        <time>2019-02-03T23:16:58.985Z</time>
      </trkpt>
      <trkpt lat="46.7567" lon="-0.14122">
        <ele>155</ele>
        <time>2019-02-03T23:17:01.999Z</time>
      </trkpt>
      <trkpt lat="46.75666" lon="-0.14138">
        <ele>155</ele>
        <time>2019-02-03T23:17:02.233Z</time>
      </trkpt>
      <trkpt lat="46.75672" lon="-0.14136">
        <ele>155</ele>
        <time>2019-02-03T23:17:02.356Z</time>
      </trkpt>
      <trkpt lat="46.75666" lon="-0.14138">
        <ele>155</ele>
        <time>2019-02-03T23:17:02.479Z</time>
      </trkpt>
      <trkpt lat="46.75651" lon="-0.14148">
        <ele>155.7</ele>
        <time>2019-02-03T23:17:02.809Z</time>
      </trkpt>
      <trkpt lat="46.75639" lon="-0.14165">
        <ele>156</ele>
        <time>2019-02-03T23:17:03.144Z</time>
      </trkpt>
      <trkpt lat="46.75705" lon="-0.14251">
        <ele>155</ele>
        <time>2019-02-03T23:17:04.917Z</time>
      </trkpt>
      <trkpt lat="46.75815" lon="-0.14401">
        <ele>153</ele>
        <time>2019-02-03T23:17:07.934Z</time>
      </trkpt>
      <trkpt lat="46.75867" lon="-0.14381">
        <ele>152</ele>
        <time>2019-02-03T23:17:09.012Z</time>
      </trkpt>
      <trkpt lat="46.75882" lon="-0.14374">
        <ele>152</ele>
        <time>2019-02-03T23:17:09.328Z</time>
      </trkpt>
      <trkpt lat="46.75891" lon="-0.14367">
        <ele>151.9</ele>
        <time>2019-02-03T23:17:09.532Z</time>
      </trkpt>
      <trkpt lat="46.75907" lon="-0.14347">
        <ele>151.3</ele>
        <time>2019-02-03T23:17:09.954Z</time>
      </trkpt>
      <trkpt lat="46.75929" lon="-0.14315">
        <ele>150.6</ele>
        <time>2019-02-03T23:17:10.576Z</time>
      </trkpt>
      <trkpt lat="46.75947" lon="-0.14294">
        <ele>150</ele>
        <time>2019-02-03T23:17:11.038Z</time>
      </trkpt>
      <trkpt lat="46.75959" lon="-0.14289">
        <ele>150</ele>
        <time>2019-02-03T23:17:11.288Z</time>
      </trkpt>
      <trkpt lat="46.76006" lon="-0.1428">
        <ele>148.8</ele>
        <time>2019-02-03T23:17:12.238Z</time>
      </trkpt>
      <trkpt lat="46.76014" lon="-0.14277">
        <ele>148.5</ele>
        <time>2019-02-03T23:17:12.404Z</time>
      </trkpt>
      <trkpt lat="46.76019" lon="-0.14211">
        <ele>148.3</ele>
        <time>2019-02-03T23:17:13.316Z</time>
      </trkpt>
      <trkpt lat="46.76027" lon="-0.1416">
        <ele>148</ele>
        <time>2019-02-03T23:17:14.034Z</time>
      </trkpt>
      <trkpt lat="46.76062" lon="-0.14109">
        <ele>147.5</ele>
        <time>2019-02-03T23:17:15.025Z</time>
      </trkpt>
      <trkpt lat="46.76115" lon="-0.14032">
        <ele>145</ele>
        <time>2019-02-03T23:17:16.523Z</time>
      </trkpt>
      <trkpt lat="46.76128" lon="-0.14023">
        <ele>144.9</ele>
        <time>2019-02-03T23:17:16.811Z</time>
      </trkpt>
      <trkpt lat="46.76151" lon="-0.14018">
        <ele>145</ele>
        <time>2019-02-03T23:17:17.277Z</time>
      </trkpt>
      <trkpt lat="46.76152" lon="-0.14091">
        <ele>143.5</ele>
        <time>2019-02-03T23:17:18.279Z</time>
      </trkpt>
      <trkpt lat="46.76162" lon="-0.14197">
        <ele>141.9</ele>
        <time>2019-02-03T23:17:19.748Z</time>
      </trkpt>
      <trkpt lat="46.76166" lon="-0.14255">
        <ele>139.8</ele>
        <time>2019-02-03T23:17:20.548Z</time>
      </trkpt>
      <trkpt lat="46.76161" lon="-0.1429">
        <ele>138.8</ele>
        <time>2019-02-03T23:17:21.039Z</time>
      </trkpt>
      <trkpt lat="46.76167" lon="-0.14304">
        <ele>138.1</ele>
        <time>2019-02-03T23:17:21.266Z</time>
      </trkpt>
      <trkpt lat="46.76166" lon="-0.14304">
        <ele>138.1</ele>
        <time>2019-02-03T23:17:21.278Z</time>
      </trkpt>
      <trkpt lat="46.76167" lon="-0.14306">
        <ele>138</ele>
        <time>2019-02-03T23:17:21.303Z</time>
      </trkpt>
      <trkpt lat="46.76167" lon="-0.14305">
        <ele>138</ele>
        <time>2019-02-03T23:17:21.311Z</time>
      </trkpt>
      <trkpt lat="46.76174" lon="-0.14322">
        <ele>137.8</ele>
        <time>2019-02-03T23:17:21.583Z</time>
      </trkpt>
      <trkpt lat="46.76182" lon="-0.14331">
        <ele>137.7</ele>
        <time>2019-02-03T23:17:21.785Z</time>
      </trkpt>
      <trkpt lat="46.76193" lon="-0.14332">
        <ele>138</ele>
        <time>2019-02-03T23:17:22.006Z</time>
      </trkpt>
      <trkpt lat="46.76204" lon="-0.14326">
        <ele>139.3</ele>
        <time>2019-02-03T23:17:22.241Z</time>
      </trkpt>
      <trkpt lat="46.76225" lon="-0.14306">
        <ele>143.1</ele>
        <time>2019-02-03T23:17:22.743Z</time>
      </trkpt>
      <trkpt lat="46.76242" lon="-0.14286">
        <ele>144.4</ele>
        <time>2019-02-03T23:17:23.181Z</time>
      </trkpt>
      <trkpt lat="46.76248" lon="-0.14272">
        <ele>145.1</ele>
        <time>2019-02-03T23:17:23.408Z</time>
      </trkpt>
      <trkpt lat="46.76251" lon="-0.14264">
        <ele>145.5</ele>
        <time>2019-02-03T23:17:23.533Z</time>
      </trkpt>
      <trkpt lat="46.76257" lon="-0.14273">
        <ele>145.4</ele>
        <time>2019-02-03T23:17:23.705Z</time>
      </trkpt>
      <trkpt lat="46.76284" lon="-0.14315">
        <ele>144.5</ele>
        <time>2019-02-03T23:17:24.496Z</time>
      </trkpt>
      <trkpt lat="46.763" lon="-0.14348">
        <ele>142.7</ele>
        <time>2019-02-03T23:17:25.051Z</time>
      </trkpt>
      <trkpt lat="46.76318" lon="-0.14418">
        <ele>136.4</ele>
        <time>2019-02-03T23:17:26.077Z</time>
      </trkpt>
      <trkpt lat="46.76328" lon="-0.1446">
        <ele>131.1</ele>
        <time>2019-02-03T23:17:26.687Z</time>
      </trkpt>
      <trkpt lat="46.76336" lon="-0.14486">
        <ele>127.8</ele>
        <time>2019-02-03T23:17:27.078Z</time>
      </trkpt>
      <trkpt lat="46.76367" lon="-0.14559">
        <ele>128</ele>
        <time>2019-02-03T23:17:28.257Z</time>
      </trkpt>
      <trkpt lat="46.76396" lon="-0.14633">
        <ele>137.4</ele>
        <time>2019-02-03T23:17:29.427Z</time>
      </trkpt>
      <trkpt lat="46.76433" lon="-0.1472">
        <ele>143.3</ele>
        <time>2019-02-03T23:17:30.833Z</time>
      </trkpt>
      <trkpt lat="46.76441" lon="-0.14747">
        <ele>144.9</ele>
        <time>2019-02-03T23:17:31.237Z</time>
      </trkpt>
      <trkpt lat="46.76446" lon="-0.14766">
        <ele>146.2</ele>
        <time>2019-02-03T23:17:31.516Z</time>
      </trkpt>
      <trkpt lat="46.76459" lon="-0.14764">
        <ele>146</ele>
        <time>2019-02-03T23:17:31.778Z</time>
      </trkpt>
      <trkpt lat="46.76487" lon="-0.1476">
        <ele>146.6</ele>
        <time>2019-02-03T23:17:32.342Z</time>
      </trkpt>
      <trkpt lat="46.76498" lon="-0.14756">
        <ele>147.1</ele>
        <time>2019-02-03T23:17:32.569Z</time>
      </trkpt>
      <trkpt lat="46.76524" lon="-0.14744">
        <ele>147.6</ele>
        <time>2019-02-03T23:17:33.115Z</time>
      </trkpt>
      <trkpt lat="46.76558" lon="-0.14731">
        <ele>148</ele>
        <time>2019-02-03T23:17:33.819Z</time>
      </trkpt>
      <trkpt lat="46.76578" lon="-0.14725">
        <ele>148</ele>
        <time>2019-02-03T23:17:34.228Z</time>
      </trkpt>
      <trkpt lat="46.76584" lon="-0.14726">
        <ele>148</ele>
        <time>2019-02-03T23:17:34.349Z</time>
      </trkpt>
      <trkpt lat="46.76605" lon="-0.14747">
        <ele>147.9</ele>
        <time>2019-02-03T23:17:34.859Z</time>
      </trkpt>
      <trkpt lat="46.76611" lon="-0.1475">
        <ele>148</ele>
        <time>2019-02-03T23:17:34.986Z</time>
      </trkpt>
      <trkpt lat="46.76636" lon="-0.14757">
        <ele>148</ele>
        <time>2019-02-03T23:17:35.496Z</time>
      </trkpt>
      <trkpt lat="46.76635" lon="-0.14775">
        <ele>148</ele>
        <time>2019-02-03T23:17:35.744Z</time>
      </trkpt>
      <trkpt lat="46.76635" lon="-0.14779">
        <ele>148</ele>
        <time>2019-02-03T23:17:35.798Z</time>
      </trkpt>
      <trkpt lat="46.76626" lon="-0.149">
        <ele>149.4</ele>
        <time>2019-02-03T23:17:37.469Z</time>
      </trkpt>
      <trkpt lat="46.76618" lon="-0.14956">
        <ele>150</ele>
        <time>2019-02-03T23:17:38.254Z</time>
      </trkpt>
      <trkpt lat="46.76616" lon="-0.14992">
        <ele>150</ele>
        <time>2019-02-03T23:17:38.750Z</time>
      </trkpt>
      <trkpt lat="46.76616" lon="-0.15018">
        <ele>150.5</ele>
        <time>2019-02-03T23:17:39.107Z</time>
      </trkpt>
      <trkpt lat="46.7662" lon="-0.15049">
        <ele>150.7</ele>
        <time>2019-02-03T23:17:39.540Z</time>
      </trkpt>
      <trkpt lat="46.76674" lon="-0.15295">
        <ele>151</ele>
        <time>2019-02-03T23:17:43.085Z</time>
      </trkpt>
      <trkpt lat="46.76675" lon="-0.15299">
        <ele>151</ele>
        <time>2019-02-03T23:17:43.145Z</time>
      </trkpt>
      <trkpt lat="46.76675" lon="-0.15299">
        <ele>151</ele>
        <time>2019-02-03T23:17:43.154Z</time>
      </trkpt>
      <trkpt lat="46.76675" lon="-0.15299">
        <ele>151</ele>
        <time>2019-02-03T23:17:43.163Z</time>
      </trkpt>
      <trkpt lat="46.76689" lon="-0.15366">
        <ele>151.2</ele>
        <time>2019-02-03T23:17:44.125Z</time>
      </trkpt>
      <trkpt lat="46.767" lon="-0.15433">
        <ele>151.8</ele>
        <time>2019-02-03T23:17:45.071Z</time>
      </trkpt>
      <trkpt lat="46.76704" lon="-0.15475">
        <ele>151.7</ele>
        <time>2019-02-03T23:17:45.653Z</time>
      </trkpt>
      <trkpt lat="46.76701" lon="-0.15514">
        <ele>151.8</ele>
        <time>2019-02-03T23:17:46.192Z</time>
      </trkpt>
      <trkpt lat="46.76679" lon="-0.1564">
        <ele>150</ele>
        <time>2019-02-03T23:17:47.977Z</time>
      </trkpt>
      <trkpt lat="46.76617" lon="-0.15605">
        <ele>151</ele>
        <time>2019-02-03T23:17:49.309Z</time>
      </trkpt>
      <trkpt lat="46.76532" lon="-0.15554">
        <ele>151.9</ele>
        <time>2019-02-03T23:17:51.151Z</time>
      </trkpt>
      <trkpt lat="46.76507" lon="-0.1556">
        <ele>152</ele>
        <time>2019-02-03T23:17:51.659Z</time>
      </trkpt>
      <trkpt lat="46.765" lon="-0.15564">
        <ele>152</ele>
        <time>2019-02-03T23:17:51.810Z</time>
      </trkpt>
      <trkpt lat="46.76474" lon="-0.1559">
        <ele>152.7</ele>
        <time>2019-02-03T23:17:52.442Z</time>
      </trkpt>
      <trkpt lat="46.76387" lon="-0.15685">
        <ele>153.4</ele>
        <time>2019-02-03T23:17:54.619Z</time>
      </trkpt>
      <trkpt lat="46.76344" lon="-0.15732">
        <ele>154</ele>
        <time>2019-02-03T23:17:55.695Z</time>
      </trkpt>
      <trkpt lat="46.76386" lon="-0.15838">
        <ele>152.1</ele>
        <time>2019-02-03T23:17:57.376Z</time>
      </trkpt>
      <trkpt lat="46.76412" lon="-0.1592">
        <ele>152</ele>
        <time>2019-02-03T23:17:58.616Z</time>
      </trkpt>
      <trkpt lat="46.76444" lon="-0.16015">
        <ele>151</ele>
        <time>2019-02-03T23:18:00.069Z</time>
      </trkpt>
      <trkpt lat="46.76459" lon="-0.16055">
        <ele>150.5</ele>
        <time>2019-02-03T23:18:00.695Z</time>
      </trkpt>
      <trkpt lat="46.76462" lon="-0.16062">
        <ele>150.4</ele>
        <time>2019-02-03T23:18:00.808Z</time>
      </trkpt>
      <trkpt lat="46.76472" lon="-0.16088">
        <ele>150</ele>
        <time>2019-02-03T23:18:01.217Z</time>
      </trkpt>
      <trkpt lat="46.76462" lon="-0.16098">
        <ele>150.2</ele>
        <time>2019-02-03T23:18:01.460Z</time>
      </trkpt>
      <trkpt lat="46.76434" lon="-0.16131">
        <ele>150</ele>
        <time>2019-02-03T23:18:02.181Z</time>
      </trkpt>
      <trkpt lat="46.76414" lon="-0.16147">
        <ele>149.8</ele>
        <time>2019-02-03T23:18:02.638Z</time>
      </trkpt>
      <trkpt lat="46.76396" lon="-0.16151">
        <ele>150</ele>
        <time>2019-02-03T23:18:03.003Z</time>
      </trkpt>
      <trkpt lat="46.76368" lon="-0.16146">
        <ele>150.5</ele>
        <time>2019-02-03T23:18:03.568Z</time>
      </trkpt>
      <trkpt lat="46.76331" lon="-0.16144">
        <ele>149.5</ele>
        <time>2019-02-03T23:18:04.310Z</time>
      </trkpt>
      <trkpt lat="46.76265" lon="-0.16149">
        <ele>146.4</ele>
        <time>2019-02-03T23:18:05.634Z</time>
      </trkpt>
      <trkpt lat="46.76246" lon="-0.16146">
        <ele>145.1</ele>
        <time>2019-02-03T23:18:06.017Z</time>
      </trkpt>
      <trkpt lat="46.76226" lon="-0.16133">
        <ele>144</ele>
        <time>2019-02-03T23:18:06.456Z</time>
      </trkpt>
      <trkpt lat="46.76196" lon="-0.16102">
        <ele>143.2</ele>
        <time>2019-02-03T23:18:07.193Z</time>
      </trkpt>
      <trkpt lat="46.76186" lon="-0.16093">
        <ele>143.1</ele>
        <time>2019-02-03T23:18:07.428Z</time>
      </trkpt>
      <trkpt lat="46.76174" lon="-0.16087">
        <ele>142.5</ele>
        <time>2019-02-03T23:18:07.682Z</time>
      </trkpt>
      <trkpt lat="46.76168" lon="-0.16086">
        <ele>141.9</ele>
        <time>2019-02-03T23:18:07.803Z</time>
      </trkpt>
      <trkpt lat="46.76167" lon="-0.16103">
        <ele>140.6</ele>
        <time>2019-02-03T23:18:08.037Z</time>
      </trkpt>
      <trkpt lat="46.76171" lon="-0.16147">
        <ele>138.8</ele>
        <time>2019-02-03T23:18:08.646Z</time>
      </trkpt>
      <trkpt lat="46.76183" lon="-0.16206">
        <ele>135.7</ele>
        <time>2019-02-03T23:18:09.491Z</time>
      </trkpt>
      <trkpt lat="46.76199" lon="-0.16251">
        <ele>131.9</ele>
        <time>2019-02-03T23:18:10.187Z</time>
      </trkpt>
      <trkpt lat="46.76207" lon="-0.16262">
        <ele>131.8</ele>
        <time>2019-02-03T23:18:10.407Z</time>
      </trkpt>
      <trkpt lat="46.76234" lon="-0.16285">
        <ele>130.1</ele>
        <time>2019-02-03T23:18:11.033Z</time>
      </trkpt>
      <trkpt lat="46.7624" lon="-0.16291">
        <ele>130.2</ele>
        <time>2019-02-03T23:18:11.179Z</time>
      </trkpt>
      <trkpt lat="46.76244" lon="-0.16284">
        <ele>129.5</ele>
        <time>2019-02-03T23:18:11.304Z</time>
      </trkpt>
      <trkpt lat="46.76258" lon="-0.16262">
        <ele>131.6</ele>
        <time>2019-02-03T23:18:11.716Z</time>
      </trkpt>
      <trkpt lat="46.76265" lon="-0.16254">
        <ele>133</ele>
        <time>2019-02-03T23:18:11.892Z</time>
      </trkpt>
      <trkpt lat="46.76266" lon="-0.16252">
        <ele>133.3</ele>
        <time>2019-02-03T23:18:11.927Z</time>
      </trkpt>
      <trkpt lat="46.7627" lon="-0.16251">
        <ele>133.6</ele>
        <time>2019-02-03T23:18:12.008Z</time>
      </trkpt>
      <trkpt lat="46.76296" lon="-0.16255">
        <ele>135.8</ele>
        <time>2019-02-03T23:18:12.532Z</time>
      </trkpt>
      <trkpt lat="46.76319" lon="-0.16258">
        <ele>138.5</ele>
        <time>2019-02-03T23:18:12.995Z</time>
      </trkpt>
      <trkpt lat="46.76335" lon="-0.16263">
        <ele>139.8</ele>
        <time>2019-02-03T23:18:13.323Z</time>
      </trkpt>
      <trkpt lat="46.76352" lon="-0.16273">
        <ele>140.8</ele>
        <time>2019-02-03T23:18:13.690Z</time>
      </trkpt>
      <trkpt lat="46.76369" lon="-0.16286">
        <ele>141.4</ele>
        <time>2019-02-03T23:18:14.075Z</time>
      </trkpt>
      <trkpt lat="46.76417" lon="-0.16337">
        <ele>141.7</ele>
        <time>2019-02-03T23:18:15.265Z</time>
      </trkpt>
      <trkpt lat="46.7645" lon="-0.16366">
        <ele>140.6</ele>
        <time>2019-02-03T23:18:16.037Z</time>
      </trkpt>
      <trkpt lat="46.76461" lon="-0.16368">
        <ele>140.5</ele>
        <time>2019-02-03T23:18:16.259Z</time>
      </trkpt>
      <trkpt lat="46.76471" lon="-0.16366">
        <ele>140.6</ele>
        <time>2019-02-03T23:18:16.461Z</time>
      </trkpt>
      <trkpt lat="46.76503" lon="-0.16351">
        <ele>140.1</ele>
        <time>2019-02-03T23:18:17.135Z</time>
      </trkpt>
      <trkpt lat="46.76516" lon="-0.16342">
        <ele>139.5</ele>
        <time>2019-02-03T23:18:17.423Z</time>
      </trkpt>
      <trkpt lat="46.76537" lon="-0.1632">
        <ele>138.8</ele>
        <time>2019-02-03T23:18:17.941Z</time>
      </trkpt>
      <trkpt lat="46.76561" lon="-0.16293">
        <ele>136.8</ele>
        <time>2019-02-03T23:18:18.548Z</time>
      </trkpt>
      <trkpt lat="46.76596" lon="-0.16252">
        <ele>136.8</ele>
        <time>2019-02-03T23:18:19.447Z</time>
      </trkpt>
      <trkpt lat="46.76602" lon="-0.16246">
        <ele>137</ele>
        <time>2019-02-03T23:18:19.593Z</time>
      </trkpt>
      <trkpt lat="46.76636" lon="-0.16231">
        <ele>136.9</ele>
        <time>2019-02-03T23:18:20.305Z</time>
      </trkpt>
      <trkpt lat="46.76662" lon="-0.16218">
        <ele>135.9</ele>
        <time>2019-02-03T23:18:20.856Z</time>
      </trkpt>
      <trkpt lat="46.76677" lon="-0.16205">
        <ele>136.5</ele>
        <time>2019-02-03T23:18:21.206Z</time>
      </trkpt>
      <trkpt lat="46.76694" lon="-0.16188">
        <ele>137.5</ele>
        <time>2019-02-03T23:18:21.619Z</time>
      </trkpt>
      <trkpt lat="46.76719" lon="-0.16174">
        <ele>136.7</ele>
        <time>2019-02-03T23:18:22.156Z</time>
      </trkpt>
      <trkpt lat="46.76735" lon="-0.16167">
        <ele>136.5</ele>
        <time>2019-02-03T23:18:22.491Z</time>
      </trkpt>
      <trkpt lat="46.76739" lon="-0.16174">
        <ele>135.9</ele>
        <time>2019-02-03T23:18:22.616Z</time>
      </trkpt>
      <trkpt lat="46.76743" lon="-0.16179">
        <ele>135.4</ele>
        <time>2019-02-03T23:18:22.722Z</time>
      </trkpt>
      <trkpt lat="46.76751" lon="-0.16183">
        <ele>134.8</ele>
        <time>2019-02-03T23:18:22.891Z</time>
      </trkpt>
      <trkpt lat="46.76757" lon="-0.16184">
        <ele>134.3</ele>
        <time>2019-02-03T23:18:23.012Z</time>
      </trkpt>
      <trkpt lat="46.76758" lon="-0.16208">
        <ele>132.2</ele>
        <time>2019-02-03T23:18:23.342Z</time>
      </trkpt>
      <trkpt lat="46.76761" lon="-0.16228">
        <ele>129.7</ele>
        <time>2019-02-03T23:18:23.623Z</time>
      </trkpt>
      <trkpt lat="46.76761" lon="-0.1624">
        <ele>127.9</ele>
        <time>2019-02-03T23:18:23.788Z</time>
      </trkpt>
      <trkpt lat="46.76758" lon="-0.16247">
        <ele>126.8</ele>
        <time>2019-02-03T23:18:23.901Z</time>
      </trkpt>
      <trkpt lat="46.76747" lon="-0.16261">
        <ele>125.1</ele>
        <time>2019-02-03T23:18:24.193Z</time>
      </trkpt>
      <trkpt lat="46.76743" lon="-0.16269">
        <ele>124.5</ele>
        <time>2019-02-03T23:18:24.329Z</time>
      </trkpt>
      <trkpt lat="46.76729" lon="-0.1632">
        <ele>120</ele>
        <time>2019-02-03T23:18:25.083Z</time>
      </trkpt>
      <trkpt lat="46.76725" lon="-0.16335">
        <ele>118.8</ele>
        <time>2019-02-03T23:18:25.304Z</time>
      </trkpt>
      <trkpt lat="46.76723" lon="-0.16351">
        <ele>117.1</ele>
        <time>2019-02-03T23:18:25.527Z</time>
      </trkpt>
      <trkpt lat="46.76725" lon="-0.16377">
        <ele>113.8</ele>
        <time>2019-02-03T23:18:25.886Z</time>
      </trkpt>
      <trkpt lat="46.76727" lon="-0.16386">
        <ele>112.6</ele>
        <time>2019-02-03T23:18:26.010Z</time>
      </trkpt>
      <trkpt lat="46.76729" lon="-0.16395">
        <ele>111.3</ele>
        <time>2019-02-03T23:18:26.146Z</time>
      </trkpt>
      <trkpt lat="46.7673" lon="-0.16395">
        <ele>111.4</ele>
        <time>2019-02-03T23:18:26.161Z</time>
      </trkpt>
      <trkpt lat="46.76733" lon="-0.16407">
        <ele>109.5</ele>
        <time>2019-02-03T23:18:26.345Z</time>
      </trkpt>
      <trkpt lat="46.76735" lon="-0.16414">
        <ele>108.4</ele>
        <time>2019-02-03T23:18:26.449Z</time>
      </trkpt>
      <trkpt lat="46.76746" lon="-0.16412">
        <ele>108.8</ele>
        <time>2019-02-03T23:18:26.671Z</time>
      </trkpt>
      <trkpt lat="46.76761" lon="-0.16402">
        <ele>110.2</ele>
        <time>2019-02-03T23:18:27.001Z</time>
      </trkpt>
      <trkpt lat="46.76783" lon="-0.16379">
        <ele>112.7</ele>
        <time>2019-02-03T23:18:27.543Z</time>
      </trkpt>
      <trkpt lat="46.7679" lon="-0.16378">
        <ele>113.2</ele>
        <time>2019-02-03T23:18:27.684Z</time>
      </trkpt>
      <trkpt lat="46.76814" lon="-0.1638">
        <ele>114.6</ele>
        <time>2019-02-03T23:18:28.166Z</time>
      </trkpt>
      <trkpt lat="46.76825" lon="-0.1638">
        <ele>116</ele>
        <time>2019-02-03T23:18:28.386Z</time>
      </trkpt>
      <trkpt lat="46.76831" lon="-0.16376">
        <ele>117.1</ele>
        <time>2019-02-03T23:18:28.518Z</time>
      </trkpt>
      <trkpt lat="46.76841" lon="-0.16349">
        <ele>120.4</ele>
        <time>2019-02-03T23:18:28.939Z</time>
      </trkpt>
      <trkpt lat="46.76869" lon="-0.16273">
        <ele>126.3</ele>
        <time>2019-02-03T23:18:30.123Z</time>
      </trkpt>
      <trkpt lat="46.76874" lon="-0.16253">
        <ele>127.8</ele>
        <time>2019-02-03T23:18:30.415Z</time>
      </trkpt>
      <trkpt lat="46.76874" lon="-0.16248">
        <ele>128</ele>
        <time>2019-02-03T23:18:30.484Z</time>
      </trkpt>
      <trkpt lat="46.76881" lon="-0.16257">
        <ele>127.5</ele>
        <time>2019-02-03T23:18:30.671Z</time>
      </trkpt>
      <trkpt lat="46.76896" lon="-0.16268">
        <ele>126.5</ele>
        <time>2019-02-03T23:18:31.007Z</time>
      </trkpt>
      <trkpt lat="46.76914" lon="-0.16276">
        <ele>126</ele>
        <time>2019-02-03T23:18:31.384Z</time>
      </trkpt>
      <trkpt lat="46.76948" lon="-0.16286">
        <ele>124.8</ele>
        <time>2019-02-03T23:18:32.079Z</time>
      </trkpt>
      <trkpt lat="46.76978" lon="-0.16298">
        <ele>123.4</ele>
        <time>2019-02-03T23:18:32.702Z</time>
      </trkpt>
      <trkpt lat="46.77037" lon="-0.1633">
        <ele>120.7</ele>
        <time>2019-02-03T23:18:33.963Z</time>
      </trkpt>
      <trkpt lat="46.77051" lon="-0.16332">
        <ele>120.2</ele>
        <time>2019-02-03T23:18:34.245Z</time>
      </trkpt>
      <trkpt lat="46.77084" lon="-0.16329">
        <ele>119</ele>
        <time>2019-02-03T23:18:34.908Z</time>
      </trkpt>
      <trkpt lat="46.77098" lon="-0.16328">
        <ele>117.9</ele>
        <time>2019-02-03T23:18:35.189Z</time>
      </trkpt>
      <trkpt lat="46.77108" lon="-0.1633">
        <ele>117.2</ele>
        <time>2019-02-03T23:18:35.391Z</time>
      </trkpt>
      <trkpt lat="46.77143" lon="-0.16344">
        <ele>116.2</ele>
        <time>2019-02-03T23:18:36.118Z</time>
      </trkpt>
      <trkpt lat="46.77185" lon="-0.16352">
        <ele>114.6</ele>
        <time>2019-02-03T23:18:36.959Z</time>
      </trkpt>
      <trkpt lat="46.77188" lon="-0.16353">
        <ele>114.4</ele>
        <time>2019-02-03T23:18:37.029Z</time>
      </trkpt>
      <trkpt lat="46.77192" lon="-0.16353">
        <ele>114.1</ele>
        <time>2019-02-03T23:18:37.110Z</time>
      </trkpt>
      <trkpt lat="46.77201" lon="-0.16353">
        <ele>113.5</ele>
        <time>2019-02-03T23:18:37.289Z</time>
      </trkpt>
      <trkpt lat="46.77215" lon="-0.16356">
        <ele>112.5</ele>
        <time>2019-02-03T23:18:37.573Z</time>
      </trkpt>
      <trkpt lat="46.77223" lon="-0.16361">
        <ele>112</ele>
        <time>2019-02-03T23:18:37.747Z</time>
      </trkpt>
      <trkpt lat="46.77234" lon="-0.16368">
        <ele>111.8</ele>
        <time>2019-02-03T23:18:37.987Z</time>
      </trkpt>
      <trkpt lat="46.77246" lon="-0.16372">
        <ele>111.5</ele>
        <time>2019-02-03T23:18:38.234Z</time>
      </trkpt>
      <trkpt lat="46.77286" lon="-0.1638">
        <ele>110.4</ele>
        <time>2019-02-03T23:18:39.043Z</time>
      </trkpt>
      <trkpt lat="46.77323" lon="-0.16394">
        <ele>108.9</ele>
        <time>2019-02-03T23:18:39.809Z</time>
      </trkpt>
      <trkpt lat="46.77345" lon="-0.16405">
        <ele>107.9</ele>
        <time>2019-02-03T23:18:40.275Z</time>
      </trkpt>
      <trkpt lat="46.77367" lon="-0.16425">
        <ele>107.2</ele>
        <time>2019-02-03T23:18:40.794Z</time>
      </trkpt>
      <trkpt lat="46.7738" lon="-0.16441">
        <ele>107.3</ele>
        <time>2019-02-03T23:18:41.135Z</time>
      </trkpt>
      <trkpt lat="46.77386" lon="-0.16455">
        <ele>107.1</ele>
        <time>2019-02-03T23:18:41.362Z</time>
      </trkpt>
      <trkpt lat="46.77392" lon="-0.16473">
        <ele>106.9</ele>
        <time>2019-02-03T23:18:41.637Z</time>
      </trkpt>
      <trkpt lat="46.77396" lon="-0.16494">
        <ele>107.5</ele>
        <time>2019-02-03T23:18:41.936Z</time>
      </trkpt>
      <trkpt lat="46.77419" lon="-0.16496">
        <ele>106.8</ele>
        <time>2019-02-03T23:18:42.398Z</time>
      </trkpt>
      <trkpt lat="46.77445" lon="-0.16502">
        <ele>106</ele>
        <time>2019-02-03T23:18:42.925Z</time>
      </trkpt>
      <trkpt lat="46.77508" lon="-0.16522">
        <ele>102.4</ele>
        <time>2019-02-03T23:18:44.217Z</time>
      </trkpt>
      <trkpt lat="46.7755" lon="-0.16547">
        <ele>100.8</ele>
        <time>2019-02-03T23:18:45.126Z</time>
      </trkpt>
      <trkpt lat="46.77588" lon="-0.16582">
        <ele>99.6</ele>
        <time>2019-02-03T23:18:46.026Z</time>
      </trkpt>
      <trkpt lat="46.77598" lon="-0.16585">
        <ele>99</ele>
        <time>2019-02-03T23:18:46.231Z</time>
      </trkpt>
      <trkpt lat="46.77609" lon="-0.16586">
        <ele>98.2</ele>
        <time>2019-02-03T23:18:46.452Z</time>
      </trkpt>
      <trkpt lat="46.77627" lon="-0.16589">
        <ele>97.2</ele>
        <time>2019-02-03T23:18:46.815Z</time>
      </trkpt>
      <trkpt lat="46.77648" lon="-0.166">
        <ele>96.2</ele>
        <time>2019-02-03T23:18:47.262Z</time>
      </trkpt>
      <trkpt lat="46.77664" lon="-0.16618">
        <ele>93.9</ele>
        <time>2019-02-03T23:18:47.667Z</time>
      </trkpt>
      <trkpt lat="46.77673" lon="-0.16642">
        <ele>92</ele>
        <time>2019-02-03T23:18:48.043Z</time>
      </trkpt>
      <trkpt lat="46.77721" lon="-0.16716">
        <ele>87.9</ele>
        <time>2019-02-03T23:18:49.442Z</time>
      </trkpt>
      <trkpt lat="46.77727" lon="-0.16729">
        <ele>86.8</ele>
        <time>2019-02-03T23:18:49.657Z</time>
      </trkpt>
      <trkpt lat="46.77729" lon="-0.1674">
        <ele>85.8</ele>
        <time>2019-02-03T23:18:49.813Z</time>
      </trkpt>
      <trkpt lat="46.77731" lon="-0.16755">
        <ele>84.5</ele>
        <time>2019-02-03T23:18:50.023Z</time>
      </trkpt>
      <trkpt lat="46.77729" lon="-0.16778">
        <ele>82.2</ele>
        <time>2019-02-03T23:18:50.341Z</time>
      </trkpt>
      <trkpt lat="46.77782" lon="-0.16776">
        <ele>83.1</ele>
        <time>2019-02-03T23:18:51.403Z</time>
      </trkpt>
      <trkpt lat="46.77824" lon="-0.16773">
        <ele>82.7</ele>
        <time>2019-02-03T23:18:52.246Z</time>
      </trkpt>
      <trkpt lat="46.77841" lon="-0.16774">
        <ele>82.5</ele>
        <time>2019-02-03T23:18:52.587Z</time>
      </trkpt>
      <trkpt lat="46.77863" lon="-0.16779">
        <ele>81.9</ele>
        <time>2019-02-03T23:18:53.033Z</time>
      </trkpt>
      <trkpt lat="46.77895" lon="-0.16787">
        <ele>82</ele>
        <time>2019-02-03T23:18:53.684Z</time>
      </trkpt>
      <trkpt lat="46.77925" lon="-0.16789">
        <ele>82</ele>
        <time>2019-02-03T23:18:54.286Z</time>
      </trkpt>
      <trkpt lat="46.7795" lon="-0.16779">
        <ele>82</ele>
        <time>2019-02-03T23:18:54.805Z</time>
      </trkpt>
      <trkpt lat="46.77974" lon="-0.1677">
        <ele>82</ele>
        <time>2019-02-03T23:18:55.302Z</time>
      </trkpt>
      <trkpt lat="46.77983" lon="-0.16769">
        <ele>81.7</ele>
        <time>2019-02-03T23:18:55.480Z</time>
      </trkpt>
      <trkpt lat="46.77983" lon="-0.16769">
        <ele>81.7</ele>
        <time>2019-02-03T23:18:55.487Z</time>
      </trkpt>
      <trkpt lat="46.77998" lon="-0.16767">
        <ele>81.4</ele>
        <time>2019-02-03T23:18:55.789Z</time>
      </trkpt>
      <trkpt lat="46.78021" lon="-0.16755">
        <ele>81.2</ele>
        <time>2019-02-03T23:18:56.278Z</time>
      </trkpt>
      <trkpt lat="46.78064" lon="-0.16727">
        <ele>80.9</ele>
        <time>2019-02-03T23:18:57.221Z</time>
      </trkpt>
      <trkpt lat="46.78083" lon="-0.16718">
        <ele>81</ele>
        <time>2019-02-03T23:18:57.621Z</time>
      </trkpt>
      <trkpt lat="46.78096" lon="-0.16712">
        <ele>80.7</ele>
        <time>2019-02-03T23:18:57.894Z</time>
      </trkpt>
      <trkpt lat="46.7812" lon="-0.16692">
        <ele>80.7</ele>
        <time>2019-02-03T23:18:58.448Z</time>
      </trkpt>
      <trkpt lat="46.78142" lon="-0.1667">
        <ele>80.8</ele>
        <time>2019-02-03T23:18:58.982Z</time>
      </trkpt>
      <trkpt lat="46.78156" lon="-0.16662">
        <ele>80.5</ele>
        <time>2019-02-03T23:18:59.283Z</time>
      </trkpt>
      <trkpt lat="46.78236" lon="-0.16615">
        <ele>80.4</ele>
        <time>2019-02-03T23:19:01.011Z</time>
      </trkpt>
      <trkpt lat="46.78265" lon="-0.16593">
        <ele>80.3</ele>
        <time>2019-02-03T23:19:01.666Z</time>
      </trkpt>
      <trkpt lat="46.78294" lon="-0.16565">
        <ele>80.3</ele>
        <time>2019-02-03T23:19:02.363Z</time>
      </trkpt>
      <trkpt lat="46.7832" lon="-0.16537">
        <ele>80.7</ele>
        <time>2019-02-03T23:19:03.010Z</time>
      </trkpt>
      <trkpt lat="46.78335" lon="-0.16526">
        <ele>80.9</ele>
        <time>2019-02-03T23:19:03.346Z</time>
      </trkpt>
      <trkpt lat="46.78375" lon="-0.16501">
        <ele>80.5</ele>
        <time>2019-02-03T23:19:04.218Z</time>
      </trkpt>
      <trkpt lat="46.78394" lon="-0.16491">
        <ele>80</ele>
        <time>2019-02-03T23:19:04.623Z</time>
      </trkpt>
      <trkpt lat="46.78407" lon="-0.16488">
        <ele>80</ele>
        <time>2019-02-03T23:19:04.887Z</time>
      </trkpt>
      <trkpt lat="46.78422" lon="-0.16488">
        <ele>80</ele>
        <time>2019-02-03T23:19:05.188Z</time>
      </trkpt>
      <trkpt lat="46.78438" lon="-0.16489">
        <ele>80</ele>
        <time>2019-02-03T23:19:05.509Z</time>
      </trkpt>
      <trkpt lat="46.78468" lon="-0.1649">
        <ele>80</ele>
        <time>2019-02-03T23:19:06.110Z</time>
      </trkpt>
      <trkpt lat="46.78499" lon="-0.16492">
        <ele>80</ele>
        <time>2019-02-03T23:19:06.732Z</time>
      </trkpt>
      <trkpt lat="46.78522" lon="-0.1649">
        <ele>80</ele>
        <time>2019-02-03T23:19:07.194Z</time>
      </trkpt>
      <trkpt lat="46.78557" lon="-0.16482">
        <ele>80.6</ele>
        <time>2019-02-03T23:19:07.904Z</time>
      </trkpt>
      <trkpt lat="46.78568" lon="-0.16469">
        <ele>81</ele>
        <time>2019-02-03T23:19:08.188Z</time>
      </trkpt>
      <trkpt lat="46.78535" lon="-0.16442">
        <ele>81</ele>
        <time>2019-02-03T23:19:08.946Z</time>
      </trkpt>
      <trkpt lat="46.78544" lon="-0.16353">
        <ele>81</ele>
        <time>2019-02-03T23:19:10.180Z</time>
      </trkpt>
      <trkpt lat="46.78546" lon="-0.16339">
        <ele>81</ele>
        <time>2019-02-03T23:19:10.376Z</time>
      </trkpt>
      <trkpt lat="46.78555" lon="-0.16304">
        <ele>82.1</ele>
        <time>2019-02-03T23:19:10.889Z</time>
      </trkpt>
      <trkpt lat="46.78563" lon="-0.16288">
        <ele>82.8</ele>
        <time>2019-02-03T23:19:11.161Z</time>
      </trkpt>
      <trkpt lat="46.78574" lon="-0.16277">
        <ele>82.8</ele>
        <time>2019-02-03T23:19:11.428Z</time>
      </trkpt>
      <trkpt lat="46.78586" lon="-0.16272">
        <ele>82.7</ele>
        <time>2019-02-03T23:19:11.678Z</time>
      </trkpt>
      <trkpt lat="46.78593" lon="-0.16271">
        <ele>82.9</ele>
        <time>2019-02-03T23:19:11.819Z</time>
      </trkpt>
      <trkpt lat="46.78608" lon="-0.16271">
        <ele>83.2</ele>
        <time>2019-02-03T23:19:12.120Z</time>
      </trkpt>
      <trkpt lat="46.78625" lon="-0.16268">
        <ele>83.4</ele>
        <time>2019-02-03T23:19:12.463Z</time>
      </trkpt>
      <trkpt lat="46.78641" lon="-0.16258">
        <ele>83.9</ele>
        <time>2019-02-03T23:19:12.812Z</time>
      </trkpt>
      <trkpt lat="46.78647" lon="-0.16249">
        <ele>84.9</ele>
        <time>2019-02-03T23:19:12.984Z</time>
      </trkpt>
      <trkpt lat="46.78649" lon="-0.16238">
        <ele>85.5</ele>
        <time>2019-02-03T23:19:13.140Z</time>
      </trkpt>
      <trkpt lat="46.78651" lon="-0.16211">
        <ele>86.7</ele>
        <time>2019-02-03T23:19:13.513Z</time>
      </trkpt>
      <trkpt lat="46.78663" lon="-0.1619">
        <ele>89</ele>
        <time>2019-02-03T23:19:13.888Z</time>
      </trkpt>
      <trkpt lat="46.7868" lon="-0.1617">
        <ele>91.8</ele>
        <time>2019-02-03T23:19:14.325Z</time>
      </trkpt>
      <trkpt lat="46.78699" lon="-0.16157">
        <ele>95</ele>
        <time>2019-02-03T23:19:14.745Z</time>
      </trkpt>
      <trkpt lat="46.78718" lon="-0.16148">
        <ele>96.6</ele>
        <time>2019-02-03T23:19:15.145Z</time>
      </trkpt>
      <trkpt lat="46.78759" lon="-0.16137">
        <ele>98.3</ele>
        <time>2019-02-03T23:19:15.980Z</time>
      </trkpt>
      <trkpt lat="46.7878" lon="-0.16128">
        <ele>99.5</ele>
        <time>2019-02-03T23:19:16.419Z</time>
      </trkpt>
      <trkpt lat="46.78807" lon="-0.16121">
        <ele>99.9</ele>
        <time>2019-02-03T23:19:16.969Z</time>
      </trkpt>
      <trkpt lat="46.78812" lon="-0.16144">
        <ele>97.6</ele>
        <time>2019-02-03T23:19:17.300Z</time>
      </trkpt>
      <trkpt lat="46.78809" lon="-0.16185">
        <ele>94.6</ele>
        <time>2019-02-03T23:19:17.866Z</time>
      </trkpt>
      <trkpt lat="46.78808" lon="-0.1622">
        <ele>91.3</ele>
        <time>2019-02-03T23:19:18.347Z</time>
      </trkpt>
      <trkpt lat="46.78807" lon="-0.16288">
        <ele>85.6</ele>
        <time>2019-02-03T23:19:19.280Z</time>
      </trkpt>
      <trkpt lat="46.78809" lon="-0.16299">
        <ele>84.3</ele>
        <time>2019-02-03T23:19:19.436Z</time>
      </trkpt>
      <trkpt lat="46.78836" lon="-0.16315">
        <ele>84.8</ele>
        <time>2019-02-03T23:19:20.020Z</time>
      </trkpt>
      <trkpt lat="46.78844" lon="-0.16319">
        <ele>84.8</ele>
        <time>2019-02-03T23:19:20.189Z</time>
      </trkpt>
      <trkpt lat="46.78846" lon="-0.16323">
        <ele>84.4</ele>
        <time>2019-02-03T23:19:20.257Z</time>
      </trkpt>
      <trkpt lat="46.78847" lon="-0.16331">
        <ele>83.3</ele>
        <time>2019-02-03T23:19:20.369Z</time>
      </trkpt>
      <trkpt lat="46.78851" lon="-0.16336">
        <ele>83</ele>
        <time>2019-02-03T23:19:20.475Z</time>
      </trkpt>
      <trkpt lat="46.78886" lon="-0.16353">
        <ele>82.8</ele>
        <time>2019-02-03T23:19:21.214Z</time>
      </trkpt>
      <trkpt lat="46.78891" lon="-0.16358">
        <ele>82.6</ele>
        <time>2019-02-03T23:19:21.335Z</time>
      </trkpt>
      <trkpt lat="46.78892" lon="-0.16363">
        <ele>82.4</ele>
        <time>2019-02-03T23:19:21.406Z</time>
      </trkpt>
      <trkpt lat="46.7889" lon="-0.16368">
        <ele>82.4</ele>
        <time>2019-02-03T23:19:21.485Z</time>
      </trkpt>
      <trkpt lat="46.78888" lon="-0.1637">
        <ele>82.3</ele>
        <time>2019-02-03T23:19:21.534Z</time>
      </trkpt>
      <trkpt lat="46.78889" lon="-0.16375">
        <ele>82.5</ele>
        <time>2019-02-03T23:19:21.605Z</time>
      </trkpt>
      <trkpt lat="46.78891" lon="-0.16386">
        <ele>83.1</ele>
        <time>2019-02-03T23:19:21.761Z</time>
      </trkpt>
      <trkpt lat="46.78894" lon="-0.16414">
        <ele>86.5</ele>
        <time>2019-02-03T23:19:22.150Z</time>
      </trkpt>
      <trkpt lat="46.78896" lon="-0.1643">
        <ele>83.9</ele>
        <time>2019-02-03T23:19:22.373Z</time>
      </trkpt>
      <trkpt lat="46.78895" lon="-0.16444">
        <ele>80.9</ele>
        <time>2019-02-03T23:19:22.566Z</time>
      </trkpt>
      <trkpt lat="46.78885" lon="-0.16529">
        <ele>81</ele>
        <time>2019-02-03T23:19:23.749Z</time>
      </trkpt>
      <trkpt lat="46.78884" lon="-0.16535">
        <ele>81</ele>
        <time>2019-02-03T23:19:23.834Z</time>
      </trkpt>
      <trkpt lat="46.78882" lon="-0.16539">
        <ele>80.9</ele>
        <time>2019-02-03T23:19:23.902Z</time>
      </trkpt>
      <trkpt lat="46.78865" lon="-0.1653">
        <ele>80.9</ele>
        <time>2019-02-03T23:19:24.264Z</time>
      </trkpt>
      <trkpt lat="46.78838" lon="-0.16514">
        <ele>80.5</ele>
        <time>2019-02-03T23:19:24.848Z</time>
      </trkpt>
      <trkpt lat="46.7881" lon="-0.16499">
        <ele>80.8</ele>
        <time>2019-02-03T23:19:25.446Z</time>
      </trkpt>
      <trkpt lat="46.78794" lon="-0.16495">
        <ele>81</ele>
        <time>2019-02-03T23:19:25.771Z</time>
      </trkpt>
      <trkpt lat="46.78782" lon="-0.16494">
        <ele>81</ele>
        <time>2019-02-03T23:19:26.012Z</time>
      </trkpt>
      <trkpt lat="46.78733" lon="-0.16496">
        <ele>81.6</ele>
        <time>2019-02-03T23:19:26.994Z</time>
      </trkpt>
      <trkpt lat="46.78716" lon="-0.16496">
        <ele>82.2</ele>
        <time>2019-02-03T23:19:27.335Z</time>
      </trkpt>
      <trkpt lat="46.78707" lon="-0.16501">
        <ele>82.1</ele>
        <time>2019-02-03T23:19:27.528Z</time>
      </trkpt>
      <trkpt lat="46.78691" lon="-0.16512">
        <ele>82.6</ele>
        <time>2019-02-03T23:19:27.882Z</time>
      </trkpt>
      <trkpt lat="46.78674" lon="-0.16524">
        <ele>81.9</ele>
        <time>2019-02-03T23:19:28.260Z</time>
      </trkpt>
      <trkpt lat="46.78636" lon="-0.16552">
        <ele>81.5</ele>
        <time>2019-02-03T23:19:29.113Z</time>
      </trkpt>
      <trkpt lat="46.78656" lon="-0.16591">
        <ele>81.3</ele>
        <time>2019-02-03T23:19:29.782Z</time>
      </trkpt>
      <trkpt lat="46.78679" lon="-0.16637">
        <ele>81.4</ele>
        <time>2019-02-03T23:19:30.564Z</time>
      </trkpt>
      <trkpt lat="46.78682" lon="-0.16648">
        <ele>81.6</ele>
        <time>2019-02-03T23:19:30.726Z</time>
      </trkpt>
      <trkpt lat="46.78681" lon="-0.16665">
        <ele>81.5</ele>
        <time>2019-02-03T23:19:30.960Z</time>
      </trkpt>
      <trkpt lat="46.78678" lon="-0.16673">
        <ele>81.7</ele>
        <time>2019-02-03T23:19:31.085Z</time>
      </trkpt>
      <trkpt lat="46.78671" lon="-0.16679">
        <ele>82.2</ele>
        <time>2019-02-03T23:19:31.248Z</time>
      </trkpt>
      <trkpt lat="46.78658" lon="-0.16686">
        <ele>81.5</ele>
        <time>2019-02-03T23:19:31.526Z</time>
      </trkpt>
      <trkpt lat="46.78614" lon="-0.16706">
        <ele>81</ele>
        <time>2019-02-03T23:19:32.449Z</time>
      </trkpt>
      <trkpt lat="46.78601" lon="-0.16715">
        <ele>81.9</ele>
        <time>2019-02-03T23:19:32.737Z</time>
      </trkpt>
      <trkpt lat="46.78593" lon="-0.16722">
        <ele>82.6</ele>
        <time>2019-02-03T23:19:32.924Z</time>
      </trkpt>
      <trkpt lat="46.78586" lon="-0.16732">
        <ele>82.9</ele>
        <time>2019-02-03T23:19:33.120Z</time>
      </trkpt>
      <trkpt lat="46.78581" lon="-0.16745">
        <ele>82.9</ele>
        <time>2019-02-03T23:19:33.325Z</time>
      </trkpt>
      <trkpt lat="46.78579" lon="-0.16758">
        <ele>82.8</ele>
        <time>2019-02-03T23:19:33.508Z</time>
      </trkpt>
      <trkpt lat="46.78578" lon="-0.16775">
        <ele>82.8</ele>
        <time>2019-02-03T23:19:33.742Z</time>
      </trkpt>
      <trkpt lat="46.78553" lon="-0.16784">
        <ele>81.6</ele>
        <time>2019-02-03T23:19:34.258Z</time>
      </trkpt>
      <trkpt lat="46.78548" lon="-0.16787">
        <ele>81.4</ele>
        <time>2019-02-03T23:19:34.366Z</time>
      </trkpt>
      <trkpt lat="46.78548" lon="-0.16786">
        <ele>81.5</ele>
        <time>2019-02-03T23:19:34.380Z</time>
      </trkpt>
      <trkpt lat="46.78345" lon="-0.16876">
        <ele>91.8</ele>
        <time>2019-02-03T23:19:38.631Z</time>
      </trkpt>
      <trkpt lat="46.78336" lon="-0.1688">
        <ele>92.2</ele>
        <time>2019-02-03T23:19:38.820Z</time>
      </trkpt>
      <trkpt lat="46.78337" lon="-0.16885">
        <ele>92</ele>
        <time>2019-02-03T23:19:38.891Z</time>
      </trkpt>
      <trkpt lat="46.78338" lon="-0.16892">
        <ele>92</ele>
        <time>2019-02-03T23:19:38.989Z</time>
      </trkpt>
      <trkpt lat="46.78336" lon="-0.16901">
        <ele>92.6</ele>
        <time>2019-02-03T23:19:39.119Z</time>
      </trkpt>
      <trkpt lat="46.78328" lon="-0.16917">
        <ele>94.3</ele>
        <time>2019-02-03T23:19:39.391Z</time>
      </trkpt>
      <trkpt lat="46.78312" lon="-0.16945">
        <ele>94.5</ele>
        <time>2019-02-03T23:19:39.891Z</time>
      </trkpt>
      <trkpt lat="46.78296" lon="-0.16966">
        <ele>95.2</ele>
        <time>2019-02-03T23:19:40.322Z</time>
      </trkpt>
      <trkpt lat="46.78276" lon="-0.16985">
        <ele>96.8</ele>
        <time>2019-02-03T23:19:40.800Z</time>
      </trkpt>
      <trkpt lat="46.78244" lon="-0.17014">
        <ele>97.1</ele>
        <time>2019-02-03T23:19:41.555Z</time>
      </trkpt>
      <trkpt lat="46.78216" lon="-0.17044">
        <ele>98.1</ele>
        <time>2019-02-03T23:19:42.251Z</time>
      </trkpt>
      <trkpt lat="46.7816" lon="-0.17113">
        <ele>102.2</ele>
        <time>2019-02-03T23:19:43.719Z</time>
      </trkpt>
      <trkpt lat="46.78091" lon="-0.17199">
        <ele>105.1</ele>
        <time>2019-02-03T23:19:45.537Z</time>
      </trkpt>
      <trkpt lat="46.7804" lon="-0.17261">
        <ele>106.1</ele>
        <time>2019-02-03T23:19:46.867Z</time>
      </trkpt>
      <trkpt lat="46.78021" lon="-0.17281">
        <ele>106.2</ele>
        <time>2019-02-03T23:19:47.336Z</time>
      </trkpt>
      <trkpt lat="46.78005" lon="-0.17295">
        <ele>106.8</ele>
        <time>2019-02-03T23:19:47.710Z</time>
      </trkpt>
      <trkpt lat="46.77949" lon="-0.17333">
        <ele>107.5</ele>
        <time>2019-02-03T23:19:48.947Z</time>
      </trkpt>
      <trkpt lat="46.77931" lon="-0.17347">
        <ele>107.5</ele>
        <time>2019-02-03T23:19:49.356Z</time>
      </trkpt>
      <trkpt lat="46.77919" lon="-0.1736">
        <ele>107.8</ele>
        <time>2019-02-03T23:19:49.655Z</time>
      </trkpt>
      <trkpt lat="46.779" lon="-0.17394">
        <ele>109.5</ele>
        <time>2019-02-03T23:19:50.257Z</time>
      </trkpt>
      <trkpt lat="46.77876" lon="-0.17439">
        <ele>112.8</ele>
        <time>2019-02-03T23:19:51.040Z</time>
      </trkpt>
      <trkpt lat="46.77857" lon="-0.17477">
        <ele>115.9</ele>
        <time>2019-02-03T23:19:51.686Z</time>
      </trkpt>
      <trkpt lat="46.77854" lon="-0.17481">
        <ele>116.6</ele>
        <time>2019-02-03T23:19:51.767Z</time>
      </trkpt>
      <trkpt lat="46.77853" lon="-0.17491">
        <ele>117.5</ele>
        <time>2019-02-03T23:19:51.906Z</time>
      </trkpt>
      <trkpt lat="46.77852" lon="-0.17515">
        <ele>119</ele>
        <time>2019-02-03T23:19:52.236Z</time>
      </trkpt>
      <trkpt lat="46.77847" lon="-0.17579">
        <ele>119.5</ele>
        <time>2019-02-03T23:19:53.120Z</time>
      </trkpt>
      <trkpt lat="46.77844" lon="-0.17598">
        <ele>119.8</ele>
        <time>2019-02-03T23:19:53.388Z</time>
      </trkpt>
      <trkpt lat="46.77828" lon="-0.17654">
        <ele>122</ele>
        <time>2019-02-03T23:19:54.221Z</time>
      </trkpt>
      <trkpt lat="46.77803" lon="-0.1777">
        <ele>125.2</ele>
        <time>2019-02-03T23:19:55.890Z</time>
      </trkpt>
      <trkpt lat="46.77776" lon="-0.17884">
        <ele>127.1</ele>
        <time>2019-02-03T23:19:57.545Z</time>
      </trkpt>
      <trkpt lat="46.77763" lon="-0.17925">
        <ele>126.5</ele>
        <time>2019-02-03T23:19:58.165Z</time>
      </trkpt>
      <trkpt lat="46.7776" lon="-0.17935">
        <ele>126.6</ele>
        <time>2019-02-03T23:19:58.315Z</time>
      </trkpt>
      <trkpt lat="46.77734" lon="-0.17989">
        <ele>126.8</ele>
        <time>2019-02-03T23:19:59.221Z</time>
      </trkpt>
      <trkpt lat="46.77694" lon="-0.18065">
        <ele>126.3</ele>
        <time>2019-02-03T23:20:00.536Z</time>
      </trkpt>
      <trkpt lat="46.77658" lon="-0.18124">
        <ele>124.7</ele>
        <time>2019-02-03T23:20:01.620Z</time>
      </trkpt>
      <trkpt lat="46.77653" lon="-0.1813">
        <ele>124.7</ele>
        <time>2019-02-03T23:20:01.750Z</time>
      </trkpt>
      <trkpt lat="46.77649" lon="-0.18134">
        <ele>124.7</ele>
        <time>2019-02-03T23:20:01.847Z</time>
      </trkpt>
      <trkpt lat="46.77648" lon="-0.1812">
        <ele>124.9</ele>
        <time>2019-02-03T23:20:02.040Z</time>
      </trkpt>
      <trkpt lat="46.77648" lon="-0.1812">
        <ele>124.9</ele>
        <time>2019-02-03T23:20:02.049Z</time>
      </trkpt>
      <trkpt lat="46.77647" lon="-0.1811">
        <ele>125.1</ele>
        <time>2019-02-03T23:20:02.190Z</time>
      </trkpt>
      <trkpt lat="46.77645" lon="-0.18095">
        <ele>125.7</ele>
        <time>2019-02-03T23:20:02.395Z</time>
      </trkpt>
      <trkpt lat="46.77649" lon="-0.18134">
        <ele>124.7</ele>
        <time>2019-02-03T23:20:02.936Z</time>
      </trkpt>
      <trkpt lat="46.77647" lon="-0.1814">
        <ele>124.7</ele>
        <time>2019-02-03T23:20:03.028Z</time>
      </trkpt>
      <trkpt lat="46.77645" lon="-0.18144">
        <ele>124.6</ele>
        <time>2019-02-03T23:20:03.096Z</time>
      </trkpt>
      <trkpt lat="46.77638" lon="-0.18189">
        <ele>123.3</ele>
        <time>2019-02-03T23:20:03.729Z</time>
      </trkpt>
      <trkpt lat="46.77618" lon="-0.18301">
        <ele>122.7</ele>
        <time>2019-02-03T23:20:05.317Z</time>
      </trkpt>
      <trkpt lat="46.77612" lon="-0.18326">
        <ele>122.2</ele>
        <time>2019-02-03T23:20:05.681Z</time>
      </trkpt>
      <trkpt lat="46.77601" lon="-0.18354">
        <ele>121.9</ele>
        <time>2019-02-03T23:20:06.124Z</time>
      </trkpt>
      <trkpt lat="46.77587" lon="-0.18387">
        <ele>121.8</ele>
        <time>2019-02-03T23:20:06.657Z</time>
      </trkpt>
      <trkpt lat="46.77579" lon="-0.18401">
        <ele>121.3</ele>
        <time>2019-02-03T23:20:06.907Z</time>
      </trkpt>
      <trkpt lat="46.77562" lon="-0.18423">
        <ele>121.3</ele>
        <time>2019-02-03T23:20:07.362Z</time>
      </trkpt>
      <trkpt lat="46.77548" lon="-0.18442">
        <ele>121.3</ele>
        <time>2019-02-03T23:20:07.745Z</time>
      </trkpt>
      <trkpt lat="46.77538" lon="-0.1845">
        <ele>121.4</ele>
        <time>2019-02-03T23:20:07.973Z</time>
      </trkpt>
      <trkpt lat="46.77483" lon="-0.18488">
        <ele>122.6</ele>
        <time>2019-02-03T23:20:09.192Z</time>
      </trkpt>
      <trkpt lat="46.77461" lon="-0.1851">
        <ele>122.8</ele>
        <time>2019-02-03T23:20:09.726Z</time>
      </trkpt>
      <trkpt lat="46.77422" lon="-0.18557">
        <ele>123.6</ele>
        <time>2019-02-03T23:20:10.739Z</time>
      </trkpt>
      <trkpt lat="46.7741" lon="-0.18574">
        <ele>123.8</ele>
        <time>2019-02-03T23:20:11.074Z</time>
      </trkpt>
      <trkpt lat="46.77405" lon="-0.18585">
        <ele>123.8</ele>
        <time>2019-02-03T23:20:11.255Z</time>
      </trkpt>
      <trkpt lat="46.77385" lon="-0.18662">
        <ele>122.4</ele>
        <time>2019-02-03T23:20:12.385Z</time>
      </trkpt>
      <trkpt lat="46.77378" lon="-0.18696">
        <ele>122.1</ele>
        <time>2019-02-03T23:20:12.872Z</time>
      </trkpt>
      <trkpt lat="46.7737" lon="-0.18718">
        <ele>122.2</ele>
        <time>2019-02-03T23:20:13.214Z</time>
      </trkpt>
      <trkpt lat="46.77351" lon="-0.18754">
        <ele>122</ele>
        <time>2019-02-03T23:20:13.838Z</time>
      </trkpt>
      <trkpt lat="46.7732" lon="-0.18792">
        <ele>123.7</ele>
        <time>2019-02-03T23:20:14.649Z</time>
      </trkpt>
      <trkpt lat="46.77293" lon="-0.18818">
        <ele>124.7</ele>
        <time>2019-02-03T23:20:15.297Z</time>
      </trkpt>
      <trkpt lat="46.77262" lon="-0.18843">
        <ele>125.2</ele>
        <time>2019-02-03T23:20:16.007Z</time>
      </trkpt>
      <trkpt lat="46.77197" lon="-0.18883">
        <ele>127.1</ele>
        <time>2019-02-03T23:20:17.421Z</time>
      </trkpt>
      <trkpt lat="46.77183" lon="-0.18896">
        <ele>127.2</ele>
        <time>2019-02-03T23:20:17.753Z</time>
      </trkpt>
      <trkpt lat="46.77121" lon="-0.18958">
        <ele>127.3</ele>
        <time>2019-02-03T23:20:19.260Z</time>
      </trkpt>
      <trkpt lat="46.77118" lon="-0.18961">
        <ele>127.3</ele>
        <time>2019-02-03T23:20:19.331Z</time>
      </trkpt>
      <trkpt lat="46.77171" lon="-0.19089">
        <ele>123.8</ele>
        <time>2019-02-03T23:20:21.384Z</time>
      </trkpt>
      <trkpt lat="46.77174" lon="-0.191">
        <ele>123.7</ele>
        <time>2019-02-03T23:20:21.547Z</time>
      </trkpt>
      <trkpt lat="46.77173" lon="-0.19106">
        <ele>123.8</ele>
        <time>2019-02-03T23:20:21.632Z</time>
      </trkpt>
      <trkpt lat="46.7717" lon="-0.19137">
        <ele>123.9</ele>
        <time>2019-02-03T23:20:22.062Z</time>
      </trkpt>
      <trkpt lat="46.7717" lon="-0.19168">
        <ele>122.8</ele>
        <time>2019-02-03T23:20:22.487Z</time>
      </trkpt>
      <trkpt lat="46.77169" lon="-0.19177">
        <ele>122.5</ele>
        <time>2019-02-03T23:20:22.612Z</time>
      </trkpt>
      <trkpt lat="46.77165" lon="-0.19185">
        <ele>122.3</ele>
        <time>2019-02-03T23:20:22.748Z</time>
      </trkpt>
      <trkpt lat="46.77168" lon="-0.19191">
        <ele>122</ele>
        <time>2019-02-03T23:20:22.850Z</time>
      </trkpt>
      <trkpt lat="46.77177" lon="-0.19209">
        <ele>121.1</ele>
        <time>2019-02-03T23:20:23.156Z</time>
      </trkpt>
      <trkpt lat="46.7719" lon="-0.19232">
        <ele>119.8</ele>
        <time>2019-02-03T23:20:23.565Z</time>
      </trkpt>
      <trkpt lat="46.77249" lon="-0.19317">
        <ele>117.4</ele>
        <time>2019-02-03T23:20:25.226Z</time>
      </trkpt>
      <trkpt lat="46.77261" lon="-0.19332">
        <ele>117.4</ele>
        <time>2019-02-03T23:20:25.543Z</time>
      </trkpt>
      <trkpt lat="46.77271" lon="-0.1934">
        <ele>117.2</ele>
        <time>2019-02-03T23:20:25.771Z</time>
      </trkpt>
      <trkpt lat="46.77355" lon="-0.19383">
        <ele>115.9</ele>
        <time>2019-02-03T23:20:27.555Z</time>
      </trkpt>
      <trkpt lat="46.77483" lon="-0.19451">
        <ele>119</ele>
        <time>2019-02-03T23:20:30.285Z</time>
      </trkpt>
      <trkpt lat="46.7754" lon="-0.19478">
        <ele>118.9</ele>
        <time>2019-02-03T23:20:31.486Z</time>
      </trkpt>
      <trkpt lat="46.77549" lon="-0.1948">
        <ele>118.9</ele>
        <time>2019-02-03T23:20:31.668Z</time>
      </trkpt>
      <trkpt lat="46.77564" lon="-0.19479">
        <ele>119.3</ele>
        <time>2019-02-03T23:20:31.969Z</time>
      </trkpt>
      <trkpt lat="46.77656" lon="-0.19455">
        <ele>122.6</ele>
        <time>2019-02-03T23:20:33.842Z</time>
      </trkpt>
      <trkpt lat="46.77716" lon="-0.19439">
        <ele>124</ele>
        <time>2019-02-03T23:20:35.064Z</time>
      </trkpt>
      <trkpt lat="46.7773" lon="-0.19436">
        <ele>124.5</ele>
        <time>2019-02-03T23:20:35.348Z</time>
      </trkpt>
      <trkpt lat="46.77733" lon="-0.19418">
        <ele>125</ele>
        <time>2019-02-03T23:20:35.602Z</time>
      </trkpt>
      <trkpt lat="46.7773" lon="-0.19406">
        <ele>125</ele>
        <time>2019-02-03T23:20:35.777Z</time>
      </trkpt>
      <trkpt lat="46.77693" lon="-0.1936">
        <ele>124</ele>
        <time>2019-02-03T23:20:36.751Z</time>
      </trkpt>
      <trkpt lat="46.7765" lon="-0.19317">
        <ele>123.2</ele>
        <time>2019-02-03T23:20:37.795Z</time>
      </trkpt>
      <trkpt lat="46.77612" lon="-0.19281">
        <ele>121.1</ele>
        <time>2019-02-03T23:20:38.703Z</time>
      </trkpt>
      <trkpt lat="46.77599" lon="-0.19266">
        <ele>119.9</ele>
        <time>2019-02-03T23:20:39.035Z</time>
      </trkpt>
      <trkpt lat="46.77594" lon="-0.19255">
        <ele>119.2</ele>
        <time>2019-02-03T23:20:39.216Z</time>
      </trkpt>
      <trkpt lat="46.77595" lon="-0.19249">
        <ele>118.9</ele>
        <time>2019-02-03T23:20:39.301Z</time>
      </trkpt>
      <trkpt lat="46.77598" lon="-0.19245">
        <ele>118.6</ele>
        <time>2019-02-03T23:20:39.382Z</time>
      </trkpt>
      <trkpt lat="46.77632" lon="-0.19218">
        <ele>116.7</ele>
        <time>2019-02-03T23:20:40.158Z</time>
      </trkpt>
      <trkpt lat="46.77718" lon="-0.19148">
        <ele>112.8</ele>
        <time>2019-02-03T23:20:42.127Z</time>
      </trkpt>
      <trkpt lat="46.77718" lon="-0.19148">
        <ele>112.7</ele>
        <time>2019-02-03T23:20:42.132Z</time>
      </trkpt>
      <trkpt lat="46.77773" lon="-0.19104">
        <ele>112.3</ele>
        <time>2019-02-03T23:20:43.389Z</time>
      </trkpt>
      <trkpt lat="46.77795" lon="-0.19084">
        <ele>112.3</ele>
        <time>2019-02-03T23:20:43.908Z</time>
      </trkpt>
      <trkpt lat="46.77828" lon="-0.19047">
        <ele>113</ele>
        <time>2019-02-03T23:20:44.742Z</time>
      </trkpt>
      <trkpt lat="46.77842" lon="-0.19028">
        <ele>112.6</ele>
        <time>2019-02-03T23:20:45.125Z</time>
      </trkpt>
      <trkpt lat="46.77852" lon="-0.19019">
        <ele>113.6</ele>
        <time>2019-02-03T23:20:45.360Z</time>
      </trkpt>
      <trkpt lat="46.77862" lon="-0.19014">
        <ele>114.5</ele>
        <time>2019-02-03T23:20:45.572Z</time>
      </trkpt>
      <trkpt lat="46.77874" lon="-0.19012">
        <ele>115.2</ele>
        <time>2019-02-03T23:20:45.814Z</time>
      </trkpt>
      <trkpt lat="46.77926" lon="-0.19006">
        <ele>116.7</ele>
        <time>2019-02-03T23:20:46.859Z</time>
      </trkpt>
      <trkpt lat="46.77944" lon="-0.19008">
        <ele>117.3</ele>
        <time>2019-02-03T23:20:47.221Z</time>
      </trkpt>
      <trkpt lat="46.7796" lon="-0.19012">
        <ele>117.1</ele>
        <time>2019-02-03T23:20:47.546Z</time>
      </trkpt>
      <trkpt lat="46.77988" lon="-0.19022">
        <ele>117.5</ele>
        <time>2019-02-03T23:20:48.124Z</time>
      </trkpt>
      <trkpt lat="46.7804" lon="-0.19023">
        <ele>117.1</ele>
        <time>2019-02-03T23:20:49.166Z</time>
      </trkpt>
      <trkpt lat="46.78073" lon="-0.1903">
        <ele>117.1</ele>
        <time>2019-02-03T23:20:49.834Z</time>
      </trkpt>
      <trkpt lat="46.7812" lon="-0.19042">
        <ele>117.7</ele>
        <time>2019-02-03T23:20:50.790Z</time>
      </trkpt>
      <trkpt lat="46.78159" lon="-0.19051">
        <ele>118.6</ele>
        <time>2019-02-03T23:20:51.581Z</time>
      </trkpt>
      <trkpt lat="46.78175" lon="-0.19057">
        <ele>119.1</ele>
        <time>2019-02-03T23:20:51.912Z</time>
      </trkpt>
      <trkpt lat="46.78192" lon="-0.19063">
        <ele>119.3</ele>
        <time>2019-02-03T23:20:52.262Z</time>
      </trkpt>
      <trkpt lat="46.78203" lon="-0.19063">
        <ele>119.3</ele>
        <time>2019-02-03T23:20:52.482Z</time>
      </trkpt>
      <trkpt lat="46.78221" lon="-0.19057">
        <ele>119.1</ele>
        <time>2019-02-03T23:20:52.852Z</time>
      </trkpt>
      <trkpt lat="46.78241" lon="-0.1905">
        <ele>120.2</ele>
        <time>2019-02-03T23:20:53.264Z</time>
      </trkpt>
      <trkpt lat="46.78254" lon="-0.1905">
        <ele>121.5</ele>
        <time>2019-02-03T23:20:53.525Z</time>
      </trkpt>
      <trkpt lat="46.7827" lon="-0.1906">
        <ele>123.8</ele>
        <time>2019-02-03T23:20:53.874Z</time>
      </trkpt>
      <trkpt lat="46.78339" lon="-0.19108">
        <ele>130.1</ele>
        <time>2019-02-03T23:20:55.406Z</time>
      </trkpt>
      <trkpt lat="46.78337" lon="-0.19115">
        <ele>130.3</ele>
        <time>2019-02-03T23:20:55.510Z</time>
      </trkpt>
      <trkpt lat="46.78359" lon="-0.19127">
        <ele>131.5</ele>
        <time>2019-02-03T23:20:55.981Z</time>
      </trkpt>
      <trkpt lat="46.78402" lon="-0.19169">
        <ele>136.6</ele>
        <time>2019-02-03T23:20:57.018Z</time>
      </trkpt>
      <trkpt lat="46.78451" lon="-0.19222">
        <ele>142.2</ele>
        <time>2019-02-03T23:20:58.240Z</time>
      </trkpt>
      <trkpt lat="46.7846" lon="-0.19231">
        <ele>142.9</ele>
        <time>2019-02-03T23:20:58.459Z</time>
      </trkpt>
      <trkpt lat="46.78472" lon="-0.19236">
        <ele>143.5</ele>
        <time>2019-02-03T23:20:58.709Z</time>
      </trkpt>
      <trkpt lat="46.78481" lon="-0.19237">
        <ele>143.8</ele>
        <time>2019-02-03T23:20:58.890Z</time>
      </trkpt>
      <trkpt lat="46.78486" lon="-0.19236">
        <ele>144</ele>
        <time>2019-02-03T23:20:58.991Z</time>
      </trkpt>
      <trkpt lat="46.78535" lon="-0.19207">
        <ele>145.6</ele>
        <time>2019-02-03T23:21:00.050Z</time>
      </trkpt>
      <trkpt lat="46.78534" lon="-0.19198">
        <ele>145.3</ele>
        <time>2019-02-03T23:21:00.175Z</time>
      </trkpt>
      <trkpt lat="46.78532" lon="-0.19173">
        <ele>144.4</ele>
        <time>2019-02-03T23:21:00.520Z</time>
      </trkpt>
      <trkpt lat="46.78534" lon="-0.19152">
        <ele>143.7</ele>
        <time>2019-02-03T23:21:00.811Z</time>
      </trkpt>
      <trkpt lat="46.78543" lon="-0.19135">
        <ele>143.4</ele>
        <time>2019-02-03T23:21:01.106Z</time>
      </trkpt>
      <trkpt lat="46.78604" lon="-0.19076">
        <ele>143.5</ele>
        <time>2019-02-03T23:21:02.572Z</time>
      </trkpt>
      <trkpt lat="46.78707" lon="-0.18983">
        <ele>144.7</ele>
        <time>2019-02-03T23:21:04.999Z</time>
      </trkpt>
      <trkpt lat="46.7873" lon="-0.18961">
        <ele>144.7</ele>
        <time>2019-02-03T23:21:05.550Z</time>
      </trkpt>
      <trkpt lat="46.78732" lon="-0.18958">
        <ele>144.7</ele>
        <time>2019-02-03T23:21:05.607Z</time>
      </trkpt>
      <trkpt lat="46.78741" lon="-0.18974">
        <ele>145</ele>
        <time>2019-02-03T23:21:05.891Z</time>
      </trkpt>
      <trkpt lat="46.78764" lon="-0.19012">
        <ele>145.2</ele>
        <time>2019-02-03T23:21:06.587Z</time>
      </trkpt>
      <trkpt lat="46.78773" lon="-0.19028">
        <ele>145.2</ele>
        <time>2019-02-03T23:21:06.871Z</time>
      </trkpt>
      <trkpt lat="46.78774" lon="-0.19031">
        <ele>145.1</ele>
        <time>2019-02-03T23:21:06.917Z</time>
      </trkpt>
      <trkpt lat="46.78776" lon="-0.19025">
        <ele>145.1</ele>
        <time>2019-02-03T23:21:07.009Z</time>
      </trkpt>
      <trkpt lat="46.7878" lon="-0.19017">
        <ele>145</ele>
        <time>2019-02-03T23:21:07.145Z</time>
      </trkpt>
      <trkpt lat="46.78786" lon="-0.1901">
        <ele>145</ele>
        <time>2019-02-03T23:21:07.299Z</time>
      </trkpt>
      <trkpt lat="46.78815" lon="-0.18987">
        <ele>145</ele>
        <time>2019-02-03T23:21:07.960Z</time>
      </trkpt>
      <trkpt lat="46.78818" lon="-0.18982">
        <ele>145</ele>
        <time>2019-02-03T23:21:08.051Z</time>
      </trkpt>
      <trkpt lat="46.78824" lon="-0.18973">
        <ele>145</ele>
        <time>2019-02-03T23:21:08.223Z</time>
      </trkpt>
      <trkpt lat="46.78829" lon="-0.18957">
        <ele>144.5</ele>
        <time>2019-02-03T23:21:08.464Z</time>
      </trkpt>
      <trkpt lat="46.78832" lon="-0.18941">
        <ele>144</ele>
        <time>2019-02-03T23:21:08.692Z</time>
      </trkpt>
      <trkpt lat="46.78832" lon="-0.18921">
        <ele>144</ele>
        <time>2019-02-03T23:21:08.966Z</time>
      </trkpt>
      <trkpt lat="46.78832" lon="-0.18889">
        <ele>144</ele>
        <time>2019-02-03T23:21:09.405Z</time>
      </trkpt>
      <trkpt lat="46.78839" lon="-0.18871">
        <ele>144</ele>
        <time>2019-02-03T23:21:09.689Z</time>
      </trkpt>
      <trkpt lat="46.78862" lon="-0.18832">
        <ele>143</ele>
        <time>2019-02-03T23:21:10.395Z</time>
      </trkpt>
      <trkpt lat="46.78893" lon="-0.18794">
        <ele>142.9</ele>
        <time>2019-02-03T23:21:11.206Z</time>
      </trkpt>
      <trkpt lat="46.78905" lon="-0.18778">
        <ele>142.4</ele>
        <time>2019-02-03T23:21:11.532Z</time>
      </trkpt>
      <trkpt lat="46.78912" lon="-0.18771">
        <ele>142.1</ele>
        <time>2019-02-03T23:21:11.702Z</time>
      </trkpt>
      <trkpt lat="46.78971" lon="-0.18743">
        <ele>141</ele>
        <time>2019-02-03T23:21:12.945Z</time>
      </trkpt>
      <trkpt lat="46.7899" lon="-0.18745">
        <ele>140.4</ele>
        <time>2019-02-03T23:21:13.327Z</time>
      </trkpt>
      <trkpt lat="46.79016" lon="-0.18738">
        <ele>140</ele>
        <time>2019-02-03T23:21:13.857Z</time>
      </trkpt>
      <trkpt lat="46.79038" lon="-0.18729">
        <ele>139.7</ele>
        <time>2019-02-03T23:21:14.315Z</time>
      </trkpt>
      <trkpt lat="46.79046" lon="-0.18726">
        <ele>139.4</ele>
        <time>2019-02-03T23:21:14.481Z</time>
      </trkpt>
      <trkpt lat="46.79049" lon="-0.18731">
        <ele>139.5</ele>
        <time>2019-02-03T23:21:14.572Z</time>
      </trkpt>
      <trkpt lat="46.79054" lon="-0.18747">
        <ele>139.9</ele>
        <time>2019-02-03T23:21:14.813Z</time>
      </trkpt>
      <trkpt lat="46.7906" lon="-0.18768">
        <ele>140.6</ele>
        <time>2019-02-03T23:21:15.125Z</time>
      </trkpt>
      <trkpt lat="46.79063" lon="-0.18785">
        <ele>141</ele>
        <time>2019-02-03T23:21:15.366Z</time>
      </trkpt>
      <trkpt lat="46.79064" lon="-0.18794">
        <ele>141</ele>
        <time>2019-02-03T23:21:15.491Z</time>
      </trkpt>
      <trkpt lat="46.79068" lon="-0.18799">
        <ele>141</ele>
        <time>2019-02-03T23:21:15.597Z</time>
      </trkpt>
      <trkpt lat="46.79072" lon="-0.18804">
        <ele>141</ele>
        <time>2019-02-03T23:21:15.703Z</time>
      </trkpt>
      <trkpt lat="46.79078" lon="-0.18806">
        <ele>141</ele>
        <time>2019-02-03T23:21:15.826Z</time>
      </trkpt>
      <trkpt lat="46.79106" lon="-0.18802">
        <ele>141.7</ele>
        <time>2019-02-03T23:21:16.390Z</time>
      </trkpt>
      <trkpt lat="46.79116" lon="-0.18802">
        <ele>142</ele>
        <time>2019-02-03T23:21:16.590Z</time>
      </trkpt>
      <trkpt lat="46.79122" lon="-0.18805">
        <ele>142.4</ele>
        <time>2019-02-03T23:21:16.717Z</time>
      </trkpt>
      <trkpt lat="46.79158" lon="-0.18854">
        <ele>142.8</ele>
        <time>2019-02-03T23:21:17.703Z</time>
      </trkpt>
      <trkpt lat="46.79175" lon="-0.18876">
        <ele>142.6</ele>
        <time>2019-02-03T23:21:18.158Z</time>
      </trkpt>
      <trkpt lat="46.79193" lon="-0.18892">
        <ele>142.8</ele>
        <time>2019-02-03T23:21:18.580Z</time>
      </trkpt>
      <trkpt lat="46.79208" lon="-0.18902">
        <ele>142.5</ele>
        <time>2019-02-03T23:21:18.910Z</time>
      </trkpt>
      <trkpt lat="46.79215" lon="-0.1891">
        <ele>142.2</ele>
        <time>2019-02-03T23:21:19.088Z</time>
      </trkpt>
      <trkpt lat="46.79246" lon="-0.18929">
        <ele>141.6</ele>
        <time>2019-02-03T23:21:19.762Z</time>
      </trkpt>
      <trkpt lat="46.79275" lon="-0.1894">
        <ele>141.2</ele>
        <time>2019-02-03T23:21:20.362Z</time>
      </trkpt>
      <trkpt lat="46.79302" lon="-0.18942">
        <ele>141.1</ele>
        <time>2019-02-03T23:21:20.904Z</time>
      </trkpt>
      <trkpt lat="46.79327" lon="-0.18932">
        <ele>140.7</ele>
        <time>2019-02-03T23:21:21.423Z</time>
      </trkpt>
      <trkpt lat="46.79356" lon="-0.18917">
        <ele>139.4</ele>
        <time>2019-02-03T23:21:22.039Z</time>
      </trkpt>
      <trkpt lat="46.79377" lon="-0.18905">
        <ele>138.5</ele>
        <time>2019-02-03T23:21:22.491Z</time>
      </trkpt>
      <trkpt lat="46.79419" lon="-0.18889">
        <ele>135.8</ele>
        <time>2019-02-03T23:21:23.361Z</time>
      </trkpt>
      <trkpt lat="46.79451" lon="-0.18881">
        <ele>133.7</ele>
        <time>2019-02-03T23:21:24.012Z</time>
      </trkpt>
      <trkpt lat="46.79474" lon="-0.18883">
        <ele>131.9</ele>
        <time>2019-02-03T23:21:24.474Z</time>
      </trkpt>
      <trkpt lat="46.79493" lon="-0.18891">
        <ele>130.4</ele>
        <time>2019-02-03T23:21:24.870Z</time>
      </trkpt>
      <trkpt lat="46.79508" lon="-0.18901">
        <ele>129</ele>
        <time>2019-02-03T23:21:25.200Z</time>
      </trkpt>
      <trkpt lat="46.7951" lon="-0.18908">
        <ele>128.6</ele>
        <time>2019-02-03T23:21:25.304Z</time>
      </trkpt>
      <trkpt lat="46.79531" lon="-0.18942">
        <ele>125.9</ele>
        <time>2019-02-03T23:21:25.932Z</time>
      </trkpt>
      <trkpt lat="46.79541" lon="-0.18961">
        <ele>124.5</ele>
        <time>2019-02-03T23:21:26.261Z</time>
      </trkpt>
      <trkpt lat="46.79566" lon="-0.18995">
        <ele>121.4</ele>
        <time>2019-02-03T23:21:26.946Z</time>
      </trkpt>
      <trkpt lat="46.79591" lon="-0.19019">
        <ele>118.8</ele>
        <time>2019-02-03T23:21:27.545Z</time>
      </trkpt>
      <trkpt lat="46.79614" lon="-0.19036">
        <ele>117</ele>
        <time>2019-02-03T23:21:28.062Z</time>
      </trkpt>
      <trkpt lat="46.7963" lon="-0.19053">
        <ele>117</ele>
        <time>2019-02-03T23:21:28.458Z</time>
      </trkpt>
      <trkpt lat="46.79633" lon="-0.19059">
        <ele>117.1</ele>
        <time>2019-02-03T23:21:28.560Z</time>
      </trkpt>
      <trkpt lat="46.79639" lon="-0.19061">
        <ele>117.2</ele>
        <time>2019-02-03T23:21:28.683Z</time>
      </trkpt>
      <trkpt lat="46.79645" lon="-0.19062">
        <ele>117.5</ele>
        <time>2019-02-03T23:21:28.804Z</time>
      </trkpt>
      <trkpt lat="46.79666" lon="-0.19011">
        <ele>117</ele>
        <time>2019-02-03T23:21:29.620Z</time>
      </trkpt>
      <trkpt lat="46.79728" lon="-0.18866">
        <ele>115.4</ele>
        <time>2019-02-03T23:21:31.965Z</time>
      </trkpt>
      <trkpt lat="46.7974" lon="-0.18842">
        <ele>114.5</ele>
        <time>2019-02-03T23:21:32.373Z</time>
      </trkpt>
      <trkpt lat="46.79774" lon="-0.18792">
        <ele>114.5</ele>
        <time>2019-02-03T23:21:33.340Z</time>
      </trkpt>
      <trkpt lat="46.79816" lon="-0.18743">
        <ele>113.1</ele>
        <time>2019-02-03T23:21:34.417Z</time>
      </trkpt>
      <trkpt lat="46.79859" lon="-0.1869">
        <ele>111.4</ele>
        <time>2019-02-03T23:21:35.544Z</time>
      </trkpt>
      <trkpt lat="46.79873" lon="-0.18672">
        <ele>111.1</ele>
        <time>2019-02-03T23:21:35.918Z</time>
      </trkpt>
      <trkpt lat="46.79919" lon="-0.18607">
        <ele>109.8</ele>
        <time>2019-02-03T23:21:37.201Z</time>
      </trkpt>
      <trkpt lat="46.79938" lon="-0.18586">
        <ele>109</ele>
        <time>2019-02-03T23:21:37.678Z</time>
      </trkpt>
      <trkpt lat="46.79973" lon="-0.18549">
        <ele>107</ele>
        <time>2019-02-03T23:21:38.544Z</time>
      </trkpt>
      <trkpt lat="46.79998" lon="-0.18505">
        <ele>106</ele>
        <time>2019-02-03T23:21:39.328Z</time>
      </trkpt>
      <trkpt lat="46.80019" lon="-0.18476">
        <ele>106.2</ele>
        <time>2019-02-03T23:21:39.907Z</time>
      </trkpt>
      <trkpt lat="46.80023" lon="-0.18474">
        <ele>106.6</ele>
        <time>2019-02-03T23:21:39.992Z</time>
      </trkpt>
      <trkpt lat="46.80038" lon="-0.18447">
        <ele>105.4</ele>
        <time>2019-02-03T23:21:40.469Z</time>
      </trkpt>
      <trkpt lat="46.8005" lon="-0.1842">
        <ele>104.8</ele>
        <time>2019-02-03T23:21:40.911Z</time>
      </trkpt>
      <trkpt lat="46.80058" lon="-0.18406">
        <ele>104.5</ele>
        <time>2019-02-03T23:21:41.161Z</time>
      </trkpt>
      <trkpt lat="46.80086" lon="-0.18369">
        <ele>104.1</ele>
        <time>2019-02-03T23:21:41.918Z</time>
      </trkpt>
      <trkpt lat="46.80093" lon="-0.18356">
        <ele>104.4</ele>
        <time>2019-02-03T23:21:42.145Z</time>
      </trkpt>
      <trkpt lat="46.80105" lon="-0.18321">
        <ele>102.9</ele>
        <time>2019-02-03T23:21:42.682Z</time>
      </trkpt>
      <trkpt lat="46.80124" lon="-0.18251">
        <ele>101.5</ele>
        <time>2019-02-03T23:21:43.715Z</time>
      </trkpt>
      <trkpt lat="46.80142" lon="-0.18188">
        <ele>100.3</ele>
        <time>2019-02-03T23:21:44.651Z</time>
      </trkpt>
      <trkpt lat="46.80153" lon="-0.1816">
        <ele>100</ele>
        <time>2019-02-03T23:21:45.094Z</time>
      </trkpt>
      <trkpt lat="46.80162" lon="-0.18139">
        <ele>100</ele>
        <time>2019-02-03T23:21:45.434Z</time>
      </trkpt>
      <trkpt lat="46.80176" lon="-0.18083">
        <ele>100</ele>
        <time>2019-02-03T23:21:46.252Z</time>
      </trkpt>
      <trkpt lat="46.80193" lon="-0.17973">
        <ele>98</ele>
        <time>2019-02-03T23:21:47.799Z</time>
      </trkpt>
      <trkpt lat="46.80201" lon="-0.17948">
        <ele>98.5</ele>
        <time>2019-02-03T23:21:48.178Z</time>
      </trkpt>
      <trkpt lat="46.80223" lon="-0.17904">
        <ele>98.2</ele>
        <time>2019-02-03T23:21:48.925Z</time>
      </trkpt>
      <trkpt lat="46.80251" lon="-0.17862">
        <ele>98.1</ele>
        <time>2019-02-03T23:21:49.729Z</time>
      </trkpt>
      <trkpt lat="46.8026" lon="-0.17844">
        <ele>98.1</ele>
        <time>2019-02-03T23:21:50.035Z</time>
      </trkpt>
      <trkpt lat="46.80264" lon="-0.17823">
        <ele>97.8</ele>
        <time>2019-02-03T23:21:50.334Z</time>
      </trkpt>
      <trkpt lat="46.8027" lon="-0.17788">
        <ele>97.1</ele>
        <time>2019-02-03T23:21:50.829Z</time>
      </trkpt>
      <trkpt lat="46.8027" lon="-0.17788">
        <ele>97.1</ele>
        <time>2019-02-03T23:21:50.834Z</time>
      </trkpt>
      <trkpt lat="46.80271" lon="-0.17778">
        <ele>96.8</ele>
        <time>2019-02-03T23:21:50.975Z</time>
      </trkpt>
      <trkpt lat="46.80274" lon="-0.17763">
        <ele>96.4</ele>
        <time>2019-02-03T23:21:51.189Z</time>
      </trkpt>
      <trkpt lat="46.80277" lon="-0.17747">
        <ele>96</ele>
        <time>2019-02-03T23:21:51.417Z</time>
      </trkpt>
      <trkpt lat="46.80286" lon="-0.17727">
        <ele>96.3</ele>
        <time>2019-02-03T23:21:51.745Z</time>
      </trkpt>
      <trkpt lat="46.80323" lon="-0.17678">
        <ele>96</ele>
        <time>2019-02-03T23:21:52.746Z</time>
      </trkpt>
      <trkpt lat="46.80334" lon="-0.17666">
        <ele>96</ele>
        <time>2019-02-03T23:21:53.021Z</time>
      </trkpt>
      <trkpt lat="46.80335" lon="-0.17592">
        <ele>96.3</ele>
        <time>2019-02-03T23:21:54.036Z</time>
      </trkpt>
      <trkpt lat="46.80335" lon="-0.17555">
        <ele>95.4</ele>
        <time>2019-02-03T23:21:54.544Z</time>
      </trkpt>
      <trkpt lat="46.80352" lon="-0.1749">
        <ele>95.1</ele>
        <time>2019-02-03T23:21:55.498Z</time>
      </trkpt>
      <trkpt lat="46.80358" lon="-0.17445">
        <ele>94</ele>
        <time>2019-02-03T23:21:56.127Z</time>
      </trkpt>
      <trkpt lat="46.8036" lon="-0.17391">
        <ele>93.1</ele>
        <time>2019-02-03T23:21:56.869Z</time>
      </trkpt>
      <trkpt lat="46.80347" lon="-0.17261">
        <ele>93.3</ele>
        <time>2019-02-03T23:21:58.671Z</time>
      </trkpt>
      <trkpt lat="46.80327" lon="-0.17109">
        <ele>93.5</ele>
        <time>2019-02-03T23:22:00.794Z</time>
      </trkpt>
      <trkpt lat="46.80323" lon="-0.17091">
        <ele>94.2</ele>
        <time>2019-02-03T23:22:01.054Z</time>
      </trkpt>
      <trkpt lat="46.80316" lon="-0.17074">
        <ele>94.3</ele>
        <time>2019-02-03T23:22:01.326Z</time>
      </trkpt>
      <trkpt lat="46.80239" lon="-0.16977">
        <ele>91.1</ele>
        <time>2019-02-03T23:22:03.363Z</time>
      </trkpt>
      <trkpt lat="46.80204" lon="-0.16927">
        <ele>91.1</ele>
        <time>2019-02-03T23:22:04.344Z</time>
      </trkpt>
      <trkpt lat="46.80165" lon="-0.16864">
        <ele>89.9</ele>
        <time>2019-02-03T23:22:05.509Z</time>
      </trkpt>
      <trkpt lat="46.80158" lon="-0.16853">
        <ele>90.3</ele>
        <time>2019-02-03T23:22:05.715Z</time>
      </trkpt>
      <trkpt lat="46.80137" lon="-0.16847">
        <ele>88.4</ele>
        <time>2019-02-03T23:22:06.144Z</time>
      </trkpt>
      <trkpt lat="46.80125" lon="-0.16839">
        <ele>87.5</ele>
        <time>2019-02-03T23:22:06.408Z</time>
      </trkpt>
      <trkpt lat="46.80114" lon="-0.16825">
        <ele>87</ele>
        <time>2019-02-03T23:22:06.700Z</time>
      </trkpt>
      <trkpt lat="46.8009" lon="-0.16795">
        <ele>87.4</ele>
        <time>2019-02-03T23:22:07.333Z</time>
      </trkpt>
      <trkpt lat="46.80072" lon="-0.16772">
        <ele>87.8</ele>
        <time>2019-02-03T23:22:07.812Z</time>
      </trkpt>
      <trkpt lat="46.8006" lon="-0.16767">
        <ele>87.2</ele>
        <time>2019-02-03T23:22:08.062Z</time>
      </trkpt>
      <trkpt lat="46.80046" lon="-0.16759">
        <ele>86.7</ele>
        <time>2019-02-03T23:22:08.363Z</time>
      </trkpt>
      <trkpt lat="46.80041" lon="-0.16751">
        <ele>86.4</ele>
        <time>2019-02-03T23:22:08.512Z</time>
      </trkpt>
      <trkpt lat="46.80032" lon="-0.16724">
        <ele>85.6</ele>
        <time>2019-02-03T23:22:08.924Z</time>
      </trkpt>
      <trkpt lat="46.8002" lon="-0.16685">
        <ele>85</ele>
        <time>2019-02-03T23:22:09.511Z</time>
      </trkpt>
      <trkpt lat="46.8002" lon="-0.16677">
        <ele>85.2</ele>
        <time>2019-02-03T23:22:09.621Z</time>
      </trkpt>
      <trkpt lat="46.80026" lon="-0.16645">
        <ele>85.1</ele>
        <time>2019-02-03T23:22:10.076Z</time>
      </trkpt>
      <trkpt lat="46.80031" lon="-0.16627">
        <ele>85.2</ele>
        <time>2019-02-03T23:22:10.342Z</time>
      </trkpt>
      <trkpt lat="46.80035" lon="-0.16601">
        <ele>85.4</ele>
        <time>2019-02-03T23:22:10.708Z</time>
      </trkpt>
      <trkpt lat="46.80036" lon="-0.16587">
        <ele>85.6</ele>
        <time>2019-02-03T23:22:10.901Z</time>
      </trkpt>
      <trkpt lat="46.80032" lon="-0.16579">
        <ele>85.6</ele>
        <time>2019-02-03T23:22:11.037Z</time>
      </trkpt>
      <trkpt lat="46.80018" lon="-0.16529">
        <ele>86.2</ele>
        <time>2019-02-03T23:22:11.778Z</time>
      </trkpt>
      <trkpt lat="46.8001" lon="-0.16471">
        <ele>84.4</ele>
        <time>2019-02-03T23:22:12.590Z</time>
      </trkpt>
      <trkpt lat="46.80006" lon="-0.1644">
        <ele>83.6</ele>
        <time>2019-02-03T23:22:13.023Z</time>
      </trkpt>
      <trkpt lat="46.79995" lon="-0.16431">
        <ele>82.8</ele>
        <time>2019-02-03T23:22:13.276Z</time>
      </trkpt>
      <trkpt lat="46.7999" lon="-0.16422">
        <ele>82.6</ele>
        <time>2019-02-03T23:22:13.435Z</time>
      </trkpt>
      <trkpt lat="46.79986" lon="-0.16412">
        <ele>82.4</ele>
        <time>2019-02-03T23:22:13.594Z</time>
      </trkpt>
      <trkpt lat="46.79985" lon="-0.16399">
        <ele>82.2</ele>
        <time>2019-02-03T23:22:13.773Z</time>
      </trkpt>
      <trkpt lat="46.79976" lon="-0.16378">
        <ele>82</ele>
        <time>2019-02-03T23:22:14.113Z</time>
      </trkpt>
      <trkpt lat="46.8002" lon="-0.16278">
        <ele>83.1</ele>
        <time>2019-02-03T23:22:15.745Z</time>
      </trkpt>
      <trkpt lat="46.80023" lon="-0.16269">
        <ele>83.3</ele>
        <time>2019-02-03T23:22:15.886Z</time>
      </trkpt>
      <trkpt lat="46.80029" lon="-0.16256">
        <ele>83.4</ele>
        <time>2019-02-03T23:22:16.095Z</time>
      </trkpt>
      <trkpt lat="46.80093" lon="-0.16121">
        <ele>87.5</ele>
        <time>2019-02-03T23:22:18.348Z</time>
      </trkpt>
      <trkpt lat="46.80104" lon="-0.161">
        <ele>87.5</ele>
        <time>2019-02-03T23:22:18.711Z</time>
      </trkpt>
      <trkpt lat="46.80108" lon="-0.16094">
        <ele>87.8</ele>
        <time>2019-02-03T23:22:18.826Z</time>
      </trkpt>
      <trkpt lat="46.80106" lon="-0.16085">
        <ele>87.5</ele>
        <time>2019-02-03T23:22:18.956Z</time>
      </trkpt>
      <trkpt lat="46.80098" lon="-0.16061">
        <ele>86.2</ele>
        <time>2019-02-03T23:22:19.322Z</time>
      </trkpt>
      <trkpt lat="46.80092" lon="-0.16033">
        <ele>84.2</ele>
        <time>2019-02-03T23:22:19.724Z</time>
      </trkpt>
      <trkpt lat="46.80092" lon="-0.16018">
        <ele>83.3</ele>
        <time>2019-02-03T23:22:19.930Z</time>
      </trkpt>
      <trkpt lat="46.80095" lon="-0.16008">
        <ele>82.7</ele>
        <time>2019-02-03T23:22:20.080Z</time>
      </trkpt>
      <trkpt lat="46.80108" lon="-0.15973">
        <ele>80.9</ele>
        <time>2019-02-03T23:22:20.626Z</time>
      </trkpt>
      <trkpt lat="46.80118" lon="-0.15946">
        <ele>81.8</ele>
        <time>2019-02-03T23:22:21.047Z</time>
      </trkpt>
      <trkpt lat="46.80123" lon="-0.15914">
        <ele>81.3</ele>
        <time>2019-02-03T23:22:21.498Z</time>
      </trkpt>
      <trkpt lat="46.80124" lon="-0.15914">
        <ele>81.3</ele>
        <time>2019-02-03T23:22:21.508Z</time>
      </trkpt>
      <trkpt lat="46.80145" lon="-0.15782">
        <ele>80.3</ele>
        <time>2019-02-03T23:22:23.367Z</time>
      </trkpt>
      <trkpt lat="46.80149" lon="-0.15759">
        <ele>79.9</ele>
        <time>2019-02-03T23:22:23.693Z</time>
      </trkpt>
      <trkpt lat="46.80149" lon="-0.15692">
        <ele>80.1</ele>
        <time>2019-02-03T23:22:24.612Z</time>
      </trkpt>
      <trkpt lat="46.80147" lon="-0.15526">
        <ele>83.2</ele>
        <time>2019-02-03T23:22:26.889Z</time>
      </trkpt>
      <trkpt lat="46.80144" lon="-0.1549">
        <ele>83.3</ele>
        <time>2019-02-03T23:22:27.386Z</time>
      </trkpt>
      <trkpt lat="46.80137" lon="-0.15443">
        <ele>81.8</ele>
        <time>2019-02-03T23:22:28.046Z</time>
      </trkpt>
      <trkpt lat="46.80123" lon="-0.1533">
        <ele>81.9</ele>
        <time>2019-02-03T23:22:29.621Z</time>
      </trkpt>
      <trkpt lat="46.80121" lon="-0.15304">
        <ele>82</ele>
        <time>2019-02-03T23:22:29.980Z</time>
      </trkpt>
      <trkpt lat="46.80121" lon="-0.15267">
        <ele>81.5</ele>
        <time>2019-02-03T23:22:30.488Z</time>
      </trkpt>
      <trkpt lat="46.80132" lon="-0.15129">
        <ele>80.7</ele>
        <time>2019-02-03T23:22:32.394Z</time>
      </trkpt>
      <trkpt lat="46.80147" lon="-0.14996">
        <ele>79.9</ele>
        <time>2019-02-03T23:22:34.243Z</time>
      </trkpt>
      <trkpt lat="46.80151" lon="-0.14984">
        <ele>79.7</ele>
        <time>2019-02-03T23:22:34.426Z</time>
      </trkpt>
      <trkpt lat="46.8015" lon="-0.1498">
        <ele>79.6</ele>
        <time>2019-02-03T23:22:34.484Z</time>
      </trkpt>
      <trkpt lat="46.80151" lon="-0.14969">
        <ele>79.4</ele>
        <time>2019-02-03T23:22:34.636Z</time>
      </trkpt>
      <trkpt lat="46.80157" lon="-0.14962">
        <ele>79.5</ele>
        <time>2019-02-03T23:22:34.790Z</time>
      </trkpt>
      <trkpt lat="46.8016" lon="-0.14961">
        <ele>79.7</ele>
        <time>2019-02-03T23:22:34.852Z</time>
      </trkpt>
      <trkpt lat="46.80161" lon="-0.14947">
        <ele>79.6</ele>
        <time>2019-02-03T23:22:35.045Z</time>
      </trkpt>
      <trkpt lat="46.8016" lon="-0.14933">
        <ele>79.2</ele>
        <time>2019-02-03T23:22:35.238Z</time>
      </trkpt>
      <trkpt lat="46.80155" lon="-0.14908">
        <ele>78.1</ele>
        <time>2019-02-03T23:22:35.595Z</time>
      </trkpt>
      <trkpt lat="46.80131" lon="-0.14839">
        <ele>81.6</ele>
        <time>2019-02-03T23:22:36.657Z</time>
      </trkpt>
      <trkpt lat="46.80127" lon="-0.14826">
        <ele>83.3</ele>
        <time>2019-02-03T23:22:36.853Z</time>
      </trkpt>
      <trkpt lat="46.80115" lon="-0.14835">
        <ele>81.9</ele>
        <time>2019-02-03T23:22:37.123Z</time>
      </trkpt>
      <trkpt lat="46.80104" lon="-0.14844">
        <ele>80.4</ele>
        <time>2019-02-03T23:22:37.376Z</time>
      </trkpt>
      <trkpt lat="46.80076" lon="-0.14876">
        <ele>79</ele>
        <time>2019-02-03T23:22:38.088Z</time>
      </trkpt>
      <trkpt lat="46.80057" lon="-0.14894">
        <ele>78.2</ele>
        <time>2019-02-03T23:22:38.542Z</time>
      </trkpt>
      <trkpt lat="46.80043" lon="-0.14917">
        <ele>79.9</ele>
        <time>2019-02-03T23:22:38.964Z</time>
      </trkpt>
      <trkpt lat="46.80044" lon="-0.1492">
        <ele>79.8</ele>
        <time>2019-02-03T23:22:39.010Z</time>
      </trkpt>
      <trkpt lat="46.80046" lon="-0.14926">
        <ele>79.6</ele>
        <time>2019-02-03T23:22:39.102Z</time>
      </trkpt>
      <trkpt lat="46.80046" lon="-0.14945">
        <ele>79.4</ele>
        <time>2019-02-03T23:22:39.363Z</time>
      </trkpt>
      <trkpt lat="46.80044" lon="-0.14964">
        <ele>80.4</ele>
        <time>2019-02-03T23:22:39.627Z</time>
      </trkpt>
      <trkpt lat="46.80038" lon="-0.14985">
        <ele>81.1</ele>
        <time>2019-02-03T23:22:39.939Z</time>
      </trkpt>
      <trkpt lat="46.80012" lon="-0.15036">
        <ele>84.1</ele>
        <time>2019-02-03T23:22:40.811Z</time>
      </trkpt>
      <trkpt lat="46.79961" lon="-0.15128">
        <ele>84.6</ele>
        <time>2019-02-03T23:22:42.435Z</time>
      </trkpt>
      <trkpt lat="46.79945" lon="-0.15152">
        <ele>84</ele>
        <time>2019-02-03T23:22:42.895Z</time>
      </trkpt>
      <trkpt lat="46.79935" lon="-0.15174">
        <ele>83.9</ele>
        <time>2019-02-03T23:22:43.257Z</time>
      </trkpt>
      <trkpt lat="46.79919" lon="-0.15214">
        <ele>85.4</ele>
        <time>2019-02-03T23:22:43.893Z</time>
      </trkpt>
      <trkpt lat="46.79852" lon="-0.15339">
        <ele>85.7</ele>
        <time>2019-02-03T23:22:46.071Z</time>
      </trkpt>
      <trkpt lat="46.79841" lon="-0.15373">
        <ele>86.3</ele>
        <time>2019-02-03T23:22:46.587Z</time>
      </trkpt>
      <trkpt lat="46.79831" lon="-0.15449">
        <ele>87.1</ele>
        <time>2019-02-03T23:22:47.649Z</time>
      </trkpt>
      <trkpt lat="46.79823" lon="-0.15492">
        <ele>86.9</ele>
        <time>2019-02-03T23:22:48.260Z</time>
      </trkpt>
      <trkpt lat="46.79816" lon="-0.1553">
        <ele>86.1</ele>
        <time>2019-02-03T23:22:48.800Z</time>
      </trkpt>
      <trkpt lat="46.79786" lon="-0.1553">
        <ele>88.3</ele>
        <time>2019-02-03T23:22:49.401Z</time>
      </trkpt>
      <trkpt lat="46.79753" lon="-0.15533">
        <ele>88.2</ele>
        <time>2019-02-03T23:22:50.064Z</time>
      </trkpt>
      <trkpt lat="46.7975" lon="-0.15506">
        <ele>88.8</ele>
        <time>2019-02-03T23:22:50.439Z</time>
      </trkpt>
      <trkpt lat="46.79746" lon="-0.15492">
        <ele>89</ele>
        <time>2019-02-03T23:22:50.647Z</time>
      </trkpt>
      <trkpt lat="46.79741" lon="-0.15483">
        <ele>89.2</ele>
        <time>2019-02-03T23:22:50.806Z</time>
      </trkpt>
      <trkpt lat="46.79727" lon="-0.1547">
        <ele>89.9</ele>
        <time>2019-02-03T23:22:51.138Z</time>
      </trkpt>
      <trkpt lat="46.79662" lon="-0.1544">
        <ele>93.5</ele>
        <time>2019-02-03T23:22:52.504Z</time>
      </trkpt>
      <trkpt lat="46.79639" lon="-0.15424">
        <ele>95.7</ele>
        <time>2019-02-03T23:22:53.015Z</time>
      </trkpt>
      <trkpt lat="46.79582" lon="-0.15383">
        <ele>100.3</ele>
        <time>2019-02-03T23:22:54.288Z</time>
      </trkpt>
      <trkpt lat="46.79544" lon="-0.15357">
        <ele>103.6</ele>
        <time>2019-02-03T23:22:55.129Z</time>
      </trkpt>
      <trkpt lat="46.79528" lon="-0.15349">
        <ele>104.9</ele>
        <time>2019-02-03T23:22:55.468Z</time>
      </trkpt>
      <trkpt lat="46.79484" lon="-0.15338">
        <ele>108.8</ele>
        <time>2019-02-03T23:22:56.363Z</time>
      </trkpt>
      <trkpt lat="46.79358" lon="-0.15328">
        <ele>114.5</ele>
        <time>2019-02-03T23:22:58.892Z</time>
      </trkpt>
      <trkpt lat="46.79254" lon="-0.15343">
        <ele>118.5</ele>
        <time>2019-02-03T23:23:00.986Z</time>
      </trkpt>
      <trkpt lat="46.79227" lon="-0.15348">
        <ele>119.3</ele>
        <time>2019-02-03T23:23:01.531Z</time>
      </trkpt>
      <trkpt lat="46.79217" lon="-0.15353">
        <ele>119.5</ele>
        <time>2019-02-03T23:23:01.743Z</time>
      </trkpt>
      <trkpt lat="46.79189" lon="-0.15365">
        <ele>120.2</ele>
        <time>2019-02-03T23:23:02.328Z</time>
      </trkpt>
      <trkpt lat="46.79174" lon="-0.15367">
        <ele>120.7</ele>
        <time>2019-02-03T23:23:02.630Z</time>
      </trkpt>
      <trkpt lat="46.79148" lon="-0.15365">
        <ele>121.7</ele>
        <time>2019-02-03T23:23:03.152Z</time>
      </trkpt>
      <trkpt lat="46.79105" lon="-0.15359">
        <ele>122.2</ele>
        <time>2019-02-03T23:23:04.018Z</time>
      </trkpt>
      <trkpt lat="46.79093" lon="-0.15356">
        <ele>122.5</ele>
        <time>2019-02-03T23:23:04.262Z</time>
      </trkpt>
      <trkpt lat="46.79094" lon="-0.15358">
        <ele>122.5</ele>
        <time>2019-02-03T23:23:04.296Z</time>
      </trkpt>
      <trkpt lat="46.79102" lon="-0.15379">
        <ele>122.3</ele>
        <time>2019-02-03T23:23:04.626Z</time>
      </trkpt>
      <trkpt lat="46.7911" lon="-0.15409">
        <ele>122</ele>
        <time>2019-02-03T23:23:05.068Z</time>
      </trkpt>
      <trkpt lat="46.7893" lon="-0.155">
        <ele>123.5</ele>
        <time>2019-02-03T23:23:08.885Z</time>
      </trkpt>
      <trkpt lat="46.78836" lon="-0.15547">
        <ele>124</ele>
        <time>2019-02-03T23:23:10.876Z</time>
      </trkpt>
      <trkpt lat="46.78776" lon="-0.15579">
        <ele>124</ele>
        <time>2019-02-03T23:23:12.156Z</time>
      </trkpt>
      <trkpt lat="46.78773" lon="-0.15581">
        <ele>124</ele>
        <time>2019-02-03T23:23:12.222Z</time>
      </trkpt>
      <trkpt lat="46.7877" lon="-0.15573">
        <ele>124</ele>
        <time>2019-02-03T23:23:12.347Z</time>
      </trkpt>
      <trkpt lat="46.78758" lon="-0.15545">
        <ele>124</ele>
        <time>2019-02-03T23:23:12.800Z</time>
      </trkpt>
      <trkpt lat="46.78744" lon="-0.15517">
        <ele>123.9</ele>
        <time>2019-02-03T23:23:13.276Z</time>
      </trkpt>
      <trkpt lat="46.78723" lon="-0.15487">
        <ele>124</ele>
        <time>2019-02-03T23:23:13.865Z</time>
      </trkpt>
      <trkpt lat="46.7871" lon="-0.15472">
        <ele>123.6</ele>
        <time>2019-02-03T23:23:14.197Z</time>
      </trkpt>
      <trkpt lat="46.78698" lon="-0.15462">
        <ele>123.4</ele>
        <time>2019-02-03T23:23:14.474Z</time>
      </trkpt>
      <trkpt lat="46.78681" lon="-0.15448">
        <ele>123.4</ele>
        <time>2019-02-03T23:23:14.865Z</time>
      </trkpt>
      <trkpt lat="46.78669" lon="-0.15433">
        <ele>123.5</ele>
        <time>2019-02-03T23:23:15.182Z</time>
      </trkpt>
      <trkpt lat="46.78653" lon="-0.15401">
        <ele>123.5</ele>
        <time>2019-02-03T23:23:15.726Z</time>
      </trkpt>
      <trkpt lat="46.78635" lon="-0.15351">
        <ele>124</ele>
        <time>2019-02-03T23:23:16.501Z</time>
      </trkpt>
      <trkpt lat="46.78635" lon="-0.15347">
        <ele>124</ele>
        <time>2019-02-03T23:23:16.556Z</time>
      </trkpt>
      <trkpt lat="46.78635" lon="-0.1534">
        <ele>124</ele>
        <time>2019-02-03T23:23:16.652Z</time>
      </trkpt>
      <trkpt lat="46.78594" lon="-0.15371">
        <ele>123.2</ele>
        <time>2019-02-03T23:23:17.577Z</time>
      </trkpt>
      <trkpt lat="46.78548" lon="-0.15414">
        <ele>122</ele>
        <time>2019-02-03T23:23:18.671Z</time>
      </trkpt>
      <trkpt lat="46.78522" lon="-0.15444">
        <ele>120.8</ele>
        <time>2019-02-03T23:23:19.335Z</time>
      </trkpt>
      <trkpt lat="46.7851" lon="-0.15466">
        <ele>120.4</ele>
        <time>2019-02-03T23:23:19.721Z</time>
      </trkpt>
      <trkpt lat="46.78508" lon="-0.15476">
        <ele>120.2</ele>
        <time>2019-02-03T23:23:19.864Z</time>
      </trkpt>
      <trkpt lat="46.78506" lon="-0.15503">
        <ele>119.4</ele>
        <time>2019-02-03T23:23:20.237Z</time>
      </trkpt>
      <trkpt lat="46.78504" lon="-0.15525">
        <ele>119.3</ele>
        <time>2019-02-03T23:23:20.542Z</time>
      </trkpt>
      <trkpt lat="46.78494" lon="-0.15568">
        <ele>118.7</ele>
        <time>2019-02-03T23:23:21.165Z</time>
      </trkpt>
      <trkpt lat="46.78475" lon="-0.15641">
        <ele>114.7</ele>
        <time>2019-02-03T23:23:22.237Z</time>
      </trkpt>
      <trkpt lat="46.78461" lon="-0.15673">
        <ele>112.9</ele>
        <time>2019-02-03T23:23:22.758Z</time>
      </trkpt>
      <trkpt lat="46.7844" lon="-0.1571">
        <ele>108.4</ele>
        <time>2019-02-03T23:23:23.417Z</time>
      </trkpt>
      <trkpt lat="46.78434" lon="-0.15717">
        <ele>106.9</ele>
        <time>2019-02-03T23:23:23.571Z</time>
      </trkpt>
      <trkpt lat="46.78412" lon="-0.15738">
        <ele>101.7</ele>
        <time>2019-02-03T23:23:24.098Z</time>
      </trkpt>
      <trkpt lat="46.78397" lon="-0.15748">
        <ele>100.6</ele>
        <time>2019-02-03T23:23:24.428Z</time>
      </trkpt>
      <trkpt lat="46.7839" lon="-0.1575">
        <ele>100.1</ele>
        <time>2019-02-03T23:23:24.571Z</time>
      </trkpt>
      <trkpt lat="46.78381" lon="-0.1577">
        <ele>100.1</ele>
        <time>2019-02-03T23:23:24.899Z</time>
      </trkpt>
      <trkpt lat="46.78371" lon="-0.158">
        <ele>100.1</ele>
        <time>2019-02-03T23:23:25.357Z</time>
      </trkpt>
      <trkpt lat="46.78368" lon="-0.15835">
        <ele>99.3</ele>
        <time>2019-02-03T23:23:25.841Z</time>
      </trkpt>
      <trkpt lat="46.7837" lon="-0.15854">
        <ele>99</ele>
        <time>2019-02-03T23:23:26.105Z</time>
      </trkpt>
      <trkpt lat="46.78376" lon="-0.15871">
        <ele>97.9</ele>
        <time>2019-02-03T23:23:26.367Z</time>
      </trkpt>
      <trkpt lat="46.78366" lon="-0.15882">
        <ele>98.1</ele>
        <time>2019-02-03T23:23:26.618Z</time>
      </trkpt>
      <trkpt lat="46.78338" lon="-0.15905">
        <ele>101.7</ele>
        <time>2019-02-03T23:23:27.262Z</time>
      </trkpt>
      <trkpt lat="46.78316" lon="-0.15917">
        <ele>103.5</ele>
        <time>2019-02-03T23:23:27.733Z</time>
      </trkpt>
      <trkpt lat="46.78297" lon="-0.15922">
        <ele>105.2</ele>
        <time>2019-02-03T23:23:28.120Z</time>
      </trkpt>
      <trkpt lat="46.78277" lon="-0.15923">
        <ele>106.3</ele>
        <time>2019-02-03T23:23:28.521Z</time>
      </trkpt>
      <trkpt lat="46.78269" lon="-0.15922">
        <ele>106.8</ele>
        <time>2019-02-03T23:23:28.682Z</time>
      </trkpt>
      <trkpt lat="46.78247" lon="-0.15913">
        <ele>108.1</ele>
        <time>2019-02-03T23:23:29.140Z</time>
      </trkpt>
      <trkpt lat="46.78236" lon="-0.15907">
        <ele>108.5</ele>
        <time>2019-02-03T23:23:29.375Z</time>
      </trkpt>
      <trkpt lat="46.78219" lon="-0.15895">
        <ele>109.2</ele>
        <time>2019-02-03T23:23:29.753Z</time>
      </trkpt>
      <trkpt lat="46.78212" lon="-0.15889">
        <ele>109.7</ele>
        <time>2019-02-03T23:23:29.916Z</time>
      </trkpt>
      <trkpt lat="46.78174" lon="-0.15853">
        <ele>112</ele>
        <time>2019-02-03T23:23:30.824Z</time>
      </trkpt>
      <trkpt lat="46.78141" lon="-0.15816">
        <ele>115.1</ele>
        <time>2019-02-03T23:23:31.658Z</time>
      </trkpt>
      <trkpt lat="46.78125" lon="-0.15795">
        <ele>116.9</ele>
        <time>2019-02-03T23:23:32.089Z</time>
      </trkpt>
      <trkpt lat="46.78115" lon="-0.15785">
        <ele>117.6</ele>
        <time>2019-02-03T23:23:32.332Z</time>
      </trkpt>
      <trkpt lat="46.78013" lon="-0.15724">
        <ele>126.5</ele>
        <time>2019-02-03T23:23:34.541Z</time>
      </trkpt>
      <trkpt lat="46.77962" lon="-0.15684">
        <ele>129.4</ele>
        <time>2019-02-03T23:23:35.701Z</time>
      </trkpt>
      <trkpt lat="46.7791" lon="-0.15636">
        <ele>133.6</ele>
        <time>2019-02-03T23:23:36.934Z</time>
      </trkpt>
      <trkpt lat="46.77888" lon="-0.15613">
        <ele>135.1</ele>
        <time>2019-02-03T23:23:37.476Z</time>
      </trkpt>
      <trkpt lat="46.77871" lon="-0.1559">
        <ele>137</ele>
        <time>2019-02-03T23:23:37.940Z</time>
      </trkpt>
      <trkpt lat="46.77868" lon="-0.15579">
        <ele>137.5</ele>
        <time>2019-02-03T23:23:38.102Z</time>
      </trkpt>
      <trkpt lat="46.77856" lon="-0.15542">
        <ele>138.2</ele>
        <time>2019-02-03T23:23:38.664Z</time>
      </trkpt>
      <trkpt lat="46.7785" lon="-0.15512">
        <ele>138.4</ele>
        <time>2019-02-03T23:23:39.093Z</time>
      </trkpt>
      <trkpt lat="46.7785" lon="-0.15451">
        <ele>137.8</ele>
        <time>2019-02-03T23:23:39.930Z</time>
      </trkpt>
      <trkpt lat="46.77856" lon="-0.15371">
        <ele>136.2</ele>
        <time>2019-02-03T23:23:41.034Z</time>
      </trkpt>
      <trkpt lat="46.77857" lon="-0.15351">
        <ele>135.8</ele>
        <time>2019-02-03T23:23:41.309Z</time>
      </trkpt>
      <trkpt lat="46.77854" lon="-0.15332">
        <ele>135.2</ele>
        <time>2019-02-03T23:23:41.577Z</time>
      </trkpt>
      <trkpt lat="46.77848" lon="-0.15313">
        <ele>134.7</ele>
        <time>2019-02-03T23:23:41.864Z</time>
      </trkpt>
      <trkpt lat="46.77823" lon="-0.15308">
        <ele>135.5</ele>
        <time>2019-02-03T23:23:42.370Z</time>
      </trkpt>
      <trkpt lat="46.77755" lon="-0.15281">
        <ele>138.8</ele>
        <time>2019-02-03T23:23:43.782Z</time>
      </trkpt>
      <trkpt lat="46.77688" lon="-0.15262">
        <ele>141</ele>
        <time>2019-02-03T23:23:45.150Z</time>
      </trkpt>
      <trkpt lat="46.77655" lon="-0.15258">
        <ele>141.4</ele>
        <time>2019-02-03T23:23:45.814Z</time>
      </trkpt>
      <trkpt lat="46.77625" lon="-0.15259">
        <ele>142.5</ele>
        <time>2019-02-03T23:23:46.415Z</time>
      </trkpt>
      <trkpt lat="46.77602" lon="-0.15262">
        <ele>143</ele>
        <time>2019-02-03T23:23:46.878Z</time>
      </trkpt>
      <trkpt lat="46.7757" lon="-0.1527">
        <ele>143.5</ele>
        <time>2019-02-03T23:23:47.529Z</time>
      </trkpt>
      <trkpt lat="46.77547" lon="-0.15277">
        <ele>144</ele>
        <time>2019-02-03T23:23:48.000Z</time>
      </trkpt>
      <trkpt lat="46.77535" lon="-0.15283">
        <ele>144</ele>
        <time>2019-02-03T23:23:48.254Z</time>
      </trkpt>
      <trkpt lat="46.77534" lon="-0.15284">
        <ele>144</ele>
        <time>2019-02-03T23:23:48.278Z</time>
      </trkpt>
      <trkpt lat="46.77529" lon="-0.15273">
        <ele>144</ele>
        <time>2019-02-03T23:23:48.459Z</time>
      </trkpt>
      <trkpt lat="46.77509" lon="-0.15224">
        <ele>144.7</ele>
        <time>2019-02-03T23:23:49.242Z</time>
      </trkpt>
      <trkpt lat="46.77452" lon="-0.15093">
        <ele>144.3</ele>
        <time>2019-02-03T23:23:51.372Z</time>
      </trkpt>
      <trkpt lat="46.77438" lon="-0.15045">
        <ele>143.9</ele>
        <time>2019-02-03T23:23:52.088Z</time>
      </trkpt>
      <trkpt lat="46.77421" lon="-0.14984">
        <ele>143.3</ele>
        <time>2019-02-03T23:23:52.992Z</time>
      </trkpt>
      <trkpt lat="46.77344" lon="-0.14716">
        <ele>142.4</ele>
        <time>2019-02-03T23:23:56.981Z</time>
      </trkpt>
      <trkpt lat="46.7733" lon="-0.14671">
        <ele>141.3</ele>
        <time>2019-02-03T23:23:57.659Z</time>
      </trkpt>
      <trkpt lat="46.77318" lon="-0.14646">
        <ele>141.1</ele>
        <time>2019-02-03T23:23:58.078Z</time>
      </trkpt>
      <trkpt lat="46.77266" lon="-0.14598">
        <ele>141.2</ele>
        <time>2019-02-03T23:23:59.311Z</time>
      </trkpt>
      <trkpt lat="46.77243" lon="-0.1457">
        <ele>140.5</ele>
        <time>2019-02-03T23:23:59.911Z</time>
      </trkpt>
      <trkpt lat="46.77238" lon="-0.14558">
        <ele>140.1</ele>
        <time>2019-02-03T23:24:00.104Z</time>
      </trkpt>
      <trkpt lat="46.77234" lon="-0.14522">
        <ele>138.8</ele>
        <time>2019-02-03T23:24:00.605Z</time>
      </trkpt>
      <trkpt lat="46.77233" lon="-0.1449">
        <ele>137.3</ele>
        <time>2019-02-03T23:24:01.045Z</time>
      </trkpt>
      <trkpt lat="46.7723" lon="-0.14476">
        <ele>136.3</ele>
        <time>2019-02-03T23:24:01.246Z</time>
      </trkpt>
      <trkpt lat="46.77216" lon="-0.14441">
        <ele>132.8</ele>
        <time>2019-02-03T23:24:01.802Z</time>
      </trkpt>
      <trkpt lat="46.7721" lon="-0.14425">
        <ele>131.9</ele>
        <time>2019-02-03T23:24:02.052Z</time>
      </trkpt>
      <trkpt lat="46.77209" lon="-0.14411">
        <ele>131.1</ele>
        <time>2019-02-03T23:24:02.245Z</time>
      </trkpt>
      <trkpt lat="46.77212" lon="-0.14397">
        <ele>130.1</ele>
        <time>2019-02-03T23:24:02.446Z</time>
      </trkpt>
      <trkpt lat="46.77224" lon="-0.14384">
        <ele>129.3</ele>
        <time>2019-02-03T23:24:02.745Z</time>
      </trkpt>
      <trkpt lat="46.77244" lon="-0.14365">
        <ele>127.9</ele>
        <time>2019-02-03T23:24:03.223Z</time>
      </trkpt>
      <trkpt lat="46.77247" lon="-0.14357">
        <ele>127.3</ele>
        <time>2019-02-03T23:24:03.348Z</time>
      </trkpt>
      <trkpt lat="46.77247" lon="-0.14349">
        <ele>126.4</ele>
        <time>2019-02-03T23:24:03.458Z</time>
      </trkpt>
      <trkpt lat="46.77246" lon="-0.14346">
        <ele>126</ele>
        <time>2019-02-03T23:24:03.504Z</time>
      </trkpt>
      <trkpt lat="46.77241" lon="-0.14341">
        <ele>124.9</ele>
        <time>2019-02-03T23:24:03.625Z</time>
      </trkpt>
      <trkpt lat="46.77236" lon="-0.1434">
        <ele>124.3</ele>
        <time>2019-02-03T23:24:03.726Z</time>
      </trkpt>
      <trkpt lat="46.77218" lon="-0.14337">
        <ele>122.2</ele>
        <time>2019-02-03T23:24:04.089Z</time>
      </trkpt>
      <trkpt lat="46.77205" lon="-0.14324">
        <ele>119.3</ele>
        <time>2019-02-03T23:24:04.405Z</time>
      </trkpt>
      <trkpt lat="46.772" lon="-0.1432">
        <ele>118.2</ele>
        <time>2019-02-03T23:24:04.519Z</time>
      </trkpt>
      <trkpt lat="46.77179" lon="-0.14325">
        <ele>116.8</ele>
        <time>2019-02-03T23:24:04.945Z</time>
      </trkpt>
      <trkpt lat="46.77141" lon="-0.14332">
        <ele>113.2</ele>
        <time>2019-02-03T23:24:05.713Z</time>
      </trkpt>
      <trkpt lat="46.77131" lon="-0.14331">
        <ele>112.8</ele>
        <time>2019-02-03T23:24:05.914Z</time>
      </trkpt>
      <trkpt lat="46.77126" lon="-0.14325">
        <ele>112.2</ele>
        <time>2019-02-03T23:24:06.044Z</time>
      </trkpt>
      <trkpt lat="46.77109" lon="-0.14295">
        <ele>110.7</ele>
        <time>2019-02-03T23:24:06.578Z</time>
      </trkpt>
      <trkpt lat="46.77103" lon="-0.14284">
        <ele>110.3</ele>
        <time>2019-02-03T23:24:06.771Z</time>
      </trkpt>
      <trkpt lat="46.77096" lon="-0.14275">
        <ele>109.9</ele>
        <time>2019-02-03T23:24:06.958Z</time>
      </trkpt>
      <trkpt lat="46.77095" lon="-0.14263">
        <ele>109.7</ele>
        <time>2019-02-03T23:24:07.124Z</time>
      </trkpt>
      <trkpt lat="46.77095" lon="-0.14219">
        <ele>109.1</ele>
        <time>2019-02-03T23:24:07.728Z</time>
      </trkpt>
      <trkpt lat="46.77097" lon="-0.14172">
        <ele>113.2</ele>
        <time>2019-02-03T23:24:08.374Z</time>
      </trkpt>
      <trkpt lat="46.771" lon="-0.14158">
        <ele>115.5</ele>
        <time>2019-02-03T23:24:08.575Z</time>
      </trkpt>
      <trkpt lat="46.77109" lon="-0.14147">
        <ele>116.7</ele>
        <time>2019-02-03T23:24:08.810Z</time>
      </trkpt>
      <trkpt lat="46.77141" lon="-0.14125">
        <ele>119.5</ele>
        <time>2019-02-03T23:24:09.519Z</time>
      </trkpt>
      <trkpt lat="46.77157" lon="-0.1411">
        <ele>122.2</ele>
        <time>2019-02-03T23:24:09.900Z</time>
      </trkpt>
      <trkpt lat="46.77168" lon="-0.14092">
        <ele>126.2</ele>
        <time>2019-02-03T23:24:10.231Z</time>
      </trkpt>
      <trkpt lat="46.77174" lon="-0.14085">
        <ele>127.9</ele>
        <time>2019-02-03T23:24:10.385Z</time>
      </trkpt>
      <trkpt lat="46.77188" lon="-0.14081">
        <ele>129.1</ele>
        <time>2019-02-03T23:24:10.671Z</time>
      </trkpt>
      <trkpt lat="46.77222" lon="-0.1406">
        <ele>132.4</ele>
        <time>2019-02-03T23:24:11.411Z</time>
      </trkpt>
      <trkpt lat="46.77226" lon="-0.14055">
        <ele>132.9</ele>
        <time>2019-02-03T23:24:11.517Z</time>
      </trkpt>
      <trkpt lat="46.7723" lon="-0.14046">
        <ele>133.5</ele>
        <time>2019-02-03T23:24:11.664Z</time>
      </trkpt>
      <trkpt lat="46.77246" lon="-0.13805">
        <ele>138.1</ele>
        <time>2019-02-03T23:24:14.987Z</time>
      </trkpt>
      <trkpt lat="46.7718" lon="-0.1377">
        <ele>139.5</ele>
        <time>2019-02-03T23:24:16.394Z</time>
      </trkpt>
      <trkpt lat="46.77141" lon="-0.13748">
        <ele>140.9</ele>
        <time>2019-02-03T23:24:17.232Z</time>
      </trkpt>
      <trkpt lat="46.77141" lon="-0.13742">
        <ele>140.9</ele>
        <time>2019-02-03T23:24:17.314Z</time>
      </trkpt>
      <trkpt lat="46.77131" lon="-0.13592">
        <ele>140</ele>
        <time>2019-02-03T23:24:19.383Z</time>
      </trkpt>
      <trkpt lat="46.77127" lon="-0.13532">
        <ele>139</ele>
        <time>2019-02-03T23:24:20.210Z</time>
      </trkpt>
      <trkpt lat="46.77123" lon="-0.13474">
        <ele>137.1</ele>
        <time>2019-02-03T23:24:21.010Z</time>
      </trkpt>
      <trkpt lat="46.7712" lon="-0.13465">
        <ele>136.9</ele>
        <time>2019-02-03T23:24:21.147Z</time>
      </trkpt>
      <trkpt lat="46.77114" lon="-0.13462">
        <ele>137</ele>
        <time>2019-02-03T23:24:21.274Z</time>
      </trkpt>
      <trkpt lat="46.77057" lon="-0.13467">
        <ele>137.8</ele>
        <time>2019-02-03T23:24:22.418Z</time>
      </trkpt>
      <trkpt lat="46.76968" lon="-0.13476">
        <ele>139.3</ele>
        <time>2019-02-03T23:24:24.206Z</time>
      </trkpt>
      <trkpt lat="46.76883" lon="-0.13472">
        <ele>141</ele>
        <time>2019-02-03T23:24:25.910Z</time>
      </trkpt>
      <trkpt lat="46.76786" lon="-0.13443">
        <ele>142</ele>
        <time>2019-02-03T23:24:27.894Z</time>
      </trkpt>
      <trkpt lat="46.76654" lon="-0.13399">
        <ele>143.2</ele>
        <time>2019-02-03T23:24:30.607Z</time>
      </trkpt>
      <trkpt lat="46.76617" lon="-0.13387">
        <ele>143</ele>
        <time>2019-02-03T23:24:31.367Z</time>
      </trkpt>
      <trkpt lat="46.76624" lon="-0.13361">
        <ele>142.5</ele>
        <time>2019-02-03T23:24:31.750Z</time>
      </trkpt>
      <trkpt lat="46.7664" lon="-0.13316">
        <ele>140.4</ele>
        <time>2019-02-03T23:24:32.446Z</time>
      </trkpt>
      <trkpt lat="46.76653" lon="-0.13291">
        <ele>139.2</ele>
        <time>2019-02-03T23:24:32.877Z</time>
      </trkpt>
      <trkpt lat="46.76677" lon="-0.13259">
        <ele>137.6</ele>
        <time>2019-02-03T23:24:33.528Z</time>
      </trkpt>
      <trkpt lat="46.76702" lon="-0.13228">
        <ele>136.2</ele>
        <time>2019-02-03T23:24:34.185Z</time>
      </trkpt>
      <trkpt lat="46.767" lon="-0.13221">
        <ele>136</ele>
        <time>2019-02-03T23:24:34.289Z</time>
      </trkpt>
      <trkpt lat="46.76696" lon="-0.13213">
        <ele>136</ele>
        <time>2019-02-03T23:24:34.425Z</time>
      </trkpt>
      <trkpt lat="46.76682" lon="-0.13196">
        <ele>136.9</ele>
        <time>2019-02-03T23:24:34.790Z</time>
      </trkpt>
      <trkpt lat="46.76642" lon="-0.1316">
        <ele>139.1</ele>
        <time>2019-02-03T23:24:35.732Z</time>
      </trkpt>
      <trkpt lat="46.76635" lon="-0.13155">
        <ele>139.6</ele>
        <time>2019-02-03T23:24:35.888Z</time>
      </trkpt>
      <trkpt lat="46.76646" lon="-0.12896">
        <ele>137.7</ele>
        <time>2019-02-03T23:24:39.449Z</time>
      </trkpt>
      <trkpt lat="46.76707" lon="-0.12744">
        <ele>142.1</ele>
        <time>2019-02-03T23:24:41.872Z</time>
      </trkpt>
      <trkpt lat="46.76703" lon="-0.12745">
        <ele>142.1</ele>
        <time>2019-02-03T23:24:41.953Z</time>
      </trkpt>
      <trkpt lat="46.76694" lon="-0.12743">
        <ele>142</ele>
        <time>2019-02-03T23:24:42.135Z</time>
      </trkpt>
      <trkpt lat="46.76671" lon="-0.12721">
        <ele>141.2</ele>
        <time>2019-02-03T23:24:42.686Z</time>
      </trkpt>
      <trkpt lat="46.76644" lon="-0.12693">
        <ele>142.1</ele>
        <time>2019-02-03T23:24:43.350Z</time>
      </trkpt>
      <trkpt lat="46.76636" lon="-0.12691">
        <ele>142.2</ele>
        <time>2019-02-03T23:24:43.513Z</time>
      </trkpt>
      <trkpt lat="46.76626" lon="-0.12691">
        <ele>142.5</ele>
        <time>2019-02-03T23:24:43.713Z</time>
      </trkpt>
      <trkpt lat="46.76617" lon="-0.12694">
        <ele>142.8</ele>
        <time>2019-02-03T23:24:43.898Z</time>
      </trkpt>
      <trkpt lat="46.76609" lon="-0.127">
        <ele>142.8</ele>
        <time>2019-02-03T23:24:44.078Z</time>
      </trkpt>
      <trkpt lat="46.76594" lon="-0.12723">
        <ele>142</ele>
        <time>2019-02-03T23:24:44.514Z</time>
      </trkpt>
      <trkpt lat="46.76561" lon="-0.12768">
        <ele>141.8</ele>
        <time>2019-02-03T23:24:45.419Z</time>
      </trkpt>
      <trkpt lat="46.76522" lon="-0.12806">
        <ele>142.2</ele>
        <time>2019-02-03T23:24:46.359Z</time>
      </trkpt>
      <trkpt lat="46.76488" lon="-0.12832">
        <ele>143.4</ele>
        <time>2019-02-03T23:24:47.128Z</time>
      </trkpt>
      <trkpt lat="46.76446" lon="-0.12853">
        <ele>144.3</ele>
        <time>2019-02-03T23:24:48.018Z</time>
      </trkpt>
      <trkpt lat="46.76408" lon="-0.12868">
        <ele>145.2</ele>
        <time>2019-02-03T23:24:48.807Z</time>
      </trkpt>
      <trkpt lat="46.76388" lon="-0.12871">
        <ele>145.7</ele>
        <time>2019-02-03T23:24:49.210Z</time>
      </trkpt>
      <trkpt lat="46.76365" lon="-0.12874">
        <ele>146.4</ele>
        <time>2019-02-03T23:24:49.673Z</time>
      </trkpt>
      <trkpt lat="46.76343" lon="-0.12881">
        <ele>146.8</ele>
        <time>2019-02-03T23:24:50.124Z</time>
      </trkpt>
      <trkpt lat="46.76321" lon="-0.12901">
        <ele>147</ele>
        <time>2019-02-03T23:24:50.643Z</time>
      </trkpt>
      <trkpt lat="46.76305" lon="-0.12926">
        <ele>147</ele>
        <time>2019-02-03T23:24:51.113Z</time>
      </trkpt>
      <trkpt lat="46.7629" lon="-0.12972">
        <ele>147</ele>
        <time>2019-02-03T23:24:51.812Z</time>
      </trkpt>
      <trkpt lat="46.76271" lon="-0.13036">
        <ele>147.7</ele>
        <time>2019-02-03T23:24:52.770Z</time>
      </trkpt>
      <trkpt lat="46.76269" lon="-0.13043">
        <ele>148</ele>
        <time>2019-02-03T23:24:52.874Z</time>
      </trkpt>
      <trkpt lat="46.76267" lon="-0.13042">
        <ele>148.1</ele>
        <time>2019-02-03T23:24:52.916Z</time>
      </trkpt>
      <trkpt lat="46.76258" lon="-0.13033">
        <ele>148.5</ele>
        <time>2019-02-03T23:24:53.135Z</time>
      </trkpt>
      <trkpt lat="46.76218" lon="-0.12995">
        <ele>149.2</ele>
        <time>2019-02-03T23:24:54.091Z</time>
      </trkpt>
      <trkpt lat="46.76191" lon="-0.12968">
        <ele>150.1</ele>
        <time>2019-02-03T23:24:54.747Z</time>
      </trkpt>
      <trkpt lat="46.76163" lon="-0.12948">
        <ele>151</ele>
        <time>2019-02-03T23:24:55.372Z</time>
      </trkpt>
      <trkpt lat="46.76161" lon="-0.12948">
        <ele>151</ele>
        <time>2019-02-03T23:24:55.412Z</time>
      </trkpt>
      <trkpt lat="46.76099" lon="-0.12914">
        <ele>152</ele>
        <time>2019-02-03T23:24:56.739Z</time>
      </trkpt>
      <trkpt lat="46.76071" lon="-0.12905">
        <ele>152.4</ele>
        <time>2019-02-03T23:24:57.314Z</time>
      </trkpt>
      <trkpt lat="46.76049" lon="-0.12896">
        <ele>153</ele>
        <time>2019-02-03T23:24:57.772Z</time>
      </trkpt>
      <trkpt lat="46.76009" lon="-0.12873">
        <ele>153</ele>
        <time>2019-02-03T23:24:58.634Z</time>
      </trkpt>
      <trkpt lat="46.75963" lon="-0.12847">
        <ele>153</ele>
        <time>2019-02-03T23:24:59.622Z</time>
      </trkpt>
      <trkpt lat="46.75912" lon="-0.12812">
        <ele>152.2</ele>
        <time>2019-02-03T23:25:00.751Z</time>
      </trkpt>
      <trkpt lat="46.75868" lon="-0.12783">
        <ele>152</ele>
        <time>2019-02-03T23:25:01.718Z</time>
      </trkpt>
      <trkpt lat="46.75858" lon="-0.1278">
        <ele>152</ele>
        <time>2019-02-03T23:25:01.923Z</time>
      </trkpt>
      <trkpt lat="46.75773" lon="-0.12692">
        <ele>150.2</ele>
        <time>2019-02-03T23:25:04.011Z</time>
      </trkpt>
      <trkpt lat="46.75738" lon="-0.12654">
        <ele>150</ele>
        <time>2019-02-03T23:25:04.885Z</time>
      </trkpt>
      <trkpt lat="46.75709" lon="-0.12632">
        <ele>149.9</ele>
        <time>2019-02-03T23:25:05.540Z</time>
      </trkpt>
      <trkpt lat="46.75695" lon="-0.12625">
        <ele>150</ele>
        <time>2019-02-03T23:25:05.837Z</time>
      </trkpt>
      <trkpt lat="46.75678" lon="-0.12621">
        <ele>149.6</ele>
        <time>2019-02-03T23:25:06.182Z</time>
      </trkpt>
      <trkpt lat="46.75671" lon="-0.12621">
        <ele>149.5</ele>
        <time>2019-02-03T23:25:06.322Z</time>
      </trkpt>
      <trkpt lat="46.75646" lon="-0.12615">
        <ele>149</ele>
        <time>2019-02-03T23:25:06.830Z</time>
      </trkpt>
      <trkpt lat="46.75632" lon="-0.12608">
        <ele>148.9</ele>
        <time>2019-02-03T23:25:07.127Z</time>
      </trkpt>
      <trkpt lat="46.75591" lon="-0.12579">
        <ele>148</ele>
        <time>2019-02-03T23:25:08.040Z</time>
      </trkpt>
      <trkpt lat="46.75578" lon="-0.12572">
        <ele>147.9</ele>
        <time>2019-02-03T23:25:08.318Z</time>
      </trkpt>
      <trkpt lat="46.75589" lon="-0.12514">
        <ele>147</ele>
        <time>2019-02-03T23:25:09.144Z</time>
      </trkpt>
      <trkpt lat="46.75597" lon="-0.12484">
        <ele>146.4</ele>
        <time>2019-02-03T23:25:09.586Z</time>
      </trkpt>
      <trkpt lat="46.756" lon="-0.12448">
        <ele>145.7</ele>
        <time>2019-02-03T23:25:10.084Z</time>
      </trkpt>
      <trkpt lat="46.75605" lon="-0.12413">
        <ele>144.6</ele>
        <time>2019-02-03T23:25:10.575Z</time>
      </trkpt>
      <trkpt lat="46.75611" lon="-0.12349">
        <ele>141.1</ele>
        <time>2019-02-03T23:25:11.462Z</time>
      </trkpt>
      <trkpt lat="46.75621" lon="-0.12315">
        <ele>137.7</ele>
        <time>2019-02-03T23:25:11.970Z</time>
      </trkpt>
      <trkpt lat="46.75644" lon="-0.12272">
        <ele>131.4</ele>
        <time>2019-02-03T23:25:12.719Z</time>
      </trkpt>
      <trkpt lat="46.75649" lon="-0.12259">
        <ele>130</ele>
        <time>2019-02-03T23:25:12.924Z</time>
      </trkpt>
      <trkpt lat="46.75631" lon="-0.12247">
        <ele>128.5</ele>
        <time>2019-02-03T23:25:13.321Z</time>
      </trkpt>
      <trkpt lat="46.75594" lon="-0.1223">
        <ele>125.4</ele>
        <time>2019-02-03T23:25:14.098Z</time>
      </trkpt>
      <trkpt lat="46.75581" lon="-0.12223">
        <ele>124</ele>
        <time>2019-02-03T23:25:14.376Z</time>
      </trkpt>
      <trkpt lat="46.75577" lon="-0.12216">
        <ele>123</ele>
        <time>2019-02-03T23:25:14.501Z</time>
      </trkpt>
      <trkpt lat="46.75574" lon="-0.12194">
        <ele>120.3</ele>
        <time>2019-02-03T23:25:14.809Z</time>
      </trkpt>
      <trkpt lat="46.7557" lon="-0.12167">
        <ele>119.1</ele>
        <time>2019-02-03T23:25:15.188Z</time>
      </trkpt>
      <trkpt lat="46.75562" lon="-0.12142">
        <ele>118.3</ele>
        <time>2019-02-03T23:25:15.567Z</time>
      </trkpt>
      <trkpt lat="46.75556" lon="-0.12113">
        <ele>116.2</ele>
        <time>2019-02-03T23:25:15.983Z</time>
      </trkpt>
      <trkpt lat="46.75556" lon="-0.12094">
        <ele>116.1</ele>
        <time>2019-02-03T23:25:16.244Z</time>
      </trkpt>
      <trkpt lat="46.75559" lon="-0.1206">
        <ele>115.9</ele>
        <time>2019-02-03T23:25:16.715Z</time>
      </trkpt>
      <trkpt lat="46.75565" lon="-0.12022">
        <ele>115.4</ele>
        <time>2019-02-03T23:25:17.250Z</time>
      </trkpt>
      <trkpt lat="46.75545" lon="-0.12008">
        <ele>112.8</ele>
        <time>2019-02-03T23:25:17.694Z</time>
      </trkpt>
      <trkpt lat="46.75514" lon="-0.11973">
        <ele>113</ele>
        <time>2019-02-03T23:25:18.479Z</time>
      </trkpt>
      <trkpt lat="46.75505" lon="-0.11959">
        <ele>114.8</ele>
        <time>2019-02-03T23:25:18.743Z</time>
      </trkpt>
      <trkpt lat="46.75502" lon="-0.11952">
        <ele>115.9</ele>
        <time>2019-02-03T23:25:18.856Z</time>
      </trkpt>
      <trkpt lat="46.75505" lon="-0.11923">
        <ele>116.7</ele>
        <time>2019-02-03T23:25:19.259Z</time>
      </trkpt>
      <trkpt lat="46.75513" lon="-0.11877">
        <ele>116.4</ele>
        <time>2019-02-03T23:25:19.911Z</time>
      </trkpt>
      <trkpt lat="46.75508" lon="-0.11859">
        <ele>117.5</ele>
        <time>2019-02-03T23:25:20.178Z</time>
      </trkpt>
      <trkpt lat="46.75492" lon="-0.11838">
        <ele>119.4</ele>
        <time>2019-02-03T23:25:20.609Z</time>
      </trkpt>
      <trkpt lat="46.75477" lon="-0.11828">
        <ele>121.2</ele>
        <time>2019-02-03T23:25:20.939Z</time>
      </trkpt>
      <trkpt lat="46.75465" lon="-0.11824">
        <ele>122.4</ele>
        <time>2019-02-03T23:25:21.186Z</time>
      </trkpt>
      <trkpt lat="46.75454" lon="-0.11824">
        <ele>123.4</ele>
        <time>2019-02-03T23:25:21.406Z</time>
      </trkpt>
      <trkpt lat="46.75441" lon="-0.1182">
        <ele>124.4</ele>
        <time>2019-02-03T23:25:21.672Z</time>
      </trkpt>
      <trkpt lat="46.75431" lon="-0.11811">
        <ele>124.8</ele>
        <time>2019-02-03T23:25:21.907Z</time>
      </trkpt>
      <trkpt lat="46.75396" lon="-0.11799">
        <ele>128.7</ele>
        <time>2019-02-03T23:25:22.627Z</time>
      </trkpt>
      <trkpt lat="46.75391" lon="-0.11788">
        <ele>129.1</ele>
        <time>2019-02-03T23:25:22.808Z</time>
      </trkpt>
      <trkpt lat="46.75384" lon="-0.11744">
        <ele>131.3</ele>
        <time>2019-02-03T23:25:23.428Z</time>
      </trkpt>
      <trkpt lat="46.75377" lon="-0.11699">
        <ele>136.4</ele>
        <time>2019-02-03T23:25:24.062Z</time>
      </trkpt>
      <trkpt lat="46.75365" lon="-0.11629">
        <ele>142.2</ele>
        <time>2019-02-03T23:25:25.053Z</time>
      </trkpt>
      <trkpt lat="46.75357" lon="-0.11609">
        <ele>143.1</ele>
        <time>2019-02-03T23:25:25.371Z</time>
      </trkpt>
      <trkpt lat="46.75365" lon="-0.11591">
        <ele>143</ele>
        <time>2019-02-03T23:25:25.666Z</time>
      </trkpt>
      <trkpt lat="46.75379" lon="-0.11548">
        <ele>143.1</ele>
        <time>2019-02-03T23:25:26.320Z</time>
      </trkpt>
      <trkpt lat="46.75413" lon="-0.11439">
        <ele>140.1</ele>
        <time>2019-02-03T23:25:27.964Z</time>
      </trkpt>
      <trkpt lat="46.75423" lon="-0.11394">
        <ele>138.4</ele>
        <time>2019-02-03T23:25:28.614Z</time>
      </trkpt>
      <trkpt lat="46.75428" lon="-0.11377">
        <ele>138.2</ele>
        <time>2019-02-03T23:25:28.868Z</time>
      </trkpt>
      <trkpt lat="46.75436" lon="-0.11307">
        <ele>140.6</ele>
        <time>2019-02-03T23:25:29.842Z</time>
      </trkpt>
      <trkpt lat="46.75439" lon="-0.11266">
        <ele>141.6</ele>
        <time>2019-02-03T23:25:30.408Z</time>
      </trkpt>
      <trkpt lat="46.75439" lon="-0.11244">
        <ele>142.4</ele>
        <time>2019-02-03T23:25:30.710Z</time>
      </trkpt>
      <trkpt lat="46.75433" lon="-0.11215">
        <ele>143.3</ele>
        <time>2019-02-03T23:25:31.126Z</time>
      </trkpt>
      <trkpt lat="46.75425" lon="-0.11196">
        <ele>143.9</ele>
        <time>2019-02-03T23:25:31.432Z</time>
      </trkpt>
      <trkpt lat="46.75413" lon="-0.11175">
        <ele>144.7</ele>
        <time>2019-02-03T23:25:31.807Z</time>
      </trkpt>
      <trkpt lat="46.75396" lon="-0.11154">
        <ele>145.3</ele>
        <time>2019-02-03T23:25:32.253Z</time>
      </trkpt>
      <trkpt lat="46.7537" lon="-0.11129">
        <ele>146.8</ele>
        <time>2019-02-03T23:25:32.877Z</time>
      </trkpt>
      <trkpt lat="46.75387" lon="-0.11045">
        <ele>148</ele>
        <time>2019-02-03T23:25:34.080Z</time>
      </trkpt>
      <trkpt lat="46.75389" lon="-0.11028">
        <ele>148</ele>
        <time>2019-02-03T23:25:34.317Z</time>
      </trkpt>
      <trkpt lat="46.7539" lon="-0.11012">
        <ele>148</ele>
        <time>2019-02-03T23:25:34.538Z</time>
      </trkpt>
      <trkpt lat="46.75387" lon="-0.10999">
        <ele>148.1</ele>
        <time>2019-02-03T23:25:34.726Z</time>
      </trkpt>
      <trkpt lat="46.75382" lon="-0.1098">
        <ele>148.2</ele>
        <time>2019-02-03T23:25:35.005Z</time>
      </trkpt>
      <trkpt lat="46.75369" lon="-0.10951">
        <ele>148.9</ele>
        <time>2019-02-03T23:25:35.481Z</time>
      </trkpt>
      <trkpt lat="46.75341" lon="-0.10899">
        <ele>149.7</ele>
        <time>2019-02-03T23:25:36.389Z</time>
      </trkpt>
      <trkpt lat="46.75319" lon="-0.10844">
        <ele>149.7</ele>
        <time>2019-02-03T23:25:37.263Z</time>
      </trkpt>
      <trkpt lat="46.75313" lon="-0.10817">
        <ele>149.7</ele>
        <time>2019-02-03T23:25:37.653Z</time>
      </trkpt>
      <trkpt lat="46.75311" lon="-0.10799">
        <ele>149.8</ele>
        <time>2019-02-03T23:25:37.903Z</time>
      </trkpt>
      <trkpt lat="46.75309" lon="-0.10721">
        <ele>149</ele>
        <time>2019-02-03T23:25:38.975Z</time>
      </trkpt>
      <trkpt lat="46.75292" lon="-0.10618">
        <ele>148</ele>
        <time>2019-02-03T23:25:40.430Z</time>
      </trkpt>
      <trkpt lat="46.75278" lon="-0.10567">
        <ele>147.4</ele>
        <time>2019-02-03T23:25:41.184Z</time>
      </trkpt>
      <trkpt lat="46.75239" lon="-0.10477">
        <ele>146.1</ele>
        <time>2019-02-03T23:25:42.646Z</time>
      </trkpt>
      <trkpt lat="46.75221" lon="-0.10436">
        <ele>146</ele>
        <time>2019-02-03T23:25:43.315Z</time>
      </trkpt>
      <trkpt lat="46.75187" lon="-0.10394">
        <ele>146.9</ele>
        <time>2019-02-03T23:25:44.208Z</time>
      </trkpt>
      <trkpt lat="46.75125" lon="-0.10302">
        <ele>148.5</ele>
        <time>2019-02-03T23:25:45.980Z</time>
      </trkpt>
      <trkpt lat="46.75106" lon="-0.10266">
        <ele>149</ele>
        <time>2019-02-03T23:25:46.604Z</time>
      </trkpt>
      <trkpt lat="46.75094" lon="-0.1023">
        <ele>149</ele>
        <time>2019-02-03T23:25:47.154Z</time>
      </trkpt>
      <trkpt lat="46.75081" lon="-0.10155">
        <ele>148.6</ele>
        <time>2019-02-03T23:25:48.216Z</time>
      </trkpt>
      <trkpt lat="46.75058" lon="-0.10067">
        <ele>148</ele>
        <time>2019-02-03T23:25:49.509Z</time>
      </trkpt>
      <trkpt lat="46.75035" lon="-0.09945">
        <ele>147.7</ele>
        <time>2019-02-03T23:25:51.246Z</time>
      </trkpt>
      <trkpt lat="46.75017" lon="-0.0988">
        <ele>147.4</ele>
        <time>2019-02-03T23:25:52.209Z</time>
      </trkpt>
      <trkpt lat="46.74994" lon="-0.09815">
        <ele>147.5</ele>
        <time>2019-02-03T23:25:53.213Z</time>
      </trkpt>
      <trkpt lat="46.74976" lon="-0.09771">
        <ele>147</ele>
        <time>2019-02-03T23:25:53.917Z</time>
      </trkpt>
      <trkpt lat="46.74962" lon="-0.09772">
        <ele>147.3</ele>
        <time>2019-02-03T23:25:54.198Z</time>
      </trkpt>
      <trkpt lat="46.74953" lon="-0.0979">
        <ele>147.8</ele>
        <time>2019-02-03T23:25:54.504Z</time>
      </trkpt>
      <trkpt lat="46.74952" lon="-0.09784">
        <ele>147.8</ele>
        <time>2019-02-03T23:25:54.589Z</time>
      </trkpt>
      <trkpt lat="46.74908" lon="-0.09731">
        <ele>147.2</ele>
        <time>2019-02-03T23:25:55.732Z</time>
      </trkpt>
      <trkpt lat="46.74884" lon="-0.09656">
        <ele>146.9</ele>
        <time>2019-02-03T23:25:56.866Z</time>
      </trkpt>
      <trkpt lat="46.74787" lon="-0.09506">
        <ele>136.8</ele>
        <time>2019-02-03T23:25:59.701Z</time>
      </trkpt>
      <trkpt lat="46.74658" lon="-0.09785">
        <ele>140.4</ele>
        <time>2019-02-03T23:26:04.326Z</time>
      </trkpt>
      <trkpt lat="46.74639" lon="-0.09815">
        <ele>139</ele>
        <time>2019-02-03T23:26:04.889Z</time>
      </trkpt>
      <trkpt lat="46.7461" lon="-0.09809">
        <ele>138.2</ele>
        <time>2019-02-03T23:26:05.474Z</time>
      </trkpt>
      <trkpt lat="46.74531" lon="-0.09722">
        <ele>143.9</ele>
        <time>2019-02-03T23:26:07.457Z</time>
      </trkpt>
      <trkpt lat="46.74376" lon="-0.09562">
        <ele>148</ele>
        <time>2019-02-03T23:26:11.262Z</time>
      </trkpt>
      <trkpt lat="46.7436" lon="-0.09546">
        <ele>148</ele>
        <time>2019-02-03T23:26:11.651Z</time>
      </trkpt>
      <trkpt lat="46.74349" lon="-0.09538">
        <ele>147.6</ele>
        <time>2019-02-03T23:26:11.897Z</time>
      </trkpt>
      <trkpt lat="46.74342" lon="-0.09534">
        <ele>147.3</ele>
        <time>2019-02-03T23:26:12.048Z</time>
      </trkpt>
      <trkpt lat="46.74337" lon="-0.09534">
        <ele>147.1</ele>
        <time>2019-02-03T23:26:12.148Z</time>
      </trkpt>
      <trkpt lat="46.74327" lon="-0.09535">
        <ele>147</ele>
        <time>2019-02-03T23:26:12.349Z</time>
      </trkpt>
      <trkpt lat="46.74304" lon="-0.09542">
        <ele>146.9</ele>
        <time>2019-02-03T23:26:12.820Z</time>
      </trkpt>
      <trkpt lat="46.74286" lon="-0.09546">
        <ele>146.3</ele>
        <time>2019-02-03T23:26:13.185Z</time>
      </trkpt>
      <trkpt lat="46.74277" lon="-0.09536">
        <ele>145.9</ele>
        <time>2019-02-03T23:26:13.412Z</time>
      </trkpt>
      <trkpt lat="46.74267" lon="-0.09524">
        <ele>145.2</ele>
        <time>2019-02-03T23:26:13.671Z</time>
      </trkpt>
      <trkpt lat="46.74253" lon="-0.09498">
        <ele>144.1</ele>
        <time>2019-02-03T23:26:14.125Z</time>
      </trkpt>
      <trkpt lat="46.74228" lon="-0.09445">
        <ele>138.7</ele>
        <time>2019-02-03T23:26:15.009Z</time>
      </trkpt>
      <trkpt lat="46.74203" lon="-0.094">
        <ele>137.7</ele>
        <time>2019-02-03T23:26:15.805Z</time>
      </trkpt>
      <trkpt lat="46.74187" lon="-0.09375">
        <ele>137.8</ele>
        <time>2019-02-03T23:26:16.275Z</time>
      </trkpt>
      <trkpt lat="46.74175" lon="-0.0935">
        <ele>137.6</ele>
        <time>2019-02-03T23:26:16.694Z</time>
      </trkpt>
      <trkpt lat="46.74167" lon="-0.09321">
        <ele>137.5</ele>
        <time>2019-02-03T23:26:17.123Z</time>
      </trkpt>
      <trkpt lat="46.74161" lon="-0.09263">
        <ele>138.8</ele>
        <time>2019-02-03T23:26:17.929Z</time>
      </trkpt>
      <trkpt lat="46.74161" lon="-0.09225">
        <ele>139.4</ele>
        <time>2019-02-03T23:26:18.451Z</time>
      </trkpt>
      <trkpt lat="46.74164" lon="-0.09201">
        <ele>139.9</ele>
        <time>2019-02-03T23:26:18.786Z</time>
      </trkpt>
      <trkpt lat="46.74167" lon="-0.09188">
        <ele>140</ele>
        <time>2019-02-03T23:26:18.974Z</time>
      </trkpt>
      <trkpt lat="46.74173" lon="-0.09175">
        <ele>139.7</ele>
        <time>2019-02-03T23:26:19.189Z</time>
      </trkpt>
      <trkpt lat="46.74186" lon="-0.09133">
        <ele>139.8</ele>
        <time>2019-02-03T23:26:19.822Z</time>
      </trkpt>
      <trkpt lat="46.74198" lon="-0.09099">
        <ele>139.7</ele>
        <time>2019-02-03T23:26:20.347Z</time>
      </trkpt>
      <trkpt lat="46.74209" lon="-0.09077">
        <ele>139.1</ele>
        <time>2019-02-03T23:26:20.721Z</time>
      </trkpt>
      <trkpt lat="46.7423" lon="-0.09041">
        <ele>136.6</ele>
        <time>2019-02-03T23:26:21.370Z</time>
      </trkpt>
      <trkpt lat="46.74237" lon="-0.09023">
        <ele>135.5</ele>
        <time>2019-02-03T23:26:21.654Z</time>
      </trkpt>
      <trkpt lat="46.74241" lon="-0.09002">
        <ele>135.5</ele>
        <time>2019-02-03T23:26:21.953Z</time>
      </trkpt>
      <trkpt lat="46.74255" lon="-0.08946">
        <ele>135.2</ele>
        <time>2019-02-03T23:26:22.772Z</time>
      </trkpt>
      <trkpt lat="46.74266" lon="-0.08917">
        <ele>134.7</ele>
        <time>2019-02-03T23:26:23.227Z</time>
      </trkpt>
      <trkpt lat="46.74285" lon="-0.08869">
        <ele>135.7</ele>
        <time>2019-02-03T23:26:23.988Z</time>
      </trkpt>
      <trkpt lat="46.743" lon="-0.08844">
        <ele>135.7</ele>
        <time>2019-02-03T23:26:24.444Z</time>
      </trkpt>
      <trkpt lat="46.74311" lon="-0.08832">
        <ele>135.5</ele>
        <time>2019-02-03T23:26:24.719Z</time>
      </trkpt>
      <trkpt lat="46.74328" lon="-0.08822">
        <ele>134.3</ele>
        <time>2019-02-03T23:26:25.086Z</time>
      </trkpt>
      <trkpt lat="46.7434" lon="-0.08816">
        <ele>133.4</ele>
        <time>2019-02-03T23:26:25.340Z</time>
      </trkpt>
      <trkpt lat="46.7435" lon="-0.08816">
        <ele>132.2</ele>
        <time>2019-02-03T23:26:25.540Z</time>
      </trkpt>
      <trkpt lat="46.74364" lon="-0.08805">
        <ele>131.7</ele>
        <time>2019-02-03T23:26:25.859Z</time>
      </trkpt>
      <trkpt lat="46.74373" lon="-0.08794">
        <ele>131.5</ele>
        <time>2019-02-03T23:26:26.094Z</time>
      </trkpt>
      <trkpt lat="46.74388" lon="-0.08755">
        <ele>132.7</ele>
        <time>2019-02-03T23:26:26.708Z</time>
      </trkpt>
      <trkpt lat="46.74395" lon="-0.08725">
        <ele>133.5</ele>
        <time>2019-02-03T23:26:27.143Z</time>
      </trkpt>
      <trkpt lat="46.74394" lon="-0.08713">
        <ele>133.7</ele>
        <time>2019-02-03T23:26:27.309Z</time>
      </trkpt>
      <trkpt lat="46.74388" lon="-0.08706">
        <ele>134</ele>
        <time>2019-02-03T23:26:27.463Z</time>
      </trkpt>
      <trkpt lat="46.74369" lon="-0.0866">
        <ele>133.9</ele>
        <time>2019-02-03T23:26:28.201Z</time>
      </trkpt>
      <trkpt lat="46.74366" lon="-0.08645">
        <ele>133.9</ele>
        <time>2019-02-03T23:26:28.416Z</time>
      </trkpt>
      <trkpt lat="46.74321" lon="-0.08641">
        <ele>134.5</ele>
        <time>2019-02-03T23:26:29.319Z</time>
      </trkpt>
      <trkpt lat="46.74302" lon="-0.08644">
        <ele>135.2</ele>
        <time>2019-02-03T23:26:29.702Z</time>
      </trkpt>
      <trkpt lat="46.74255" lon="-0.08658">
        <ele>137.2</ele>
        <time>2019-02-03T23:26:30.663Z</time>
      </trkpt>
      <trkpt lat="46.74254" lon="-0.08648">
        <ele>136.5</ele>
        <time>2019-02-03T23:26:30.802Z</time>
      </trkpt>
      <trkpt lat="46.74254" lon="-0.08632">
        <ele>135.4</ele>
        <time>2019-02-03T23:26:31.022Z</time>
      </trkpt>
      <trkpt lat="46.7426" lon="-0.0859">
        <ele>131.1</ele>
        <time>2019-02-03T23:26:31.611Z</time>
      </trkpt>
      <trkpt lat="46.74271" lon="-0.08484">
        <ele>119</ele>
        <time>2019-02-03T23:26:33.083Z</time>
      </trkpt>
      <trkpt lat="46.74273" lon="-0.08445">
        <ele>119.2</ele>
        <time>2019-02-03T23:26:33.620Z</time>
      </trkpt>
      <trkpt lat="46.74308" lon="-0.08415">
        <ele>122.2</ele>
        <time>2019-02-03T23:26:34.433Z</time>
      </trkpt>
      <trkpt lat="46.74337" lon="-0.08382">
        <ele>126.7</ele>
        <time>2019-02-03T23:26:35.170Z</time>
      </trkpt>
      <trkpt lat="46.74344" lon="-0.08368">
        <ele>128.3</ele>
        <time>2019-02-03T23:26:35.408Z</time>
      </trkpt>
      <trkpt lat="46.74346" lon="-0.08349">
        <ele>130.3</ele>
        <time>2019-02-03T23:26:35.672Z</time>
      </trkpt>
      <trkpt lat="46.7435" lon="-0.08326">
        <ele>132.7</ele>
        <time>2019-02-03T23:26:35.998Z</time>
      </trkpt>
      <trkpt lat="46.74358" lon="-0.0831">
        <ele>134.4</ele>
        <time>2019-02-03T23:26:36.270Z</time>
      </trkpt>
      <trkpt lat="46.74376" lon="-0.08286">
        <ele>136.8</ele>
        <time>2019-02-03T23:26:36.759Z</time>
      </trkpt>
      <trkpt lat="46.74382" lon="-0.08271">
        <ele>138.2</ele>
        <time>2019-02-03T23:26:36.998Z</time>
      </trkpt>
      <trkpt lat="46.74391" lon="-0.08232">
        <ele>140.6</ele>
        <time>2019-02-03T23:26:37.563Z</time>
      </trkpt>
      <trkpt lat="46.74398" lon="-0.0819">
        <ele>142</ele>
        <time>2019-02-03T23:26:38.157Z</time>
      </trkpt>
      <trkpt lat="46.74392" lon="-0.08177">
        <ele>142</ele>
        <time>2019-02-03T23:26:38.372Z</time>
      </trkpt>
      <trkpt lat="46.7439" lon="-0.08165">
        <ele>141.9</ele>
        <time>2019-02-03T23:26:38.542Z</time>
      </trkpt>
      <trkpt lat="46.74393" lon="-0.08146">
        <ele>141.4</ele>
        <time>2019-02-03T23:26:38.810Z</time>
      </trkpt>
      <trkpt lat="46.74396" lon="-0.08115">
        <ele>141</ele>
        <time>2019-02-03T23:26:39.240Z</time>
      </trkpt>
      <trkpt lat="46.74396" lon="-0.08099">
        <ele>140.7</ele>
        <time>2019-02-03T23:26:39.460Z</time>
      </trkpt>
      <trkpt lat="46.74391" lon="-0.08038">
        <ele>138.6</ele>
        <time>2019-02-03T23:26:40.304Z</time>
      </trkpt>
      <trkpt lat="46.74393" lon="-0.08011">
        <ele>137.8</ele>
        <time>2019-02-03T23:26:40.677Z</time>
      </trkpt>
      <trkpt lat="46.74402" lon="-0.0798">
        <ele>137.7</ele>
        <time>2019-02-03T23:26:41.139Z</time>
      </trkpt>
      <trkpt lat="46.74407" lon="-0.07965">
        <ele>138</ele>
        <time>2019-02-03T23:26:41.368Z</time>
      </trkpt>
      <trkpt lat="46.7441" lon="-0.07944">
        <ele>137.8</ele>
        <time>2019-02-03T23:26:41.663Z</time>
      </trkpt>
      <trkpt lat="46.74413" lon="-0.07906">
        <ele>138.7</ele>
        <time>2019-02-03T23:26:42.188Z</time>
      </trkpt>
      <trkpt lat="46.74418" lon="-0.07815">
        <ele>141</ele>
        <time>2019-02-03T23:26:43.442Z</time>
      </trkpt>
      <trkpt lat="46.74419" lon="-0.07768">
        <ele>142</ele>
        <time>2019-02-03T23:26:44.088Z</time>
      </trkpt>
      <trkpt lat="46.74418" lon="-0.07755">
        <ele>142</ele>
        <time>2019-02-03T23:26:44.268Z</time>
      </trkpt>
      <trkpt lat="46.74412" lon="-0.07733">
        <ele>142</ele>
        <time>2019-02-03T23:26:44.593Z</time>
      </trkpt>
      <trkpt lat="46.74399" lon="-0.07685">
        <ele>142.1</ele>
        <time>2019-02-03T23:26:45.302Z</time>
      </trkpt>
      <trkpt lat="46.74389" lon="-0.07651">
        <ele>142.6</ele>
        <time>2019-02-03T23:26:45.810Z</time>
      </trkpt>
      <trkpt lat="46.74383" lon="-0.07636">
        <ele>142.8</ele>
        <time>2019-02-03T23:26:46.049Z</time>
      </trkpt>
      <trkpt lat="46.74358" lon="-0.076">
        <ele>142</ele>
        <time>2019-02-03T23:26:46.753Z</time>
      </trkpt>
      <trkpt lat="46.74327" lon="-0.07563">
        <ele>142</ele>
        <time>2019-02-03T23:26:47.556Z</time>
      </trkpt>
      <trkpt lat="46.74273" lon="-0.07489">
        <ele>142</ele>
        <time>2019-02-03T23:26:49.040Z</time>
      </trkpt>
      <trkpt lat="46.74236" lon="-0.07442">
        <ele>142</ele>
        <time>2019-02-03T23:26:50.023Z</time>
      </trkpt>
      <trkpt lat="46.74219" lon="-0.07425">
        <ele>142</ele>
        <time>2019-02-03T23:26:50.436Z</time>
      </trkpt>
      <trkpt lat="46.74172" lon="-0.07341">
        <ele>142</ele>
        <time>2019-02-03T23:26:51.925Z</time>
      </trkpt>
      <trkpt lat="46.74146" lon="-0.0729">
        <ele>142</ele>
        <time>2019-02-03T23:26:52.798Z</time>
      </trkpt>
      <trkpt lat="46.74139" lon="-0.07268">
        <ele>142</ele>
        <time>2019-02-03T23:26:53.131Z</time>
      </trkpt>
      <trkpt lat="46.74133" lon="-0.07243">
        <ele>141.7</ele>
        <time>2019-02-03T23:26:53.495Z</time>
      </trkpt>
      <trkpt lat="46.7411" lon="-0.07201">
        <ele>141</ele>
        <time>2019-02-03T23:26:54.233Z</time>
      </trkpt>
      <trkpt lat="46.74087" lon="-0.07166">
        <ele>140</ele>
        <time>2019-02-03T23:26:54.899Z</time>
      </trkpt>
      <trkpt lat="46.74079" lon="-0.07147">
        <ele>139.8</ele>
        <time>2019-02-03T23:26:55.205Z</time>
      </trkpt>
      <trkpt lat="46.74075" lon="-0.07123">
        <ele>138.8</ele>
        <time>2019-02-03T23:26:55.544Z</time>
      </trkpt>
      <trkpt lat="46.74076" lon="-0.07092">
        <ele>137.1</ele>
        <time>2019-02-03T23:26:55.970Z</time>
      </trkpt>
      <trkpt lat="46.74072" lon="-0.07065">
        <ele>134.9</ele>
        <time>2019-02-03T23:26:56.349Z</time>
      </trkpt>
      <trkpt lat="46.74075" lon="-0.07058">
        <ele>134.6</ele>
        <time>2019-02-03T23:26:56.462Z</time>
      </trkpt>
      <trkpt lat="46.74061" lon="-0.07059">
        <ele>133.6</ele>
        <time>2019-02-03T23:26:56.743Z</time>
      </trkpt>
      <trkpt lat="46.7404" lon="-0.07064">
        <ele>132.3</ele>
        <time>2019-02-03T23:26:57.169Z</time>
      </trkpt>
      <trkpt lat="46.74033" lon="-0.07065">
        <ele>131.8</ele>
        <time>2019-02-03T23:26:57.310Z</time>
      </trkpt>
      <trkpt lat="46.7403" lon="-0.07058">
        <ele>131.3</ele>
        <time>2019-02-03T23:26:57.423Z</time>
      </trkpt>
      <trkpt lat="46.74027" lon="-0.07055">
        <ele>131</ele>
        <time>2019-02-03T23:26:57.496Z</time>
      </trkpt>
      <trkpt lat="46.74014" lon="-0.07045">
        <ele>131.8</ele>
        <time>2019-02-03T23:26:57.790Z</time>
      </trkpt>
      <trkpt lat="46.73992" lon="-0.07037">
        <ele>132.5</ele>
        <time>2019-02-03T23:26:58.244Z</time>
      </trkpt>
      <trkpt lat="46.73967" lon="-0.07024">
        <ele>134.6</ele>
        <time>2019-02-03T23:26:58.776Z</time>
      </trkpt>
      <trkpt lat="46.73954" lon="-0.07013">
        <ele>135.9</ele>
        <time>2019-02-03T23:26:59.077Z</time>
      </trkpt>
      <trkpt lat="46.73941" lon="-0.07008">
        <ele>136.5</ele>
        <time>2019-02-03T23:26:59.346Z</time>
      </trkpt>
      <trkpt lat="46.73907" lon="-0.0699">
        <ele>138.4</ele>
        <time>2019-02-03T23:27:00.071Z</time>
      </trkpt>
      <trkpt lat="46.73896" lon="-0.06982">
        <ele>138.6</ele>
        <time>2019-02-03T23:27:00.317Z</time>
      </trkpt>
      <trkpt lat="46.7388" lon="-0.06976">
        <ele>138.8</ele>
        <time>2019-02-03T23:27:00.648Z</time>
      </trkpt>
      <trkpt lat="46.73846" lon="-0.06963">
        <ele>139</ele>
        <time>2019-02-03T23:27:01.352Z</time>
      </trkpt>
      <trkpt lat="46.73823" lon="-0.06953">
        <ele>139.5</ele>
        <time>2019-02-03T23:27:01.833Z</time>
      </trkpt>
      <trkpt lat="46.7381" lon="-0.06942">
        <ele>140.1</ele>
        <time>2019-02-03T23:27:02.134Z</time>
      </trkpt>
      <trkpt lat="46.73798" lon="-0.06926">
        <ele>140.8</ele>
        <time>2019-02-03T23:27:02.460Z</time>
      </trkpt>
      <trkpt lat="46.73792" lon="-0.0692">
        <ele>140.9</ele>
        <time>2019-02-03T23:27:02.606Z</time>
      </trkpt>
      <trkpt lat="46.73787" lon="-0.06921">
        <ele>140.9</ele>
        <time>2019-02-03T23:27:02.707Z</time>
      </trkpt>
      <trkpt lat="46.73778" lon="-0.06927">
        <ele>141</ele>
        <time>2019-02-03T23:27:02.905Z</time>
      </trkpt>
      <trkpt lat="46.73758" lon="-0.06945">
        <ele>141.7</ele>
        <time>2019-02-03T23:27:03.376Z</time>
      </trkpt>
      <trkpt lat="46.7375" lon="-0.06944">
        <ele>142</ele>
        <time>2019-02-03T23:27:03.537Z</time>
      </trkpt>
      <trkpt lat="46.73718" lon="-0.06913">
        <ele>143.3</ele>
        <time>2019-02-03T23:27:04.307Z</time>
      </trkpt>
      <trkpt lat="46.73697" lon="-0.0689">
        <ele>144</ele>
        <time>2019-02-03T23:27:04.833Z</time>
      </trkpt>
      <trkpt lat="46.73625" lon="-0.06778">
        <ele>145</ele>
        <time>2019-02-03T23:27:06.942Z</time>
      </trkpt>
      <trkpt lat="46.73617" lon="-0.06761">
        <ele>145</ele>
        <time>2019-02-03T23:27:07.225Z</time>
      </trkpt>
      <trkpt lat="46.73607" lon="-0.06737">
        <ele>145</ele>
        <time>2019-02-03T23:27:07.611Z</time>
      </trkpt>
      <trkpt lat="46.73586" lon="-0.06788">
        <ele>144.7</ele>
        <time>2019-02-03T23:27:08.428Z</time>
      </trkpt>
      <trkpt lat="46.73582" lon="-0.06808">
        <ele>143.8</ele>
        <time>2019-02-03T23:27:08.714Z</time>
      </trkpt>
      <trkpt lat="46.73581" lon="-0.06837">
        <ele>142.8</ele>
        <time>2019-02-03T23:27:09.113Z</time>
      </trkpt>
      <trkpt lat="46.73578" lon="-0.06848">
        <ele>142.3</ele>
        <time>2019-02-03T23:27:09.276Z</time>
      </trkpt>
      <trkpt lat="46.73566" lon="-0.0687">
        <ele>141.2</ele>
        <time>2019-02-03T23:27:09.662Z</time>
      </trkpt>
      <trkpt lat="46.73564" lon="-0.06883">
        <ele>140.8</ele>
        <time>2019-02-03T23:27:09.845Z</time>
      </trkpt>
      <trkpt lat="46.73574" lon="-0.06927">
        <ele>140.1</ele>
        <time>2019-02-03T23:27:10.482Z</time>
      </trkpt>
      <trkpt lat="46.73615" lon="-0.07017">
        <ele>140.5</ele>
        <time>2019-02-03T23:27:11.966Z</time>
      </trkpt>
      <trkpt lat="46.73623" lon="-0.0704">
        <ele>140</ele>
        <time>2019-02-03T23:27:12.320Z</time>
      </trkpt>
      <trkpt lat="46.7363" lon="-0.07059">
        <ele>139.6</ele>
        <time>2019-02-03T23:27:12.616Z</time>
      </trkpt>
      <trkpt lat="46.73643" lon="-0.07079">
        <ele>140</ele>
        <time>2019-02-03T23:27:12.995Z</time>
      </trkpt>
      <trkpt lat="46.7365" lon="-0.07104">
        <ele>138.8</ele>
        <time>2019-02-03T23:27:13.366Z</time>
      </trkpt>
      <trkpt lat="46.73656" lon="-0.0713">
        <ele>137.9</ele>
        <time>2019-02-03T23:27:13.743Z</time>
      </trkpt>
      <trkpt lat="46.73666" lon="-0.07155">
        <ele>136.8</ele>
        <time>2019-02-03T23:27:14.141Z</time>
      </trkpt>
      <trkpt lat="46.73684" lon="-0.07185">
        <ele>133.4</ele>
        <time>2019-02-03T23:27:14.689Z</time>
      </trkpt>
      <trkpt lat="46.73706" lon="-0.07216">
        <ele>130.4</ele>
        <time>2019-02-03T23:27:15.302Z</time>
      </trkpt>
      <trkpt lat="46.73723" lon="-0.07233">
        <ele>128.4</ele>
        <time>2019-02-03T23:27:15.715Z</time>
      </trkpt>
      <trkpt lat="46.73715" lon="-0.0724">
        <ele>127.8</ele>
        <time>2019-02-03T23:27:15.902Z</time>
      </trkpt>
      <trkpt lat="46.73681" lon="-0.07264">
        <ele>126.5</ele>
        <time>2019-02-03T23:27:16.659Z</time>
      </trkpt>
      <trkpt lat="46.73657" lon="-0.07281">
        <ele>125.1</ele>
        <time>2019-02-03T23:27:17.194Z</time>
      </trkpt>
      <trkpt lat="46.73638" lon="-0.07289">
        <ele>124.8</ele>
        <time>2019-02-03T23:27:17.590Z</time>
      </trkpt>
      <trkpt lat="46.73611" lon="-0.07294">
        <ele>123.8</ele>
        <time>2019-02-03T23:27:18.135Z</time>
      </trkpt>
      <trkpt lat="46.7359" lon="-0.07292">
        <ele>123.6</ele>
        <time>2019-02-03T23:27:18.557Z</time>
      </trkpt>
      <trkpt lat="46.73574" lon="-0.07279">
        <ele>123.6</ele>
        <time>2019-02-03T23:27:18.924Z</time>
      </trkpt>
      <trkpt lat="46.73562" lon="-0.07265">
        <ele>123.8</ele>
        <time>2019-02-03T23:27:19.232Z</time>
      </trkpt>
      <trkpt lat="46.73547" lon="-0.0724">
        <ele>123.9</ele>
        <time>2019-02-03T23:27:19.688Z</time>
      </trkpt>
      <trkpt lat="46.73536" lon="-0.0721">
        <ele>124.2</ele>
        <time>2019-02-03T23:27:20.155Z</time>
      </trkpt>
      <trkpt lat="46.73527" lon="-0.07178">
        <ele>125.1</ele>
        <time>2019-02-03T23:27:20.630Z</time>
      </trkpt>
      <trkpt lat="46.73484" lon="-0.07212">
        <ele>123.9</ele>
        <time>2019-02-03T23:27:21.610Z</time>
      </trkpt>
      <trkpt lat="46.73449" lon="-0.07233">
        <ele>126.2</ele>
        <time>2019-02-03T23:27:22.368Z</time>
      </trkpt>
      <trkpt lat="46.73436" lon="-0.07237">
        <ele>127</ele>
        <time>2019-02-03T23:27:22.634Z</time>
      </trkpt>
      <trkpt lat="46.73428" lon="-0.07235">
        <ele>127.4</ele>
        <time>2019-02-03T23:27:22.797Z</time>
      </trkpt>
      <trkpt lat="46.73424" lon="-0.07228">
        <ele>127.5</ele>
        <time>2019-02-03T23:27:22.922Z</time>
      </trkpt>
      <trkpt lat="46.73418" lon="-0.07199">
        <ele>127.1</ele>
        <time>2019-02-03T23:27:23.338Z</time>
      </trkpt>
      <trkpt lat="46.73414" lon="-0.07164">
        <ele>127.3</ele>
        <time>2019-02-03T23:27:23.825Z</time>
      </trkpt>
      <trkpt lat="46.73403" lon="-0.07119">
        <ele>128.5</ele>
        <time>2019-02-03T23:27:24.481Z</time>
      </trkpt>
      <trkpt lat="46.73391" lon="-0.07092">
        <ele>129.8</ele>
        <time>2019-02-03T23:27:24.923Z</time>
      </trkpt>
      <trkpt lat="46.73378" lon="-0.07073">
        <ele>130.9</ele>
        <time>2019-02-03T23:27:25.292Z</time>
      </trkpt>
      <trkpt lat="46.73356" lon="-0.07048">
        <ele>133.3</ele>
        <time>2019-02-03T23:27:25.851Z</time>
      </trkpt>
      <trkpt lat="46.73335" lon="-0.07026">
        <ele>134.8</ele>
        <time>2019-02-03T23:27:26.369Z</time>
      </trkpt>
      <trkpt lat="46.7331" lon="-0.06984">
        <ele>136</ele>
        <time>2019-02-03T23:27:27.133Z</time>
      </trkpt>
      <trkpt lat="46.73286" lon="-0.06937">
        <ele>134.4</ele>
        <time>2019-02-03T23:27:27.938Z</time>
      </trkpt>
      <trkpt lat="46.73257" lon="-0.06899">
        <ele>134.1</ele>
        <time>2019-02-03T23:27:28.719Z</time>
      </trkpt>
      <trkpt lat="46.73213" lon="-0.0682">
        <ele>136.3</ele>
        <time>2019-02-03T23:27:30.117Z</time>
      </trkpt>
      <trkpt lat="46.73218" lon="-0.06811">
        <ele>136.2</ele>
        <time>2019-02-03T23:27:30.276Z</time>
      </trkpt>
      <trkpt lat="46.73217" lon="-0.06798">
        <ele>135.9</ele>
        <time>2019-02-03T23:27:30.456Z</time>
      </trkpt>
      <trkpt lat="46.73211" lon="-0.06757">
        <ele>134.7</ele>
        <time>2019-02-03T23:27:31.032Z</time>
      </trkpt>
      <trkpt lat="46.73206" lon="-0.0674">
        <ele>134.2</ele>
        <time>2019-02-03T23:27:31.286Z</time>
      </trkpt>
      <trkpt lat="46.73195" lon="-0.06725">
        <ele>134.1</ele>
        <time>2019-02-03T23:27:31.588Z</time>
      </trkpt>
      <trkpt lat="46.73183" lon="-0.06717">
        <ele>133.5</ele>
        <time>2019-02-03T23:27:31.852Z</time>
      </trkpt>
      <trkpt lat="46.73146" lon="-0.06704">
        <ele>133.7</ele>
        <time>2019-02-03T23:27:32.615Z</time>
      </trkpt>
      <trkpt lat="46.73124" lon="-0.06694">
        <ele>133.5</ele>
        <time>2019-02-03T23:27:33.077Z</time>
      </trkpt>
      <trkpt lat="46.73106" lon="-0.06684">
        <ele>133.1</ele>
        <time>2019-02-03T23:27:33.463Z</time>
      </trkpt>
      <trkpt lat="46.7306" lon="-0.06676">
        <ele>133</ele>
        <time>2019-02-03T23:27:34.391Z</time>
      </trkpt>
      <trkpt lat="46.73047" lon="-0.06672">
        <ele>132.5</ele>
        <time>2019-02-03T23:27:34.657Z</time>
      </trkpt>
      <trkpt lat="46.73041" lon="-0.06663">
        <ele>131.7</ele>
        <time>2019-02-03T23:27:34.829Z</time>
      </trkpt>
      <trkpt lat="46.73039" lon="-0.06631">
        <ele>129.6</ele>
        <time>2019-02-03T23:27:35.270Z</time>
      </trkpt>
      <trkpt lat="46.73038" lon="-0.06625">
        <ele>129.3</ele>
        <time>2019-02-03T23:27:35.355Z</time>
      </trkpt>
      <trkpt lat="46.73029" lon="-0.06643">
        <ele>131.1</ele>
        <time>2019-02-03T23:27:35.661Z</time>
      </trkpt>
      <trkpt lat="46.72999" lon="-0.06688">
        <ele>133.8</ele>
        <time>2019-02-03T23:27:36.523Z</time>
      </trkpt>
      <trkpt lat="46.72989" lon="-0.06702">
        <ele>134.8</ele>
        <time>2019-02-03T23:27:36.801Z</time>
      </trkpt>
      <trkpt lat="46.72984" lon="-0.06708">
        <ele>135.3</ele>
        <time>2019-02-03T23:27:36.931Z</time>
      </trkpt>
      <trkpt lat="46.72974" lon="-0.06692">
        <ele>134.9</ele>
        <time>2019-02-03T23:27:37.228Z</time>
      </trkpt>
      <trkpt lat="46.72968" lon="-0.06683">
        <ele>135.4</ele>
        <time>2019-02-03T23:27:37.400Z</time>
      </trkpt>
      <trkpt lat="46.72957" lon="-0.06674">
        <ele>136.5</ele>
        <time>2019-02-03T23:27:37.653Z</time>
      </trkpt>
      <trkpt lat="46.72942" lon="-0.06665">
        <ele>138.2</ele>
        <time>2019-02-03T23:27:37.978Z</time>
      </trkpt>
      <trkpt lat="46.72932" lon="-0.06662">
        <ele>138.8</ele>
        <time>2019-02-03T23:27:38.183Z</time>
      </trkpt>
      <trkpt lat="46.72898" lon="-0.06664">
        <ele>140.6</ele>
        <time>2019-02-03T23:27:38.865Z</time>
      </trkpt>
      <trkpt lat="46.72875" lon="-0.06671">
        <ele>142</ele>
        <time>2019-02-03T23:27:39.336Z</time>
      </trkpt>
      <trkpt lat="46.72867" lon="-0.06672">
        <ele>142.6</ele>
        <time>2019-02-03T23:27:39.497Z</time>
      </trkpt>
      <trkpt lat="46.72866" lon="-0.06626">
        <ele>141.7</ele>
        <time>2019-02-03T23:27:40.129Z</time>
      </trkpt>
      <trkpt lat="46.72857" lon="-0.06555">
        <ele>140.1</ele>
        <time>2019-02-03T23:27:41.121Z</time>
      </trkpt>
      <trkpt lat="46.72854" lon="-0.06525">
        <ele>139.9</ele>
        <time>2019-02-03T23:27:41.537Z</time>
      </trkpt>
      <trkpt lat="46.72855" lon="-0.06491">
        <ele>138.6</ele>
        <time>2019-02-03T23:27:42.004Z</time>
      </trkpt>
      <trkpt lat="46.72872" lon="-0.06449">
        <ele>135.9</ele>
        <time>2019-02-03T23:27:42.674Z</time>
      </trkpt>
      <trkpt lat="46.72871" lon="-0.06431">
        <ele>134.8</ele>
        <time>2019-02-03T23:27:42.922Z</time>
      </trkpt>
      <trkpt lat="46.72864" lon="-0.06413">
        <ele>133.9</ele>
        <time>2019-02-03T23:27:43.206Z</time>
      </trkpt>
      <trkpt lat="46.72859" lon="-0.06395">
        <ele>133.3</ele>
        <time>2019-02-03T23:27:43.473Z</time>
      </trkpt>
      <trkpt lat="46.72857" lon="-0.06376">
        <ele>133.2</ele>
        <time>2019-02-03T23:27:43.737Z</time>
      </trkpt>
      <trkpt lat="46.72861" lon="-0.06334">
        <ele>134</ele>
        <time>2019-02-03T23:27:44.319Z</time>
      </trkpt>
      <trkpt lat="46.72862" lon="-0.06283">
        <ele>136.7</ele>
        <time>2019-02-03T23:27:45.020Z</time>
      </trkpt>
      <trkpt lat="46.7286" lon="-0.0624">
        <ele>138.1</ele>
        <time>2019-02-03T23:27:45.612Z</time>
      </trkpt>
      <trkpt lat="46.72856" lon="-0.06193">
        <ele>139.2</ele>
        <time>2019-02-03T23:27:46.263Z</time>
      </trkpt>
      <trkpt lat="46.72859" lon="-0.06167">
        <ele>139.2</ele>
        <time>2019-02-03T23:27:46.625Z</time>
      </trkpt>
      <trkpt lat="46.72866" lon="-0.06148">
        <ele>139.3</ele>
        <time>2019-02-03T23:27:46.921Z</time>
      </trkpt>
      <trkpt lat="46.72878" lon="-0.06121">
        <ele>138.8</ele>
        <time>2019-02-03T23:27:47.363Z</time>
      </trkpt>
      <trkpt lat="46.72883" lon="-0.06102">
        <ele>138.7</ele>
        <time>2019-02-03T23:27:47.643Z</time>
      </trkpt>
      <trkpt lat="46.72888" lon="-0.06029">
        <ele>139</ele>
        <time>2019-02-03T23:27:48.651Z</time>
      </trkpt>
      <trkpt lat="46.72888" lon="-0.0594">
        <ele>135.9</ele>
        <time>2019-02-03T23:27:49.874Z</time>
      </trkpt>
      <trkpt lat="46.72883" lon="-0.05899">
        <ele>133.9</ele>
        <time>2019-02-03T23:27:50.446Z</time>
      </trkpt>
      <trkpt lat="46.72875" lon="-0.05879">
        <ele>132.4</ele>
        <time>2019-02-03T23:27:50.764Z</time>
      </trkpt>
      <trkpt lat="46.7286" lon="-0.05857">
        <ele>130.7</ele>
        <time>2019-02-03T23:27:51.190Z</time>
      </trkpt>
      <trkpt lat="46.72833" lon="-0.05822">
        <ele>129.6</ele>
        <time>2019-02-03T23:27:51.914Z</time>
      </trkpt>
      <trkpt lat="46.72827" lon="-0.05808">
        <ele>129.3</ele>
        <time>2019-02-03T23:27:52.141Z</time>
      </trkpt>
      <trkpt lat="46.72825" lon="-0.05794">
        <ele>129</ele>
        <time>2019-02-03T23:27:52.337Z</time>
      </trkpt>
      <trkpt lat="46.7283" lon="-0.0579">
        <ele>128.6</ele>
        <time>2019-02-03T23:27:52.451Z</time>
      </trkpt>
      <trkpt lat="46.72836" lon="-0.05782">
        <ele>128.1</ele>
        <time>2019-02-03T23:27:52.614Z</time>
      </trkpt>
      <trkpt lat="46.72853" lon="-0.05747">
        <ele>128</ele>
        <time>2019-02-03T23:27:53.203Z</time>
      </trkpt>
      <trkpt lat="46.72862" lon="-0.05731">
        <ele>128</ele>
        <time>2019-02-03T23:27:53.487Z</time>
      </trkpt>
      <trkpt lat="46.72868" lon="-0.05727">
        <ele>128.4</ele>
        <time>2019-02-03T23:27:53.619Z</time>
      </trkpt>
      <trkpt lat="46.72858" lon="-0.05666">
        <ele>129.8</ele>
        <time>2019-02-03T23:27:54.481Z</time>
      </trkpt>
      <trkpt lat="46.72858" lon="-0.0565">
        <ele>129.8</ele>
        <time>2019-02-03T23:27:54.701Z</time>
      </trkpt>
      <trkpt lat="46.72936" lon="-0.05518">
        <ele>137.2</ele>
        <time>2019-02-03T23:27:57.101Z</time>
      </trkpt>
      <trkpt lat="46.72949" lon="-0.05475">
        <ele>139.1</ele>
        <time>2019-02-03T23:27:57.735Z</time>
      </trkpt>
      <trkpt lat="46.72909" lon="-0.05474">
        <ele>130.2</ele>
        <time>2019-02-03T23:27:58.538Z</time>
      </trkpt>
      <trkpt lat="46.72921" lon="-0.0542">
        <ele>130.9</ele>
        <time>2019-02-03T23:27:59.330Z</time>
      </trkpt>
      <trkpt lat="46.72921" lon="-0.05365">
        <ele>129.6</ele>
        <time>2019-02-03T23:28:00.081Z</time>
      </trkpt>
      <trkpt lat="46.72923" lon="-0.05292">
        <ele>130.1</ele>
        <time>2019-02-03T23:28:01.085Z</time>
      </trkpt>
      <trkpt lat="46.72917" lon="-0.05231">
        <ele>129.8</ele>
        <time>2019-02-03T23:28:01.931Z</time>
      </trkpt>
      <trkpt lat="46.72911" lon="-0.05197">
        <ele>131.2</ele>
        <time>2019-02-03T23:28:02.413Z</time>
      </trkpt>
      <trkpt lat="46.72891" lon="-0.05142">
        <ele>130.4</ele>
        <time>2019-02-03T23:28:03.268Z</time>
      </trkpt>
      <trkpt lat="46.72848" lon="-0.05021">
        <ele>130.8</ele>
        <time>2019-02-03T23:28:05.140Z</time>
      </trkpt>
      <trkpt lat="46.72845" lon="-0.05018">
        <ele>130.6</ele>
        <time>2019-02-03T23:28:05.213Z</time>
      </trkpt>
      <trkpt lat="46.72843" lon="-0.05017">
        <ele>130.4</ele>
        <time>2019-02-03T23:28:05.255Z</time>
      </trkpt>
      <trkpt lat="46.7283" lon="-0.05037">
        <ele>129</ele>
        <time>2019-02-03T23:28:05.634Z</time>
      </trkpt>
      <trkpt lat="46.72829" lon="-0.0504">
        <ele>129</ele>
        <time>2019-02-03T23:28:05.680Z</time>
      </trkpt>
      <trkpt lat="46.72814" lon="-0.05064">
        <ele>129.2</ele>
        <time>2019-02-03T23:28:06.126Z</time>
      </trkpt>
      <trkpt lat="46.72777" lon="-0.0512">
        <ele>131.7</ele>
        <time>2019-02-03T23:28:07.194Z</time>
      </trkpt>
      <trkpt lat="46.72763" lon="-0.05143">
        <ele>133.7</ele>
        <time>2019-02-03T23:28:07.617Z</time>
      </trkpt>
      <trkpt lat="46.72753" lon="-0.05173">
        <ele>135.1</ele>
        <time>2019-02-03T23:28:08.075Z</time>
      </trkpt>
      <trkpt lat="46.72736" lon="-0.05259">
        <ele>138.7</ele>
        <time>2019-02-03T23:28:09.304Z</time>
      </trkpt>
      <trkpt lat="46.72727" lon="-0.05278">
        <ele>139.7</ele>
        <time>2019-02-03T23:28:09.621Z</time>
      </trkpt>
      <trkpt lat="46.72689" lon="-0.05342">
        <ele>143.4</ele>
        <time>2019-02-03T23:28:10.784Z</time>
      </trkpt>
      <trkpt lat="46.72649" lon="-0.05411">
        <ele>146.4</ele>
        <time>2019-02-03T23:28:12.025Z</time>
      </trkpt>
      <trkpt lat="46.72555" lon="-0.05553">
        <ele>148</ele>
        <time>2019-02-03T23:28:14.737Z</time>
      </trkpt>
      <trkpt lat="46.72507" lon="-0.05622">
        <ele>147.5</ele>
        <time>2019-02-03T23:28:16.087Z</time>
      </trkpt>
      <trkpt lat="46.72475" lon="-0.05675">
        <ele>147</ele>
        <time>2019-02-03T23:28:17.057Z</time>
      </trkpt>
      <trkpt lat="46.72428" lon="-0.05748">
        <ele>147.5</ele>
        <time>2019-02-03T23:28:18.433Z</time>
      </trkpt>
      <trkpt lat="46.72426" lon="-0.05754">
        <ele>147.5</ele>
        <time>2019-02-03T23:28:18.525Z</time>
      </trkpt>
      <trkpt lat="46.72417" lon="-0.05764">
        <ele>147.5</ele>
        <time>2019-02-03T23:28:18.752Z</time>
      </trkpt>
      <trkpt lat="46.72408" lon="-0.05778">
        <ele>147.3</ele>
        <time>2019-02-03T23:28:19.016Z</time>
      </trkpt>
      <trkpt lat="46.72391" lon="-0.05818">
        <ele>147.9</ele>
        <time>2019-02-03T23:28:19.663Z</time>
      </trkpt>
      <trkpt lat="46.72373" lon="-0.0585">
        <ele>148</ele>
        <time>2019-02-03T23:28:20.232Z</time>
      </trkpt>
      <trkpt lat="46.72372" lon="-0.05855">
        <ele>148</ele>
        <time>2019-02-03T23:28:20.304Z</time>
      </trkpt>
      <trkpt lat="46.72365" lon="-0.05893">
        <ele>148</ele>
        <time>2019-02-03T23:28:20.845Z</time>
      </trkpt>
      <trkpt lat="46.72347" lon="-0.05975">
        <ele>148.5</ele>
        <time>2019-02-03T23:28:22.028Z</time>
      </trkpt>
      <trkpt lat="46.72333" lon="-0.06029">
        <ele>149</ele>
        <time>2019-02-03T23:28:22.821Z</time>
      </trkpt>
      <trkpt lat="46.72326" lon="-0.06054">
        <ele>148.3</ele>
        <time>2019-02-03T23:28:23.192Z</time>
      </trkpt>
      <trkpt lat="46.7233" lon="-0.06065">
        <ele>148.1</ele>
        <time>2019-02-03T23:28:23.363Z</time>
      </trkpt>
      <trkpt lat="46.72341" lon="-0.0611">
        <ele>146.8</ele>
        <time>2019-02-03T23:28:24.019Z</time>
      </trkpt>
      <trkpt lat="46.72351" lon="-0.06151">
        <ele>145.6</ele>
        <time>2019-02-03T23:28:24.617Z</time>
      </trkpt>
      <trkpt lat="46.72358" lon="-0.06168">
        <ele>145.1</ele>
        <time>2019-02-03T23:28:24.889Z</time>
      </trkpt>
      <trkpt lat="46.72369" lon="-0.06201">
        <ele>144.9</ele>
        <time>2019-02-03T23:28:25.393Z</time>
      </trkpt>
      <trkpt lat="46.72385" lon="-0.06258">
        <ele>145.4</ele>
        <time>2019-02-03T23:28:26.239Z</time>
      </trkpt>
      <trkpt lat="46.72393" lon="-0.06284">
        <ele>146</ele>
        <time>2019-02-03T23:28:26.631Z</time>
      </trkpt>
      <trkpt lat="46.72412" lon="-0.06307">
        <ele>146.8</ele>
        <time>2019-02-03T23:28:27.126Z</time>
      </trkpt>
      <trkpt lat="46.72477" lon="-0.06402">
        <ele>148.4</ele>
        <time>2019-02-03T23:28:28.970Z</time>
      </trkpt>
      <trkpt lat="46.72489" lon="-0.06426">
        <ele>148.6</ele>
        <time>2019-02-03T23:28:29.378Z</time>
      </trkpt>
      <trkpt lat="46.72503" lon="-0.06449">
        <ele>148.9</ele>
        <time>2019-02-03T23:28:29.801Z</time>
      </trkpt>
      <trkpt lat="46.72521" lon="-0.06474">
        <ele>148.2</ele>
        <time>2019-02-03T23:28:30.299Z</time>
      </trkpt>
      <trkpt lat="46.72537" lon="-0.06504">
        <ele>148.1</ele>
        <time>2019-02-03T23:28:30.821Z</time>
      </trkpt>
      <trkpt lat="46.72549" lon="-0.06539">
        <ele>148.2</ele>
        <time>2019-02-03T23:28:31.359Z</time>
      </trkpt>
      <trkpt lat="46.72564" lon="-0.06566">
        <ele>148.3</ele>
        <time>2019-02-03T23:28:31.836Z</time>
      </trkpt>
      <trkpt lat="46.72604" lon="-0.06618">
        <ele>147.3</ele>
        <time>2019-02-03T23:28:32.910Z</time>
      </trkpt>
      <trkpt lat="46.7263" lon="-0.06673">
        <ele>146.5</ele>
        <time>2019-02-03T23:28:33.828Z</time>
      </trkpt>
      <trkpt lat="46.72658" lon="-0.0671">
        <ele>146.7</ele>
        <time>2019-02-03T23:28:34.585Z</time>
      </trkpt>
      <trkpt lat="46.72688" lon="-0.06748">
        <ele>147.2</ele>
        <time>2019-02-03T23:28:35.381Z</time>
      </trkpt>
      <trkpt lat="46.72716" lon="-0.06776">
        <ele>147.9</ele>
        <time>2019-02-03T23:28:36.061Z</time>
      </trkpt>
      <trkpt lat="46.72772" lon="-0.06835">
        <ele>148</ele>
        <time>2019-02-03T23:28:37.445Z</time>
      </trkpt>
      <trkpt lat="46.72781" lon="-0.0685">
        <ele>147.9</ele>
        <time>2019-02-03T23:28:37.719Z</time>
      </trkpt>
      <trkpt lat="46.72786" lon="-0.06857">
        <ele>147.7</ele>
        <time>2019-02-03T23:28:37.858Z</time>
      </trkpt>
      <trkpt lat="46.72784" lon="-0.06867">
        <ele>147.8</ele>
        <time>2019-02-03T23:28:38.001Z</time>
      </trkpt>
      <trkpt lat="46.72784" lon="-0.06869">
        <ele>147.8</ele>
        <time>2019-02-03T23:28:38.029Z</time>
      </trkpt>
      <trkpt lat="46.72773" lon="-0.06897">
        <ele>148.1</ele>
        <time>2019-02-03T23:28:38.472Z</time>
      </trkpt>
      <trkpt lat="46.72761" lon="-0.0692">
        <ele>148.6</ele>
        <time>2019-02-03T23:28:38.869Z</time>
      </trkpt>
      <trkpt lat="46.72739" lon="-0.06952">
        <ele>149.1</ele>
        <time>2019-02-03T23:28:39.492Z</time>
      </trkpt>
      <trkpt lat="46.72727" lon="-0.06978">
        <ele>149.9</ele>
        <time>2019-02-03T23:28:39.923Z</time>
      </trkpt>
      <trkpt lat="46.72716" lon="-0.07005">
        <ele>150.4</ele>
        <time>2019-02-03T23:28:40.354Z</time>
      </trkpt>
      <trkpt lat="46.72696" lon="-0.07045">
        <ele>151</ele>
        <time>2019-02-03T23:28:41.034Z</time>
      </trkpt>
      <trkpt lat="46.7268" lon="-0.07069">
        <ele>151.8</ele>
        <time>2019-02-03T23:28:41.494Z</time>
      </trkpt>
      <trkpt lat="46.72648" lon="-0.07108">
        <ele>152.7</ele>
        <time>2019-02-03T23:28:42.330Z</time>
      </trkpt>
      <trkpt lat="46.72626" lon="-0.07139">
        <ele>153.5</ele>
        <time>2019-02-03T23:28:42.943Z</time>
      </trkpt>
      <trkpt lat="46.72619" lon="-0.07155">
        <ele>153.9</ele>
        <time>2019-02-03T23:28:43.204Z</time>
      </trkpt>
      <trkpt lat="46.72588" lon="-0.07173">
        <ele>155.1</ele>
        <time>2019-02-03T23:28:43.873Z</time>
      </trkpt>
      <trkpt lat="46.72537" lon="-0.07199">
        <ele>156.1</ele>
        <time>2019-02-03T23:28:44.956Z</time>
      </trkpt>
      <trkpt lat="46.72523" lon="-0.07205">
        <ele>156.4</ele>
        <time>2019-02-03T23:28:45.248Z</time>
      </trkpt>
      <trkpt lat="46.72502" lon="-0.0721">
        <ele>156.6</ele>
        <time>2019-02-03T23:28:45.674Z</time>
      </trkpt>
      <trkpt lat="46.72483" lon="-0.07211">
        <ele>156.8</ele>
        <time>2019-02-03T23:28:46.055Z</time>
      </trkpt>
      <trkpt lat="46.72459" lon="-0.07205">
        <ele>157</ele>
        <time>2019-02-03T23:28:46.543Z</time>
      </trkpt>
      <trkpt lat="46.72404" lon="-0.07187">
        <ele>157</ele>
        <time>2019-02-03T23:28:47.673Z</time>
      </trkpt>
      <trkpt lat="46.72375" lon="-0.07178">
        <ele>157</ele>
        <time>2019-02-03T23:28:48.267Z</time>
      </trkpt>
      <trkpt lat="46.72358" lon="-0.07175">
        <ele>157</ele>
        <time>2019-02-03T23:28:48.610Z</time>
      </trkpt>
      <trkpt lat="46.72326" lon="-0.07175">
        <ele>157.3</ele>
        <time>2019-02-03T23:28:49.251Z</time>
      </trkpt>
      <trkpt lat="46.72314" lon="-0.07172">
        <ele>157.2</ele>
        <time>2019-02-03T23:28:49.495Z</time>
      </trkpt>
      <trkpt lat="46.72311" lon="-0.07204">
        <ele>158</ele>
        <time>2019-02-03T23:28:49.939Z</time>
      </trkpt>
      <trkpt lat="46.72309" lon="-0.07255">
        <ele>158</ele>
        <time>2019-02-03T23:28:50.641Z</time>
      </trkpt>
      <trkpt lat="46.72313" lon="-0.07287">
        <ele>158</ele>
        <time>2019-02-03T23:28:51.088Z</time>
      </trkpt>
      <trkpt lat="46.72312" lon="-0.07286">
        <ele>158</ele>
        <time>2019-02-03T23:28:51.113Z</time>
      </trkpt>
      <trkpt lat="46.72313" lon="-0.07295">
        <ele>158</ele>
        <time>2019-02-03T23:28:51.244Z</time>
      </trkpt>
      <trkpt lat="46.72314" lon="-0.07361">
        <ele>158</ele>
        <time>2019-02-03T23:28:52.151Z</time>
      </trkpt>
      <trkpt lat="46.72316" lon="-0.07418">
        <ele>157</ele>
        <time>2019-02-03T23:28:52.935Z</time>
      </trkpt>
      <trkpt lat="46.72325" lon="-0.07423">
        <ele>157</ele>
        <time>2019-02-03T23:28:53.128Z</time>
      </trkpt>
      <trkpt lat="46.72325" lon="-0.07429">
        <ele>157</ele>
        <time>2019-02-03T23:28:53.210Z</time>
      </trkpt>
      <trkpt lat="46.72326" lon="-0.07441">
        <ele>157</ele>
        <time>2019-02-03T23:28:53.376Z</time>
      </trkpt>
      <trkpt lat="46.72347" lon="-0.07544">
        <ele>157</ele>
        <time>2019-02-03T23:28:54.852Z</time>
      </trkpt>
      <trkpt lat="46.72358" lon="-0.07588">
        <ele>157</ele>
        <time>2019-02-03T23:28:55.495Z</time>
      </trkpt>
      <trkpt lat="46.72379" lon="-0.0763">
        <ele>157</ele>
        <time>2019-02-03T23:28:56.209Z</time>
      </trkpt>
      <trkpt lat="46.72407" lon="-0.07677">
        <ele>158</ele>
        <time>2019-02-03T23:28:57.064Z</time>
      </trkpt>
      <trkpt lat="46.72415" lon="-0.07685">
        <ele>158</ele>
        <time>2019-02-03T23:28:57.258Z</time>
      </trkpt>
      <trkpt lat="46.72438" lon="-0.07681">
        <ele>158</ele>
        <time>2019-02-03T23:28:57.722Z</time>
      </trkpt>
      <trkpt lat="46.72449" lon="-0.0768">
        <ele>158</ele>
        <time>2019-02-03T23:28:57.947Z</time>
      </trkpt>
      <trkpt lat="46.72461" lon="-0.07678">
        <ele>158</ele>
        <time>2019-02-03T23:28:58.185Z</time>
      </trkpt>
      <trkpt lat="46.72467" lon="-0.07678">
        <ele>158</ele>
        <time>2019-02-03T23:28:58.299Z</time>
      </trkpt>
      <trkpt lat="46.72488" lon="-0.07679">
        <ele>157.7</ele>
        <time>2019-02-03T23:28:58.726Z</time>
      </trkpt>
      <trkpt lat="46.72517" lon="-0.07696">
        <ele>157</ele>
        <time>2019-02-03T23:28:59.352Z</time>
      </trkpt>
      <trkpt lat="46.72533" lon="-0.07709">
        <ele>157</ele>
        <time>2019-02-03T23:28:59.719Z</time>
      </trkpt>
      <trkpt lat="46.7254" lon="-0.07717">
        <ele>157</ele>
        <time>2019-02-03T23:28:59.897Z</time>
      </trkpt>
      <trkpt lat="46.72547" lon="-0.07735">
        <ele>156.7</ele>
        <time>2019-02-03T23:29:00.181Z</time>
      </trkpt>
      <trkpt lat="46.72552" lon="-0.07785">
        <ele>156.4</ele>
        <time>2019-02-03T23:29:00.875Z</time>
      </trkpt>
      <trkpt lat="46.72551" lon="-0.07821">
        <ele>157</ele>
        <time>2019-02-03T23:29:01.370Z</time>
      </trkpt>
      <trkpt lat="46.72554" lon="-0.07843">
        <ele>157.3</ele>
        <time>2019-02-03T23:29:01.678Z</time>
      </trkpt>
      <trkpt lat="46.72565" lon="-0.07871">
        <ele>158</ele>
        <time>2019-02-03T23:29:02.121Z</time>
      </trkpt>
      <trkpt lat="46.72577" lon="-0.07901">
        <ele>158</ele>
        <time>2019-02-03T23:29:02.598Z</time>
      </trkpt>
      <trkpt lat="46.72566" lon="-0.07908">
        <ele>158</ele>
        <time>2019-02-03T23:29:02.838Z</time>
      </trkpt>
      <trkpt lat="46.72549" lon="-0.07921">
        <ele>158</ele>
        <time>2019-02-03T23:29:03.223Z</time>
      </trkpt>
      <trkpt lat="46.7253" lon="-0.07939">
        <ele>158</ele>
        <time>2019-02-03T23:29:03.677Z</time>
      </trkpt>
      <trkpt lat="46.72511" lon="-0.07964">
        <ele>158</ele>
        <time>2019-02-03T23:29:04.190Z</time>
      </trkpt>
      <trkpt lat="46.72503" lon="-0.07982">
        <ele>158</ele>
        <time>2019-02-03T23:29:04.485Z</time>
      </trkpt>
      <trkpt lat="46.72496" lon="-0.08004">
        <ele>158</ele>
        <time>2019-02-03T23:29:04.818Z</time>
      </trkpt>
      <trkpt lat="46.72484" lon="-0.0804">
        <ele>158</ele>
        <time>2019-02-03T23:29:05.368Z</time>
      </trkpt>
      <trkpt lat="46.72468" lon="-0.08062">
        <ele>158</ele>
        <time>2019-02-03T23:29:05.809Z</time>
      </trkpt>
      <trkpt lat="46.72447" lon="-0.08083">
        <ele>158</ele>
        <time>2019-02-03T23:29:06.319Z</time>
      </trkpt>
      <trkpt lat="46.72424" lon="-0.08106">
        <ele>157</ele>
        <time>2019-02-03T23:29:06.878Z</time>
      </trkpt>
      <trkpt lat="46.72404" lon="-0.08109">
        <ele>157</ele>
        <time>2019-02-03T23:29:07.281Z</time>
      </trkpt>
      <trkpt lat="46.72373" lon="-0.08105">
        <ele>157</ele>
        <time>2019-02-03T23:29:07.905Z</time>
      </trkpt>
      <trkpt lat="46.72354" lon="-0.08098">
        <ele>157</ele>
        <time>2019-02-03T23:29:08.298Z</time>
      </trkpt>
      <trkpt lat="46.7234" lon="-0.0809">
        <ele>157</ele>
        <time>2019-02-03T23:29:08.599Z</time>
      </trkpt>
      <trkpt lat="46.72341" lon="-0.08093">
        <ele>157</ele>
        <time>2019-02-03T23:29:08.645Z</time>
      </trkpt>
      <trkpt lat="46.72346" lon="-0.08105">
        <ele>157</ele>
        <time>2019-02-03T23:29:08.838Z</time>
      </trkpt>
      <trkpt lat="46.72339" lon="-0.08123">
        <ele>157</ele>
        <time>2019-02-03T23:29:09.122Z</time>
      </trkpt>
      <trkpt lat="46.72233" lon="-0.08356">
        <ele>158</ele>
        <time>2019-02-03T23:29:12.964Z</time>
      </trkpt>
      <trkpt lat="46.722" lon="-0.08433">
        <ele>159</ele>
        <time>2019-02-03T23:29:14.212Z</time>
      </trkpt>
      <trkpt lat="46.72194" lon="-0.0845">
        <ele>159</ele>
        <time>2019-02-03T23:29:14.468Z</time>
      </trkpt>
      <trkpt lat="46.72186" lon="-0.08472">
        <ele>159</ele>
        <time>2019-02-03T23:29:14.816Z</time>
      </trkpt>
      <trkpt lat="46.72186" lon="-0.08472">
        <ele>159</ele>
        <time>2019-02-03T23:29:14.818Z</time>
      </trkpt>
      <trkpt lat="46.72172" lon="-0.08498">
        <ele>159</ele>
        <time>2019-02-03T23:29:15.270Z</time>
      </trkpt>
      <trkpt lat="46.7214" lon="-0.08542">
        <ele>159</ele>
        <time>2019-02-03T23:29:16.151Z</time>
      </trkpt>
      <trkpt lat="46.72112" lon="-0.08569">
        <ele>160</ele>
        <time>2019-02-03T23:29:16.824Z</time>
      </trkpt>
      <trkpt lat="46.72086" lon="-0.08583">
        <ele>160</ele>
        <time>2019-02-03T23:29:17.379Z</time>
      </trkpt>
      <trkpt lat="46.72042" lon="-0.08609">
        <ele>161</ele>
        <time>2019-02-03T23:29:18.330Z</time>
      </trkpt>
      <trkpt lat="46.72016" lon="-0.08629">
        <ele>161.4</ele>
        <time>2019-02-03T23:29:18.919Z</time>
      </trkpt>
      <trkpt lat="46.71972" lon="-0.08668">
        <ele>162</ele>
        <time>2019-02-03T23:29:19.951Z</time>
      </trkpt>
      <trkpt lat="46.71929" lon="-0.08708">
        <ele>163</ele>
        <time>2019-02-03T23:29:20.973Z</time>
      </trkpt>
      <trkpt lat="46.71937" lon="-0.08757">
        <ele>163</ele>
        <time>2019-02-03T23:29:21.665Z</time>
      </trkpt>
      <trkpt lat="46.71963" lon="-0.0891">
        <ele>162.3</ele>
        <time>2019-02-03T23:29:23.831Z</time>
      </trkpt>
      <trkpt lat="46.71969" lon="-0.08938">
        <ele>162</ele>
        <time>2019-02-03T23:29:24.234Z</time>
      </trkpt>
      <trkpt lat="46.71978" lon="-0.08955">
        <ele>162</ele>
        <time>2019-02-03T23:29:24.529Z</time>
      </trkpt>
      <trkpt lat="46.72026" lon="-0.09026">
        <ele>162</ele>
        <time>2019-02-03T23:29:25.899Z</time>
      </trkpt>
      <trkpt lat="46.72073" lon="-0.09104">
        <ele>162</ele>
        <time>2019-02-03T23:29:27.326Z</time>
      </trkpt>
      <trkpt lat="46.72088" lon="-0.09117">
        <ele>162</ele>
        <time>2019-02-03T23:29:27.676Z</time>
      </trkpt>
      <trkpt lat="46.72112" lon="-0.09129">
        <ele>162</ele>
        <time>2019-02-03T23:29:28.184Z</time>
      </trkpt>
      <trkpt lat="46.72121" lon="-0.09132">
        <ele>162</ele>
        <time>2019-02-03T23:29:28.362Z</time>
      </trkpt>
      <trkpt lat="46.72138" lon="-0.09138">
        <ele>162</ele>
        <time>2019-02-03T23:29:28.714Z</time>
      </trkpt>
      <trkpt lat="46.72142" lon="-0.09139">
        <ele>162</ele>
        <time>2019-02-03T23:29:28.801Z</time>
      </trkpt>
      <trkpt lat="46.72166" lon="-0.09149">
        <ele>162</ele>
        <time>2019-02-03T23:29:29.301Z</time>
      </trkpt>
      <trkpt lat="46.72216" lon="-0.09192">
        <ele>162</ele>
        <time>2019-02-03T23:29:30.464Z</time>
      </trkpt>
      <trkpt lat="46.72237" lon="-0.09216">
        <ele>162</ele>
        <time>2019-02-03T23:29:30.999Z</time>
      </trkpt>
      <trkpt lat="46.72224" lon="-0.09225">
        <ele>162</ele>
        <time>2019-02-03T23:29:31.287Z</time>
      </trkpt>
      <trkpt lat="46.72197" lon="-0.0924">
        <ele>162</ele>
        <time>2019-02-03T23:29:31.866Z</time>
      </trkpt>
      <trkpt lat="46.72182" lon="-0.09253">
        <ele>162</ele>
        <time>2019-02-03T23:29:32.216Z</time>
      </trkpt>
      <trkpt lat="46.72159" lon="-0.09282">
        <ele>162.2</ele>
        <time>2019-02-03T23:29:32.825Z</time>
      </trkpt>
      <trkpt lat="46.72142" lon="-0.09317">
        <ele>163</ele>
        <time>2019-02-03T23:29:33.414Z</time>
      </trkpt>
      <trkpt lat="46.72104" lon="-0.09421">
        <ele>163</ele>
        <time>2019-02-03T23:29:35.033Z</time>
      </trkpt>
      <trkpt lat="46.7208" lon="-0.09473">
        <ele>162</ele>
        <time>2019-02-03T23:29:35.894Z</time>
      </trkpt>
      <trkpt lat="46.7207" lon="-0.09505">
        <ele>162</ele>
        <time>2019-02-03T23:29:36.377Z</time>
      </trkpt>
      <trkpt lat="46.72054" lon="-0.09572">
        <ele>161</ele>
        <time>2019-02-03T23:29:37.352Z</time>
      </trkpt>
      <trkpt lat="46.72047" lon="-0.09596">
        <ele>161</ele>
        <time>2019-02-03T23:29:37.710Z</time>
      </trkpt>
      <trkpt lat="46.72037" lon="-0.09618">
        <ele>160.8</ele>
        <time>2019-02-03T23:29:38.073Z</time>
      </trkpt>
      <trkpt lat="46.72015" lon="-0.09642">
        <ele>159.9</ele>
        <time>2019-02-03T23:29:38.624Z</time>
      </trkpt>
      <trkpt lat="46.72001" lon="-0.09659">
        <ele>159.3</ele>
        <time>2019-02-03T23:29:38.989Z</time>
      </trkpt>
      <trkpt lat="46.71991" lon="-0.09686">
        <ele>159</ele>
        <time>2019-02-03T23:29:39.411Z</time>
      </trkpt>
      <trkpt lat="46.71985" lon="-0.09712">
        <ele>159</ele>
        <time>2019-02-03T23:29:39.788Z</time>
      </trkpt>
      <trkpt lat="46.71956" lon="-0.09786">
        <ele>158.4</ele>
        <time>2019-02-03T23:29:40.959Z</time>
      </trkpt>
      <trkpt lat="46.7194" lon="-0.09825">
        <ele>158</ele>
        <time>2019-02-03T23:29:41.583Z</time>
      </trkpt>
      <trkpt lat="46.71931" lon="-0.09831">
        <ele>158</ele>
        <time>2019-02-03T23:29:41.781Z</time>
      </trkpt>
      <trkpt lat="46.71929" lon="-0.09834">
        <ele>158</ele>
        <time>2019-02-03T23:29:41.838Z</time>
      </trkpt>
      <trkpt lat="46.71929" lon="-0.09837">
        <ele>158.1</ele>
        <time>2019-02-03T23:29:41.879Z</time>
      </trkpt>
      <trkpt lat="46.71931" lon="-0.09861">
        <ele>158.5</ele>
        <time>2019-02-03T23:29:42.211Z</time>
      </trkpt>
      <trkpt lat="46.71925" lon="-0.09879">
        <ele>158.8</ele>
        <time>2019-02-03T23:29:42.486Z</time>
      </trkpt>
      <trkpt lat="46.71923" lon="-0.09897">
        <ele>159</ele>
        <time>2019-02-03T23:29:42.737Z</time>
      </trkpt>
      <trkpt lat="46.71928" lon="-0.09932">
        <ele>159</ele>
        <time>2019-02-03T23:29:43.228Z</time>
      </trkpt>
      <trkpt lat="46.71923" lon="-0.0995">
        <ele>159</ele>
        <time>2019-02-03T23:29:43.495Z</time>
      </trkpt>
      <trkpt lat="46.71932" lon="-0.0995">
        <ele>159</ele>
        <time>2019-02-03T23:29:43.675Z</time>
      </trkpt>
      <trkpt lat="46.71925" lon="-0.09963">
        <ele>159</ele>
        <time>2019-02-03T23:29:43.902Z</time>
      </trkpt>
      <trkpt lat="46.71903" lon="-0.09995">
        <ele>159</ele>
        <time>2019-02-03T23:29:44.525Z</time>
      </trkpt>
      <trkpt lat="46.71845" lon="-0.10088">
        <ele>159</ele>
        <time>2019-02-03T23:29:46.252Z</time>
      </trkpt>
      <trkpt lat="46.71825" lon="-0.10119">
        <ele>159</ele>
        <time>2019-02-03T23:29:46.837Z</time>
      </trkpt>
      <trkpt lat="46.71757" lon="-0.1019">
        <ele>159</ele>
        <time>2019-02-03T23:29:48.513Z</time>
      </trkpt>
      <trkpt lat="46.71716" lon="-0.10223">
        <ele>159</ele>
        <time>2019-02-03T23:29:49.451Z</time>
      </trkpt>
      <trkpt lat="46.71672" lon="-0.10251">
        <ele>159</ele>
        <time>2019-02-03T23:29:50.413Z</time>
      </trkpt>
      <trkpt lat="46.71639" lon="-0.10268">
        <ele>160</ele>
        <time>2019-02-03T23:29:51.114Z</time>
      </trkpt>
      <trkpt lat="46.71582" lon="-0.10297">
        <ele>160</ele>
        <time>2019-02-03T23:29:52.324Z</time>
      </trkpt>
      <trkpt lat="46.71509" lon="-0.10328">
        <ele>160</ele>
        <time>2019-02-03T23:29:53.848Z</time>
      </trkpt>
      <trkpt lat="46.71418" lon="-0.10357">
        <ele>161</ele>
        <time>2019-02-03T23:29:55.715Z</time>
      </trkpt>
      <trkpt lat="46.71369" lon="-0.10373">
        <ele>161</ele>
        <time>2019-02-03T23:29:56.721Z</time>
      </trkpt>
      <trkpt lat="46.71295" lon="-0.1039">
        <ele>161</ele>
        <time>2019-02-03T23:29:58.222Z</time>
      </trkpt>
      <trkpt lat="46.71175" lon="-0.10414">
        <ele>162</ele>
        <time>2019-02-03T23:30:00.649Z</time>
      </trkpt>
      <trkpt lat="46.7114" lon="-0.10423">
        <ele>162</ele>
        <time>2019-02-03T23:30:01.361Z</time>
      </trkpt>
      <trkpt lat="46.71121" lon="-0.10431">
        <ele>162</ele>
        <time>2019-02-03T23:30:01.757Z</time>
      </trkpt>
      <trkpt lat="46.71104" lon="-0.10447">
        <ele>162.2</ele>
        <time>2019-02-03T23:30:02.162Z</time>
      </trkpt>
      <trkpt lat="46.71058" lon="-0.10473">
        <ele>162.9</ele>
        <time>2019-02-03T23:30:03.151Z</time>
      </trkpt>
      <trkpt lat="46.70987" lon="-0.10519">
        <ele>163</ele>
        <time>2019-02-03T23:30:04.708Z</time>
      </trkpt>
      <trkpt lat="46.70947" lon="-0.10545">
        <ele>163</ele>
        <time>2019-02-03T23:30:05.586Z</time>
      </trkpt>
      <trkpt lat="46.709" lon="-0.10582">
        <ele>164</ele>
        <time>2019-02-03T23:30:06.656Z</time>
      </trkpt>
      <trkpt lat="46.70838" lon="-0.1063">
        <ele>164.8</ele>
        <time>2019-02-03T23:30:08.063Z</time>
      </trkpt>
      <trkpt lat="46.70801" lon="-0.10661">
        <ele>165</ele>
        <time>2019-02-03T23:30:08.918Z</time>
      </trkpt>
      <trkpt lat="46.70749" lon="-0.10708">
        <ele>165</ele>
        <time>2019-02-03T23:30:10.144Z</time>
      </trkpt>
      <trkpt lat="46.70728" lon="-0.10723">
        <ele>165</ele>
        <time>2019-02-03T23:30:10.613Z</time>
      </trkpt>
      <trkpt lat="46.70687" lon="-0.10747">
        <ele>165</ele>
        <time>2019-02-03T23:30:11.498Z</time>
      </trkpt>
      <trkpt lat="46.7066" lon="-0.10764">
        <ele>165.1</ele>
        <time>2019-02-03T23:30:12.087Z</time>
      </trkpt>
      <trkpt lat="46.70613" lon="-0.10817">
        <ele>166</ele>
        <time>2019-02-03T23:30:13.278Z</time>
      </trkpt>
      <trkpt lat="46.70557" lon="-0.10882">
        <ele>165</ele>
        <time>2019-02-03T23:30:14.712Z</time>
      </trkpt>
      <trkpt lat="46.70538" lon="-0.10907">
        <ele>165</ele>
        <time>2019-02-03T23:30:15.225Z</time>
      </trkpt>
      <trkpt lat="46.70518" lon="-0.10942">
        <ele>165</ele>
        <time>2019-02-03T23:30:15.851Z</time>
      </trkpt>
      <trkpt lat="46.70484" lon="-0.11016">
        <ele>164.4</ele>
        <time>2019-02-03T23:30:17.075Z</time>
      </trkpt>
      <trkpt lat="46.70459" lon="-0.11077">
        <ele>164</ele>
        <time>2019-02-03T23:30:18.052Z</time>
      </trkpt>
      <trkpt lat="46.70423" lon="-0.11152">
        <ele>162.5</ele>
        <time>2019-02-03T23:30:19.310Z</time>
      </trkpt>
      <trkpt lat="46.70416" lon="-0.11166">
        <ele>162</ele>
        <time>2019-02-03T23:30:19.548Z</time>
      </trkpt>
      <trkpt lat="46.70405" lon="-0.11139">
        <ele>162.6</ele>
        <time>2019-02-03T23:30:19.980Z</time>
      </trkpt>
      <trkpt lat="46.70368" lon="-0.11146">
        <ele>161.7</ele>
        <time>2019-02-03T23:30:20.728Z</time>
      </trkpt>
      <trkpt lat="46.7032" lon="-0.11148">
        <ele>160.2</ele>
        <time>2019-02-03T23:30:21.690Z</time>
      </trkpt>
      <trkpt lat="46.7031" lon="-0.11151">
        <ele>159.7</ele>
        <time>2019-02-03T23:30:21.895Z</time>
      </trkpt>
      <trkpt lat="46.70299" lon="-0.11156">
        <ele>159</ele>
        <time>2019-02-03T23:30:22.126Z</time>
      </trkpt>
      <trkpt lat="46.70284" lon="-0.11167">
        <ele>157.4</ele>
        <time>2019-02-03T23:30:22.462Z</time>
      </trkpt>
      <trkpt lat="46.70274" lon="-0.11194">
        <ele>156.9</ele>
        <time>2019-02-03T23:30:22.884Z</time>
      </trkpt>
      <trkpt lat="46.70225" lon="-0.11271">
        <ele>157.8</ele>
        <time>2019-02-03T23:30:24.328Z</time>
      </trkpt>
      <trkpt lat="46.70206" lon="-0.11296">
        <ele>157.8</ele>
        <time>2019-02-03T23:30:24.841Z</time>
      </trkpt>
      <trkpt lat="46.70187" lon="-0.11326">
        <ele>158</ele>
        <time>2019-02-03T23:30:25.402Z</time>
      </trkpt>
      <trkpt lat="46.70166" lon="-0.11357">
        <ele>158</ele>
        <time>2019-02-03T23:30:26.000Z</time>
      </trkpt>
      <trkpt lat="46.70154" lon="-0.11376">
        <ele>158.7</ele>
        <time>2019-02-03T23:30:26.352Z</time>
      </trkpt>
      <trkpt lat="46.70142" lon="-0.11394">
        <ele>159.2</ele>
        <time>2019-02-03T23:30:26.701Z</time>
      </trkpt>
      <trkpt lat="46.70134" lon="-0.11409">
        <ele>159.8</ele>
        <time>2019-02-03T23:30:26.962Z</time>
      </trkpt>
      <trkpt lat="46.70099" lon="-0.11505">
        <ele>161.4</ele>
        <time>2019-02-03T23:30:28.456Z</time>
      </trkpt>
      <trkpt lat="46.70092" lon="-0.11517">
        <ele>161.7</ele>
        <time>2019-02-03T23:30:28.673Z</time>
      </trkpt>
      <trkpt lat="46.70082" lon="-0.11522">
        <ele>162</ele>
        <time>2019-02-03T23:30:28.885Z</time>
      </trkpt>
      <trkpt lat="46.7008" lon="-0.11523">
        <ele>162.1</ele>
        <time>2019-02-03T23:30:28.927Z</time>
      </trkpt>
      <trkpt lat="46.70066" lon="-0.11525">
        <ele>162.6</ele>
        <time>2019-02-03T23:30:29.209Z</time>
      </trkpt>
      <trkpt lat="46.70049" lon="-0.11531">
        <ele>163</ele>
        <time>2019-02-03T23:30:29.560Z</time>
      </trkpt>
      <trkpt lat="46.70009" lon="-0.11555">
        <ele>163.7</ele>
        <time>2019-02-03T23:30:30.427Z</time>
      </trkpt>
      <trkpt lat="46.69962" lon="-0.11579">
        <ele>166.3</ele>
        <time>2019-02-03T23:30:31.425Z</time>
      </trkpt>
      <trkpt lat="46.69932" lon="-0.11592">
        <ele>167.1</ele>
        <time>2019-02-03T23:30:32.052Z</time>
      </trkpt>
      <trkpt lat="46.69928" lon="-0.11592">
        <ele>167.2</ele>
        <time>2019-02-03T23:30:32.132Z</time>
      </trkpt>
      <trkpt lat="46.69931" lon="-0.11599">
        <ele>167.3</ele>
        <time>2019-02-03T23:30:32.245Z</time>
      </trkpt>
      <trkpt lat="46.69932" lon="-0.11612">
        <ele>167.5</ele>
        <time>2019-02-03T23:30:32.425Z</time>
      </trkpt>
      <trkpt lat="46.69931" lon="-0.11617">
        <ele>167.7</ele>
        <time>2019-02-03T23:30:32.500Z</time>
      </trkpt>
      <trkpt lat="46.6993" lon="-0.11623">
        <ele>167.9</ele>
        <time>2019-02-03T23:30:32.581Z</time>
      </trkpt>
      <trkpt lat="46.69924" lon="-0.1164">
        <ele>168.7</ele>
        <time>2019-02-03T23:30:32.851Z</time>
      </trkpt>
      <trkpt lat="46.69923" lon="-0.1164">
        <ele>168.8</ele>
        <time>2019-02-03T23:30:32.865Z</time>
      </trkpt>
      <trkpt lat="46.6987" lon="-0.11787">
        <ele>170</ele>
        <time>2019-02-03T23:30:35.147Z</time>
      </trkpt>
      <trkpt lat="46.69864" lon="-0.11789">
        <ele>170</ele>
        <time>2019-02-03T23:30:35.268Z</time>
      </trkpt>
      <trkpt lat="46.69864" lon="-0.11788">
        <ele>170</ele>
        <time>2019-02-03T23:30:35.278Z</time>
      </trkpt>
      <trkpt lat="46.69856" lon="-0.11791">
        <ele>170</ele>
        <time>2019-02-03T23:30:35.444Z</time>
      </trkpt>
      <trkpt lat="46.69842" lon="-0.11777">
        <ele>170</ele>
        <time>2019-02-03T23:30:35.784Z</time>
      </trkpt>
      <trkpt lat="46.69816" lon="-0.11755">
        <ele>169.9</ele>
        <time>2019-02-03T23:30:36.386Z</time>
      </trkpt>
      <trkpt lat="46.69811" lon="-0.11781">
        <ele>169.2</ele>
        <time>2019-02-03T23:30:36.757Z</time>
      </trkpt>
      <trkpt lat="46.69816" lon="-0.11814">
        <ele>169.1</ele>
        <time>2019-02-03T23:30:37.221Z</time>
      </trkpt>
      <trkpt lat="46.69819" lon="-0.1183">
        <ele>168.6</ele>
        <time>2019-02-03T23:30:37.449Z</time>
      </trkpt>
      <trkpt lat="46.6982" lon="-0.11844">
        <ele>168.3</ele>
        <time>2019-02-03T23:30:37.642Z</time>
      </trkpt>
      <trkpt lat="46.69814" lon="-0.11861">
        <ele>168</ele>
        <time>2019-02-03T23:30:37.905Z</time>
      </trkpt>
      <trkpt lat="46.69798" lon="-0.1189">
        <ele>167.7</ele>
        <time>2019-02-03T23:30:38.417Z</time>
      </trkpt>
      <trkpt lat="46.69836" lon="-0.11922">
        <ele>166.8</ele>
        <time>2019-02-03T23:30:39.296Z</time>
      </trkpt>
      <trkpt lat="46.69856" lon="-0.11944">
        <ele>166</ele>
        <time>2019-02-03T23:30:39.798Z</time>
      </trkpt>
      <trkpt lat="46.69884" lon="-0.11986">
        <ele>165.5</ele>
        <time>2019-02-03T23:30:40.603Z</time>
      </trkpt>
      <trkpt lat="46.69892" lon="-0.12001">
        <ele>165</ele>
        <time>2019-02-03T23:30:40.864Z</time>
      </trkpt>
      <trkpt lat="46.69901" lon="-0.12037">
        <ele>163.5</ele>
        <time>2019-02-03T23:30:41.391Z</time>
      </trkpt>
      <trkpt lat="46.69902" lon="-0.12072">
        <ele>161.6</ele>
        <time>2019-02-03T23:30:41.872Z</time>
      </trkpt>
      <trkpt lat="46.69902" lon="-0.12104">
        <ele>159.9</ele>
        <time>2019-02-03T23:30:42.312Z</time>
      </trkpt>
      <trkpt lat="46.69911" lon="-0.1215">
        <ele>157.8</ele>
        <time>2019-02-03T23:30:42.969Z</time>
      </trkpt>
      <trkpt lat="46.69921" lon="-0.12181">
        <ele>156.9</ele>
        <time>2019-02-03T23:30:43.440Z</time>
      </trkpt>
      <trkpt lat="46.69935" lon="-0.12203">
        <ele>156</ele>
        <time>2019-02-03T23:30:43.852Z</time>
      </trkpt>
      <trkpt lat="46.70001" lon="-0.12243">
        <ele>152.2</ele>
        <time>2019-02-03T23:30:45.284Z</time>
      </trkpt>
      <trkpt lat="46.70021" lon="-0.12258">
        <ele>151.2</ele>
        <time>2019-02-03T23:30:45.735Z</time>
      </trkpt>
      <trkpt lat="46.70035" lon="-0.12279">
        <ele>150.7</ele>
        <time>2019-02-03T23:30:46.137Z</time>
      </trkpt>
      <trkpt lat="46.70049" lon="-0.12308">
        <ele>150.3</ele>
        <time>2019-02-03T23:30:46.624Z</time>
      </trkpt>
      <trkpt lat="46.70058" lon="-0.12332">
        <ele>149.9</ele>
        <time>2019-02-03T23:30:47.000Z</time>
      </trkpt>
      <trkpt lat="46.70061" lon="-0.12354">
        <ele>149.8</ele>
        <time>2019-02-03T23:30:47.308Z</time>
      </trkpt>
      <trkpt lat="46.70055" lon="-0.12405">
        <ele>150.6</ele>
        <time>2019-02-03T23:30:48.019Z</time>
      </trkpt>
      <trkpt lat="46.70041" lon="-0.12478">
        <ele>154.1</ele>
        <time>2019-02-03T23:30:49.061Z</time>
      </trkpt>
      <trkpt lat="46.70027" lon="-0.1253">
        <ele>156.1</ele>
        <time>2019-02-03T23:30:49.829Z</time>
      </trkpt>
      <trkpt lat="46.70014" lon="-0.1258">
        <ele>157</ele>
        <time>2019-02-03T23:30:50.564Z</time>
      </trkpt>
      <trkpt lat="46.70012" lon="-0.126">
        <ele>156.5</ele>
        <time>2019-02-03T23:30:50.842Z</time>
      </trkpt>
      <trkpt lat="46.70014" lon="-0.12625">
        <ele>156</ele>
        <time>2019-02-03T23:30:51.188Z</time>
      </trkpt>
      <trkpt lat="46.70024" lon="-0.12667">
        <ele>155.3</ele>
        <time>2019-02-03T23:30:51.799Z</time>
      </trkpt>
      <trkpt lat="46.70035" lon="-0.12729">
        <ele>154.5</ele>
        <time>2019-02-03T23:30:52.679Z</time>
      </trkpt>
      <trkpt lat="46.70035" lon="-0.1274">
        <ele>154.5</ele>
        <time>2019-02-03T23:30:52.830Z</time>
      </trkpt>
      <trkpt lat="46.70034" lon="-0.12746">
        <ele>154.6</ele>
        <time>2019-02-03T23:30:52.915Z</time>
      </trkpt>
      <trkpt lat="46.70024" lon="-0.12756">
        <ele>155.2</ele>
        <time>2019-02-03T23:30:53.158Z</time>
      </trkpt>
      <trkpt lat="46.70029" lon="-0.12758">
        <ele>154.9</ele>
        <time>2019-02-03T23:30:53.262Z</time>
      </trkpt>
      <trkpt lat="46.70045" lon="-0.12782">
        <ele>153.8</ele>
        <time>2019-02-03T23:30:53.722Z</time>
      </trkpt>
      <trkpt lat="46.70074" lon="-0.12826">
        <ele>152.6</ele>
        <time>2019-02-03T23:30:54.561Z</time>
      </trkpt>
      <trkpt lat="46.70096" lon="-0.12852">
        <ele>152.4</ele>
        <time>2019-02-03T23:30:55.128Z</time>
      </trkpt>
      <trkpt lat="46.70106" lon="-0.12868">
        <ele>152.4</ele>
        <time>2019-02-03T23:30:55.426Z</time>
      </trkpt>
      <trkpt lat="46.70108" lon="-0.12882">
        <ele>152.8</ele>
        <time>2019-02-03T23:30:55.623Z</time>
      </trkpt>
      <trkpt lat="46.70102" lon="-0.12954">
        <ele>153.9</ele>
        <time>2019-02-03T23:30:56.620Z</time>
      </trkpt>
      <trkpt lat="46.70102" lon="-0.12965">
        <ele>154.2</ele>
        <time>2019-02-03T23:30:56.771Z</time>
      </trkpt>
      <trkpt lat="46.70105" lon="-0.12973">
        <ele>154.2</ele>
        <time>2019-02-03T23:30:56.896Z</time>
      </trkpt>
      <trkpt lat="46.70114" lon="-0.1298">
        <ele>154.1</ele>
        <time>2019-02-03T23:30:57.100Z</time>
      </trkpt>
      <trkpt lat="46.70182" lon="-0.13034">
        <ele>152.7</ele>
        <time>2019-02-03T23:30:58.652Z</time>
      </trkpt>
      <trkpt lat="46.70212" lon="-0.13062">
        <ele>151.9</ele>
        <time>2019-02-03T23:30:59.366Z</time>
      </trkpt>
      <trkpt lat="46.70257" lon="-0.13125">
        <ele>151</ele>
        <time>2019-02-03T23:31:00.616Z</time>
      </trkpt>
      <trkpt lat="46.70259" lon="-0.13128">
        <ele>151</ele>
        <time>2019-02-03T23:31:00.674Z</time>
      </trkpt>
      <trkpt lat="46.7028" lon="-0.13155">
        <ele>149.9</ele>
        <time>2019-02-03T23:31:01.235Z</time>
      </trkpt>
      <trkpt lat="46.70288" lon="-0.13162">
        <ele>149.3</ele>
        <time>2019-02-03T23:31:01.422Z</time>
      </trkpt>
      <trkpt lat="46.703" lon="-0.13167">
        <ele>148.4</ele>
        <time>2019-02-03T23:31:01.672Z</time>
      </trkpt>
      <trkpt lat="46.70338" lon="-0.13188">
        <ele>146.4</ele>
        <time>2019-02-03T23:31:02.486Z</time>
      </trkpt>
      <trkpt lat="46.70393" lon="-0.13229">
        <ele>143.8</ele>
        <time>2019-02-03T23:31:03.724Z</time>
      </trkpt>
      <trkpt lat="46.70413" lon="-0.13244">
        <ele>142.5</ele>
        <time>2019-02-03T23:31:04.175Z</time>
      </trkpt>
      <trkpt lat="46.70423" lon="-0.13258">
        <ele>141.7</ele>
        <time>2019-02-03T23:31:04.453Z</time>
      </trkpt>
      <trkpt lat="46.70444" lon="-0.1329">
        <ele>139.6</ele>
        <time>2019-02-03T23:31:05.062Z</time>
      </trkpt>
      <trkpt lat="46.70454" lon="-0.133">
        <ele>138.8</ele>
        <time>2019-02-03T23:31:05.305Z</time>
      </trkpt>
      <trkpt lat="46.70469" lon="-0.13304">
        <ele>138.1</ele>
        <time>2019-02-03T23:31:05.611Z</time>
      </trkpt>
      <trkpt lat="46.70496" lon="-0.1331">
        <ele>138.1</ele>
        <time>2019-02-03T23:31:06.158Z</time>
      </trkpt>
      <trkpt lat="46.70519" lon="-0.1332">
        <ele>139.2</ele>
        <time>2019-02-03T23:31:06.639Z</time>
      </trkpt>
      <trkpt lat="46.70524" lon="-0.13322">
        <ele>139.5</ele>
        <time>2019-02-03T23:31:06.743Z</time>
      </trkpt>
      <trkpt lat="46.70519" lon="-0.1333">
        <ele>139.6</ele>
        <time>2019-02-03T23:31:06.892Z</time>
      </trkpt>
      <trkpt lat="46.70511" lon="-0.13351">
        <ele>140.3</ele>
        <time>2019-02-03T23:31:07.222Z</time>
      </trkpt>
      <trkpt lat="46.70511" lon="-0.13394">
        <ele>141.5</ele>
        <time>2019-02-03T23:31:07.813Z</time>
      </trkpt>
      <trkpt lat="46.70518" lon="-0.13501">
        <ele>140.5</ele>
        <time>2019-02-03T23:31:09.290Z</time>
      </trkpt>
      <trkpt lat="46.70523" lon="-0.13569">
        <ele>140.7</ele>
        <time>2019-02-03T23:31:10.230Z</time>
      </trkpt>
      <trkpt lat="46.70549" lon="-0.13811">
        <ele>128.3</ele>
        <time>2019-02-03T23:31:13.596Z</time>
      </trkpt>
      <trkpt lat="46.70556" lon="-0.13872">
        <ele>127.4</ele>
        <time>2019-02-03T23:31:14.446Z</time>
      </trkpt>
      <trkpt lat="46.70544" lon="-0.13875">
        <ele>126.5</ele>
        <time>2019-02-03T23:31:14.690Z</time>
      </trkpt>
      <trkpt lat="46.70543" lon="-0.13875">
        <ele>126.4</ele>
        <time>2019-02-03T23:31:14.701Z</time>
      </trkpt>
      <trkpt lat="46.70556" lon="-0.13872">
        <ele>127.4</ele>
        <time>2019-02-03T23:31:14.955Z</time>
      </trkpt>
      <trkpt lat="46.70559" lon="-0.13871">
        <ele>127.6</ele>
        <time>2019-02-03T23:31:15.017Z</time>
      </trkpt>
      <trkpt lat="46.70595" lon="-0.13864">
        <ele>130</ele>
        <time>2019-02-03T23:31:15.745Z</time>
      </trkpt>
      <trkpt lat="46.70617" lon="-0.13866">
        <ele>131.7</ele>
        <time>2019-02-03T23:31:16.187Z</time>
      </trkpt>
      <trkpt lat="46.70655" lon="-0.1389">
        <ele>134.6</ele>
        <time>2019-02-03T23:31:17.017Z</time>
      </trkpt>
      <trkpt lat="46.70699" lon="-0.13914">
        <ele>135.2</ele>
        <time>2019-02-03T23:31:17.958Z</time>
      </trkpt>
      <trkpt lat="46.70741" lon="-0.13932">
        <ele>135.4</ele>
        <time>2019-02-03T23:31:18.835Z</time>
      </trkpt>
      <trkpt lat="46.70765" lon="-0.1394">
        <ele>135.6</ele>
        <time>2019-02-03T23:31:19.328Z</time>
      </trkpt>
      <trkpt lat="46.70787" lon="-0.13942">
        <ele>136</ele>
        <time>2019-02-03T23:31:19.770Z</time>
      </trkpt>
      <trkpt lat="46.70824" lon="-0.13936">
        <ele>135.3</ele>
        <time>2019-02-03T23:31:20.516Z</time>
      </trkpt>
      <trkpt lat="46.70867" lon="-0.13926">
        <ele>134.5</ele>
        <time>2019-02-03T23:31:21.389Z</time>
      </trkpt>
      <trkpt lat="46.70887" lon="-0.13916">
        <ele>134.1</ele>
        <time>2019-02-03T23:31:21.813Z</time>
      </trkpt>
      <trkpt lat="46.70905" lon="-0.13902">
        <ele>133.7</ele>
        <time>2019-02-03T23:31:22.222Z</time>
      </trkpt>
      <trkpt lat="46.70918" lon="-0.13888">
        <ele>134</ele>
        <time>2019-02-03T23:31:22.546Z</time>
      </trkpt>
      <trkpt lat="46.70942" lon="-0.13858">
        <ele>134</ele>
        <time>2019-02-03T23:31:23.179Z</time>
      </trkpt>
      <trkpt lat="46.70952" lon="-0.13838">
        <ele>134</ele>
        <time>2019-02-03T23:31:23.519Z</time>
      </trkpt>
      <trkpt lat="46.70962" lon="-0.13808">
        <ele>134</ele>
        <time>2019-02-03T23:31:23.977Z</time>
      </trkpt>
      <trkpt lat="46.70966" lon="-0.13796">
        <ele>134.1</ele>
        <time>2019-02-03T23:31:24.160Z</time>
      </trkpt>
      <trkpt lat="46.70966" lon="-0.13796">
        <ele>134.1</ele>
        <time>2019-02-03T23:31:24.165Z</time>
      </trkpt>
      <trkpt lat="46.70967" lon="-0.13792">
        <ele>134.1</ele>
        <time>2019-02-03T23:31:24.223Z</time>
      </trkpt>
      <trkpt lat="46.70978" lon="-0.13812">
        <ele>133.8</ele>
        <time>2019-02-03T23:31:24.575Z</time>
      </trkpt>
      <trkpt lat="46.71019" lon="-0.1388">
        <ele>133.1</ele>
        <time>2019-02-03T23:31:25.819Z</time>
      </trkpt>
      <trkpt lat="46.7105" lon="-0.13924">
        <ele>132.8</ele>
        <time>2019-02-03T23:31:26.686Z</time>
      </trkpt>
      <trkpt lat="46.71075" lon="-0.13938">
        <ele>132.3</ele>
        <time>2019-02-03T23:31:27.223Z</time>
      </trkpt>
      <trkpt lat="46.71107" lon="-0.13949">
        <ele>132</ele>
        <time>2019-02-03T23:31:27.882Z</time>
      </trkpt>
      <trkpt lat="46.71129" lon="-0.1396">
        <ele>132</ele>
        <time>2019-02-03T23:31:28.348Z</time>
      </trkpt>
      <trkpt lat="46.71146" lon="-0.13972">
        <ele>131.7</ele>
        <time>2019-02-03T23:31:28.726Z</time>
      </trkpt>
      <trkpt lat="46.71222" lon="-0.1403">
        <ele>129</ele>
        <time>2019-02-03T23:31:30.445Z</time>
      </trkpt>
      <trkpt lat="46.71251" lon="-0.14057">
        <ele>128.9</ele>
        <time>2019-02-03T23:31:31.134Z</time>
      </trkpt>
      <trkpt lat="46.71271" lon="-0.14083">
        <ele>128</ele>
        <time>2019-02-03T23:31:31.671Z</time>
      </trkpt>
      <trkpt lat="46.71288" lon="-0.1411">
        <ele>126.7</ele>
        <time>2019-02-03T23:31:32.175Z</time>
      </trkpt>
      <trkpt lat="46.7129" lon="-0.14114">
        <ele>126.4</ele>
        <time>2019-02-03T23:31:32.243Z</time>
      </trkpt>
      <trkpt lat="46.71288" lon="-0.1412">
        <ele>126.1</ele>
        <time>2019-02-03T23:31:32.335Z</time>
      </trkpt>
      <trkpt lat="46.71285" lon="-0.14132">
        <ele>125.4</ele>
        <time>2019-02-03T23:31:32.510Z</time>
      </trkpt>
      <trkpt lat="46.71257" lon="-0.14277">
        <ele>119.8</ele>
        <time>2019-02-03T23:31:34.580Z</time>
      </trkpt>
      <trkpt lat="46.71241" lon="-0.14357">
        <ele>118.5</ele>
        <time>2019-02-03T23:31:35.725Z</time>
      </trkpt>
      <trkpt lat="46.7124" lon="-0.1436">
        <ele>118.4</ele>
        <time>2019-02-03T23:31:35.771Z</time>
      </trkpt>
      <trkpt lat="46.71256" lon="-0.14377">
        <ele>116.4</ele>
        <time>2019-02-03T23:31:36.168Z</time>
      </trkpt>
      <trkpt lat="46.71267" lon="-0.1439">
        <ele>114.7</ele>
        <time>2019-02-03T23:31:36.452Z</time>
      </trkpt>
      <trkpt lat="46.71275" lon="-0.14393">
        <ele>113.9</ele>
        <time>2019-02-03T23:31:36.618Z</time>
      </trkpt>
      <trkpt lat="46.71296" lon="-0.14392">
        <ele>113.8</ele>
        <time>2019-02-03T23:31:37.039Z</time>
      </trkpt>
      <trkpt lat="46.71304" lon="-0.14394">
        <ele>113.6</ele>
        <time>2019-02-03T23:31:37.202Z</time>
      </trkpt>
      <trkpt lat="46.71311" lon="-0.14403">
        <ele>113.1</ele>
        <time>2019-02-03T23:31:37.389Z</time>
      </trkpt>
      <trkpt lat="46.71333" lon="-0.14441">
        <ele>112.1</ele>
        <time>2019-02-03T23:31:38.072Z</time>
      </trkpt>
      <trkpt lat="46.71349" lon="-0.14461">
        <ele>112</ele>
        <time>2019-02-03T23:31:38.494Z</time>
      </trkpt>
      <trkpt lat="46.71361" lon="-0.14468">
        <ele>112.1</ele>
        <time>2019-02-03T23:31:38.753Z</time>
      </trkpt>
      <trkpt lat="46.71377" lon="-0.14472">
        <ele>111.4</ele>
        <time>2019-02-03T23:31:39.078Z</time>
      </trkpt>
      <trkpt lat="46.71398" lon="-0.14473">
        <ele>110.9</ele>
        <time>2019-02-03T23:31:39.499Z</time>
      </trkpt>
      <trkpt lat="46.71388" lon="-0.14486">
        <ele>110</ele>
        <time>2019-02-03T23:31:39.767Z</time>
      </trkpt>
      <trkpt lat="46.71375" lon="-0.14506">
        <ele>108</ele>
        <time>2019-02-03T23:31:40.146Z</time>
      </trkpt>
      <trkpt lat="46.71364" lon="-0.14518">
        <ele>106.3</ele>
        <time>2019-02-03T23:31:40.421Z</time>
      </trkpt>
      <trkpt lat="46.7135" lon="-0.14527">
        <ele>104.7</ele>
        <time>2019-02-03T23:31:40.728Z</time>
      </trkpt>
      <trkpt lat="46.71332" lon="-0.14538">
        <ele>103.2</ele>
        <time>2019-02-03T23:31:41.119Z</time>
      </trkpt>
      <trkpt lat="46.71305" lon="-0.14563">
        <ele>100.7</ele>
        <time>2019-02-03T23:31:41.760Z</time>
      </trkpt>
      <trkpt lat="46.71298" lon="-0.14571">
        <ele>100.4</ele>
        <time>2019-02-03T23:31:41.938Z</time>
      </trkpt>
      <trkpt lat="46.71291" lon="-0.14587">
        <ele>99.9</ele>
        <time>2019-02-03T23:31:42.199Z</time>
      </trkpt>
      <trkpt lat="46.71285" lon="-0.14626">
        <ele>98.6</ele>
        <time>2019-02-03T23:31:42.748Z</time>
      </trkpt>
      <trkpt lat="46.71285" lon="-0.14666">
        <ele>98</ele>
        <time>2019-02-03T23:31:43.298Z</time>
      </trkpt>
      <trkpt lat="46.71283" lon="-0.14673">
        <ele>97.8</ele>
        <time>2019-02-03T23:31:43.402Z</time>
      </trkpt>
      <trkpt lat="46.71256" lon="-0.14721">
        <ele>97.4</ele>
        <time>2019-02-03T23:31:44.255Z</time>
      </trkpt>
      <trkpt lat="46.71252" lon="-0.14731">
        <ele>98.5</ele>
        <time>2019-02-03T23:31:44.414Z</time>
      </trkpt>
      <trkpt lat="46.71244" lon="-0.14741">
        <ele>99.5</ele>
        <time>2019-02-03T23:31:44.625Z</time>
      </trkpt>
      <trkpt lat="46.71225" lon="-0.14749">
        <ele>99.2</ele>
        <time>2019-02-03T23:31:45.021Z</time>
      </trkpt>
      <trkpt lat="46.71207" lon="-0.14757">
        <ele>101.3</ele>
        <time>2019-02-03T23:31:45.398Z</time>
      </trkpt>
      <trkpt lat="46.71196" lon="-0.14775">
        <ele>102</ele>
        <time>2019-02-03T23:31:45.729Z</time>
      </trkpt>
      <trkpt lat="46.71177" lon="-0.14837">
        <ele>105.5</ele>
        <time>2019-02-03T23:31:46.662Z</time>
      </trkpt>
      <trkpt lat="46.71173" lon="-0.14848">
        <ele>105.2</ele>
        <time>2019-02-03T23:31:46.833Z</time>
      </trkpt>
      <trkpt lat="46.71144" lon="-0.14876">
        <ele>108.9</ele>
        <time>2019-02-03T23:31:47.530Z</time>
      </trkpt>
      <trkpt lat="46.71098" lon="-0.14906">
        <ele>114.2</ele>
        <time>2019-02-03T23:31:48.540Z</time>
      </trkpt>
      <trkpt lat="46.71088" lon="-0.14915">
        <ele>114.9</ele>
        <time>2019-02-03T23:31:48.775Z</time>
      </trkpt>
      <trkpt lat="46.71081" lon="-0.14917">
        <ele>115</ele>
        <time>2019-02-03T23:31:48.918Z</time>
      </trkpt>
      <trkpt lat="46.7107" lon="-0.14921">
        <ele>115.4</ele>
        <time>2019-02-03T23:31:49.145Z</time>
      </trkpt>
      <trkpt lat="46.7106" lon="-0.14935">
        <ele>116.4</ele>
        <time>2019-02-03T23:31:49.423Z</time>
      </trkpt>
      <trkpt lat="46.71039" lon="-0.14977">
        <ele>118.6</ele>
        <time>2019-02-03T23:31:50.137Z</time>
      </trkpt>
      <trkpt lat="46.71031" lon="-0.14995">
        <ele>119.6</ele>
        <time>2019-02-03T23:31:50.432Z</time>
      </trkpt>
      <trkpt lat="46.71027" lon="-0.15011">
        <ele>120</ele>
        <time>2019-02-03T23:31:50.666Z</time>
      </trkpt>
      <trkpt lat="46.71023" lon="-0.15025">
        <ele>120</ele>
        <time>2019-02-03T23:31:50.874Z</time>
      </trkpt>
      <trkpt lat="46.71015" lon="-0.15036">
        <ele>119.5</ele>
        <time>2019-02-03T23:31:51.094Z</time>
      </trkpt>
      <trkpt lat="46.70941" lon="-0.15099">
        <ele>120.1</ele>
        <time>2019-02-03T23:31:52.811Z</time>
      </trkpt>
      <trkpt lat="46.70838" lon="-0.15189">
        <ele>125.5</ele>
        <time>2019-02-03T23:31:55.217Z</time>
      </trkpt>
      <trkpt lat="46.7076" lon="-0.15261">
        <ele>129.6</ele>
        <time>2019-02-03T23:31:57.067Z</time>
      </trkpt>
      <trkpt lat="46.70723" lon="-0.15291">
        <ele>131</ele>
        <time>2019-02-03T23:31:57.915Z</time>
      </trkpt>
      <trkpt lat="46.70705" lon="-0.15308">
        <ele>131.6</ele>
        <time>2019-02-03T23:31:58.345Z</time>
      </trkpt>
      <trkpt lat="46.7069" lon="-0.15333">
        <ele>132</ele>
        <time>2019-02-03T23:31:58.801Z</time>
      </trkpt>
      <trkpt lat="46.70637" lon="-0.15418">
        <ele>134.1</ele>
        <time>2019-02-03T23:32:00.380Z</time>
      </trkpt>
      <trkpt lat="46.70618" lon="-0.15438">
        <ele>134.8</ele>
        <time>2019-02-03T23:32:00.850Z</time>
      </trkpt>
      <trkpt lat="46.70604" lon="-0.1546">
        <ele>135.5</ele>
        <time>2019-02-03T23:32:01.262Z</time>
      </trkpt>
      <trkpt lat="46.70584" lon="-0.15491">
        <ele>137</ele>
        <time>2019-02-03T23:32:01.847Z</time>
      </trkpt>
      <trkpt lat="46.70583" lon="-0.15502">
        <ele>137</ele>
        <time>2019-02-03T23:32:01.999Z</time>
      </trkpt>
      <trkpt lat="46.70582" lon="-0.15506">
        <ele>137</ele>
        <time>2019-02-03T23:32:02.058Z</time>
      </trkpt>
      <trkpt lat="46.70602" lon="-0.15522">
        <ele>136.2</ele>
        <time>2019-02-03T23:32:02.515Z</time>
      </trkpt>
      <trkpt lat="46.70654" lon="-0.15569">
        <ele>135.7</ele>
        <time>2019-02-03T23:32:03.741Z</time>
      </trkpt>
      <trkpt lat="46.70673" lon="-0.15581">
        <ele>135.9</ele>
        <time>2019-02-03T23:32:04.156Z</time>
      </trkpt>
      <trkpt lat="46.70751" lon="-0.15623">
        <ele>135.4</ele>
        <time>2019-02-03T23:32:05.822Z</time>
      </trkpt>
      <trkpt lat="46.70821" lon="-0.15666">
        <ele>135.4</ele>
        <time>2019-02-03T23:32:07.344Z</time>
      </trkpt>
      <trkpt lat="46.70862" lon="-0.15698">
        <ele>136.1</ele>
        <time>2019-02-03T23:32:08.276Z</time>
      </trkpt>
      <trkpt lat="46.70877" lon="-0.15714">
        <ele>136.7</ele>
        <time>2019-02-03T23:32:08.648Z</time>
      </trkpt>
      <trkpt lat="46.70895" lon="-0.15736">
        <ele>137.5</ele>
        <time>2019-02-03T23:32:09.119Z</time>
      </trkpt>
      <trkpt lat="46.70927" lon="-0.15768">
        <ele>139.1</ele>
        <time>2019-02-03T23:32:09.897Z</time>
      </trkpt>
      <trkpt lat="46.70977" lon="-0.15813">
        <ele>140.3</ele>
        <time>2019-02-03T23:32:11.074Z</time>
      </trkpt>
      <trkpt lat="46.70995" lon="-0.15825">
        <ele>140.7</ele>
        <time>2019-02-03T23:32:11.471Z</time>
      </trkpt>
      <trkpt lat="46.71019" lon="-0.15838">
        <ele>141.1</ele>
        <time>2019-02-03T23:32:11.984Z</time>
      </trkpt>
      <trkpt lat="46.71068" lon="-0.15846">
        <ele>140.8</ele>
        <time>2019-02-03T23:32:12.972Z</time>
      </trkpt>
      <trkpt lat="46.71184" lon="-0.15866">
        <ele>138.5</ele>
        <time>2019-02-03T23:32:15.313Z</time>
      </trkpt>
      <trkpt lat="46.71229" lon="-0.15868">
        <ele>137.8</ele>
        <time>2019-02-03T23:32:16.215Z</time>
      </trkpt>
      <trkpt lat="46.7133" lon="-0.15864">
        <ele>137.1</ele>
        <time>2019-02-03T23:32:18.240Z</time>
      </trkpt>
      <trkpt lat="46.71388" lon="-0.15863">
        <ele>137</ele>
        <time>2019-02-03T23:32:19.402Z</time>
      </trkpt>
      <trkpt lat="46.71414" lon="-0.15867">
        <ele>137</ele>
        <time>2019-02-03T23:32:19.926Z</time>
      </trkpt>
      <trkpt lat="46.71463" lon="-0.15882">
        <ele>137</ele>
        <time>2019-02-03T23:32:20.929Z</time>
      </trkpt>
      <trkpt lat="46.71491" lon="-0.15893">
        <ele>137</ele>
        <time>2019-02-03T23:32:21.510Z</time>
      </trkpt>
      <trkpt lat="46.71516" lon="-0.15906">
        <ele>136.6</ele>
        <time>2019-02-03T23:32:22.042Z</time>
      </trkpt>
      <trkpt lat="46.71514" lon="-0.15931">
        <ele>136.5</ele>
        <time>2019-02-03T23:32:22.388Z</time>
      </trkpt>
      <trkpt lat="46.7152" lon="-0.16067">
        <ele>135.7</ele>
        <time>2019-02-03T23:32:24.260Z</time>
      </trkpt>
      <trkpt lat="46.71527" lon="-0.16104">
        <ele>135</ele>
        <time>2019-02-03T23:32:24.787Z</time>
      </trkpt>
      <trkpt lat="46.7154" lon="-0.16142">
        <ele>135</ele>
        <time>2019-02-03T23:32:25.370Z</time>
      </trkpt>
      <trkpt lat="46.71547" lon="-0.16167">
        <ele>135</ele>
        <time>2019-02-03T23:32:25.741Z</time>
      </trkpt>
      <trkpt lat="46.71549" lon="-0.16195">
        <ele>134.7</ele>
        <time>2019-02-03T23:32:26.128Z</time>
      </trkpt>
      <trkpt lat="46.7153" lon="-0.164">
        <ele>133</ele>
        <time>2019-02-03T23:32:28.970Z</time>
      </trkpt>
      <trkpt lat="46.71525" lon="-0.16419">
        <ele>133</ele>
        <time>2019-02-03T23:32:29.250Z</time>
      </trkpt>
      <trkpt lat="46.7151" lon="-0.1644">
        <ele>133</ele>
        <time>2019-02-03T23:32:29.667Z</time>
      </trkpt>
      <trkpt lat="46.71467" lon="-0.165">
        <ele>132.8</ele>
        <time>2019-02-03T23:32:30.860Z</time>
      </trkpt>
      <trkpt lat="46.71441" lon="-0.16531">
        <ele>132.1</ele>
        <time>2019-02-03T23:32:31.533Z</time>
      </trkpt>
      <trkpt lat="46.71402" lon="-0.16564">
        <ele>131.4</ele>
        <time>2019-02-03T23:32:32.437Z</time>
      </trkpt>
      <trkpt lat="46.71376" lon="-0.1659">
        <ele>131.6</ele>
        <time>2019-02-03T23:32:33.069Z</time>
      </trkpt>
      <trkpt lat="46.71317" lon="-0.16654">
        <ele>132.6</ele>
        <time>2019-02-03T23:32:34.542Z</time>
      </trkpt>
      <trkpt lat="46.71295" lon="-0.16686">
        <ele>133.4</ele>
        <time>2019-02-03T23:32:35.165Z</time>
      </trkpt>
      <trkpt lat="46.71249" lon="-0.16754">
        <ele>134</ele>
        <time>2019-02-03T23:32:36.478Z</time>
      </trkpt>
      <trkpt lat="46.71177" lon="-0.16863">
        <ele>133.6</ele>
        <time>2019-02-03T23:32:38.558Z</time>
      </trkpt>
      <trkpt lat="46.71157" lon="-0.16898">
        <ele>132.7</ele>
        <time>2019-02-03T23:32:39.184Z</time>
      </trkpt>
      <trkpt lat="46.71132" lon="-0.16943">
        <ele>131</ele>
        <time>2019-02-03T23:32:39.980Z</time>
      </trkpt>
      <trkpt lat="46.71112" lon="-0.16988">
        <ele>131</ele>
        <time>2019-02-03T23:32:40.717Z</time>
      </trkpt>
      <trkpt lat="46.71097" lon="-0.17016">
        <ele>131.2</ele>
        <time>2019-02-03T23:32:41.205Z</time>
      </trkpt>
      <trkpt lat="46.71065" lon="-0.17067">
        <ele>132.2</ele>
        <time>2019-02-03T23:32:42.155Z</time>
      </trkpt>
      <trkpt lat="46.71034" lon="-0.17121">
        <ele>132.7</ele>
        <time>2019-02-03T23:32:43.123Z</time>
      </trkpt>
      <trkpt lat="46.71023" lon="-0.17145">
        <ele>133</ele>
        <time>2019-02-03T23:32:43.520Z</time>
      </trkpt>
      <trkpt lat="46.70993" lon="-0.17217">
        <ele>132.6</ele>
        <time>2019-02-03T23:32:44.678Z</time>
      </trkpt>
      <trkpt lat="46.71015" lon="-0.17214">
        <ele>132.1</ele>
        <time>2019-02-03T23:32:45.121Z</time>
      </trkpt>
      <trkpt lat="46.71029" lon="-0.17208">
        <ele>132</ele>
        <time>2019-02-03T23:32:45.413Z</time>
      </trkpt>
      <trkpt lat="46.71056" lon="-0.17202">
        <ele>132</ele>
        <time>2019-02-03T23:32:45.960Z</time>
      </trkpt>
      <trkpt lat="46.71095" lon="-0.17205">
        <ele>132.6</ele>
        <time>2019-02-03T23:32:46.743Z</time>
      </trkpt>
      <trkpt lat="46.7119" lon="-0.17214">
        <ele>134.6</ele>
        <time>2019-02-03T23:32:48.651Z</time>
      </trkpt>
      <trkpt lat="46.71281" lon="-0.1722">
        <ele>134.9</ele>
        <time>2019-02-03T23:32:50.476Z</time>
      </trkpt>
      <trkpt lat="46.71397" lon="-0.17213">
        <ele>134.6</ele>
        <time>2019-02-03T23:32:52.803Z</time>
      </trkpt>
      <trkpt lat="46.71438" lon="-0.17206">
        <ele>133.8</ele>
        <time>2019-02-03T23:32:53.630Z</time>
      </trkpt>
      <trkpt lat="46.71471" lon="-0.17194">
        <ele>133.9</ele>
        <time>2019-02-03T23:32:54.312Z</time>
      </trkpt>
      <trkpt lat="46.71496" lon="-0.17182">
        <ele>133.6</ele>
        <time>2019-02-03T23:32:54.839Z</time>
      </trkpt>
      <trkpt lat="46.71529" lon="-0.17161">
        <ele>133.8</ele>
        <time>2019-02-03T23:32:55.560Z</time>
      </trkpt>
      <trkpt lat="46.71582" lon="-0.17129">
        <ele>133.6</ele>
        <time>2019-02-03T23:32:56.709Z</time>
      </trkpt>
      <trkpt lat="46.71595" lon="-0.1712">
        <ele>133.3</ele>
        <time>2019-02-03T23:32:56.997Z</time>
      </trkpt>
      <trkpt lat="46.71618" lon="-0.17095">
        <ele>133.1</ele>
        <time>2019-02-03T23:32:57.572Z</time>
      </trkpt>
      <trkpt lat="46.71647" lon="-0.17069">
        <ele>132.7</ele>
        <time>2019-02-03T23:32:58.254Z</time>
      </trkpt>
      <trkpt lat="46.71683" lon="-0.1704">
        <ele>130.3</ele>
        <time>2019-02-03T23:32:59.078Z</time>
      </trkpt>
      <trkpt lat="46.71709" lon="-0.1702">
        <ele>128</ele>
        <time>2019-02-03T23:32:59.667Z</time>
      </trkpt>
      <trkpt lat="46.71729" lon="-0.1701">
        <ele>126.5</ele>
        <time>2019-02-03T23:33:00.091Z</time>
      </trkpt>
      <trkpt lat="46.71742" lon="-0.17004">
        <ele>125.6</ele>
        <time>2019-02-03T23:33:00.364Z</time>
      </trkpt>
      <trkpt lat="46.71763" lon="-0.17">
        <ele>124.5</ele>
        <time>2019-02-03T23:33:00.788Z</time>
      </trkpt>
      <trkpt lat="46.71815" lon="-0.17002">
        <ele>124.1</ele>
        <time>2019-02-03T23:33:01.830Z</time>
      </trkpt>
      <trkpt lat="46.7188" lon="-0.16995">
        <ele>124</ele>
        <time>2019-02-03T23:33:03.136Z</time>
      </trkpt>
      <trkpt lat="46.71938" lon="-0.16989">
        <ele>123.4</ele>
        <time>2019-02-03T23:33:04.301Z</time>
      </trkpt>
      <trkpt lat="46.71956" lon="-0.16989">
        <ele>123.7</ele>
        <time>2019-02-03T23:33:04.662Z</time>
      </trkpt>
      <trkpt lat="46.71976" lon="-0.16999">
        <ele>124.9</ele>
        <time>2019-02-03T23:33:05.086Z</time>
      </trkpt>
      <trkpt lat="46.71989" lon="-0.17009">
        <ele>125.5</ele>
        <time>2019-02-03T23:33:05.381Z</time>
      </trkpt>
      <trkpt lat="46.72019" lon="-0.17045">
        <ele>125.3</ele>
        <time>2019-02-03T23:33:06.159Z</time>
      </trkpt>
      <trkpt lat="46.72031" lon="-0.17052">
        <ele>125</ele>
        <time>2019-02-03T23:33:06.418Z</time>
      </trkpt>
      <trkpt lat="46.72038" lon="-0.17051">
        <ele>125.1</ele>
        <time>2019-02-03T23:33:06.559Z</time>
      </trkpt>
      <trkpt lat="46.72077" lon="-0.17021">
        <ele>125.1</ele>
        <time>2019-02-03T23:33:07.443Z</time>
      </trkpt>
      <trkpt lat="46.72167" lon="-0.16954">
        <ele>125</ele>
        <time>2019-02-03T23:33:09.468Z</time>
      </trkpt>
      <trkpt lat="46.72192" lon="-0.16927">
        <ele>123.5</ele>
        <time>2019-02-03T23:33:10.091Z</time>
      </trkpt>
      <trkpt lat="46.72217" lon="-0.16905">
        <ele>121.4</ele>
        <time>2019-02-03T23:33:10.676Z</time>
      </trkpt>
      <trkpt lat="46.72304" lon="-0.16826">
        <ele>118.1</ele>
        <time>2019-02-03T23:33:12.730Z</time>
      </trkpt>
      <trkpt lat="46.72354" lon="-0.16775">
        <ele>117</ele>
        <time>2019-02-03T23:33:13.953Z</time>
      </trkpt>
      <trkpt lat="46.72403" lon="-0.16727">
        <ele>116</ele>
        <time>2019-02-03T23:33:15.136Z</time>
      </trkpt>
      <trkpt lat="46.7243" lon="-0.16703">
        <ele>115.5</ele>
        <time>2019-02-03T23:33:15.770Z</time>
      </trkpt>
      <trkpt lat="46.72443" lon="-0.16687">
        <ele>115</ele>
        <time>2019-02-03T23:33:16.111Z</time>
      </trkpt>
      <trkpt lat="46.72451" lon="-0.16676">
        <ele>115</ele>
        <time>2019-02-03T23:33:16.331Z</time>
      </trkpt>
      <trkpt lat="46.72468" lon="-0.16644">
        <ele>115.7</ele>
        <time>2019-02-03T23:33:16.894Z</time>
      </trkpt>
      <trkpt lat="46.725" lon="-0.16598">
        <ele>120.5</ele>
        <time>2019-02-03T23:33:17.787Z</time>
      </trkpt>
      <trkpt lat="46.72508" lon="-0.16598">
        <ele>120.6</ele>
        <time>2019-02-03T23:33:17.947Z</time>
      </trkpt>
      <trkpt lat="46.72517" lon="-0.16592">
        <ele>120.9</ele>
        <time>2019-02-03T23:33:18.145Z</time>
      </trkpt>
      <trkpt lat="46.72527" lon="-0.16574">
        <ele>121</ele>
        <time>2019-02-03T23:33:18.463Z</time>
      </trkpt>
      <trkpt lat="46.72529" lon="-0.16561">
        <ele>121</ele>
        <time>2019-02-03T23:33:18.646Z</time>
      </trkpt>
      <trkpt lat="46.72526" lon="-0.16552">
        <ele>120.8</ele>
        <time>2019-02-03T23:33:18.783Z</time>
      </trkpt>
      <trkpt lat="46.72525" lon="-0.16551">
        <ele>120.8</ele>
        <time>2019-02-03T23:33:18.807Z</time>
      </trkpt>
      <trkpt lat="46.7253" lon="-0.16543">
        <ele>120.6</ele>
        <time>2019-02-03T23:33:18.956Z</time>
      </trkpt>
      <trkpt lat="46.72546" lon="-0.16531">
        <ele>119.6</ele>
        <time>2019-02-03T23:33:19.317Z</time>
      </trkpt>
      <trkpt lat="46.72564" lon="-0.16521">
        <ele>118.3</ele>
        <time>2019-02-03T23:33:19.703Z</time>
      </trkpt>
      <trkpt lat="46.72584" lon="-0.16497">
        <ele>116.9</ele>
        <time>2019-02-03T23:33:20.222Z</time>
      </trkpt>
      <trkpt lat="46.72593" lon="-0.16492">
        <ele>116.7</ele>
        <time>2019-02-03T23:33:20.415Z</time>
      </trkpt>
      <trkpt lat="46.72621" lon="-0.16481">
        <ele>116.3</ele>
        <time>2019-02-03T23:33:20.996Z</time>
      </trkpt>
      <trkpt lat="46.7262" lon="-0.16474">
        <ele>116.1</ele>
        <time>2019-02-03T23:33:21.094Z</time>
      </trkpt>
      <trkpt lat="46.72622" lon="-0.16473">
        <ele>116</ele>
        <time>2019-02-03T23:33:21.136Z</time>
      </trkpt>
      <trkpt lat="46.72677" lon="-0.16444">
        <ele>116.4</ele>
        <time>2019-02-03T23:33:22.308Z</time>
      </trkpt>
      <trkpt lat="46.72682" lon="-0.16447">
        <ele>116.6</ele>
        <time>2019-02-03T23:33:22.416Z</time>
      </trkpt>
      <trkpt lat="46.72687" lon="-0.16453">
        <ele>117</ele>
        <time>2019-02-03T23:33:22.546Z</time>
      </trkpt>
      <trkpt lat="46.72697" lon="-0.16479">
        <ele>118.4</ele>
        <time>2019-02-03T23:33:22.956Z</time>
      </trkpt>
      <trkpt lat="46.72707" lon="-0.16493">
        <ele>119.3</ele>
        <time>2019-02-03T23:33:23.234Z</time>
      </trkpt>
      <trkpt lat="46.72723" lon="-0.16504">
        <ele>120.2</ele>
        <time>2019-02-03T23:33:23.588Z</time>
      </trkpt>
      <trkpt lat="46.72752" lon="-0.16514">
        <ele>123.1</ele>
        <time>2019-02-03T23:33:24.185Z</time>
      </trkpt>
      <trkpt lat="46.72771" lon="-0.1651">
        <ele>123.8</ele>
        <time>2019-02-03T23:33:24.570Z</time>
      </trkpt>
      <trkpt lat="46.7278" lon="-0.16509">
        <ele>124</ele>
        <time>2019-02-03T23:33:24.751Z</time>
      </trkpt>
      <trkpt lat="46.72789" lon="-0.1651">
        <ele>124</ele>
        <time>2019-02-03T23:33:24.932Z</time>
      </trkpt>
      <trkpt lat="46.72799" lon="-0.16514">
        <ele>124</ele>
        <time>2019-02-03T23:33:25.140Z</time>
      </trkpt>
      <trkpt lat="46.72808" lon="-0.16519">
        <ele>124</ele>
        <time>2019-02-03T23:33:25.333Z</time>
      </trkpt>
      <trkpt lat="46.7281" lon="-0.16509">
        <ele>123.9</ele>
        <time>2019-02-03T23:33:25.476Z</time>
      </trkpt>
      <trkpt lat="46.72811" lon="-0.16505">
        <ele>123.8</ele>
        <time>2019-02-03T23:33:25.534Z</time>
      </trkpt>
      <trkpt lat="46.72824" lon="-0.16529">
        <ele>124</ele>
        <time>2019-02-03T23:33:25.954Z</time>
      </trkpt>
      <trkpt lat="46.72854" lon="-0.16523">
        <ele>123.2</ele>
        <time>2019-02-03T23:33:26.561Z</time>
      </trkpt>
    </trkseg>
  </trk>
</gpx>